GFSMA_sfc_thetae_000.txt.gz
Theta_e
322 323 323 324 325 327 326 327 326 327 328 328 329 328 328 328 330 333 335 338 339 345 345 347 349 348 349 348 347 346 343 343 345 345 344 345 345 344 342 340 338 336 334
323 323 323 325 325 324 324 325 325 326 326 327 327 328 328 328 329 331 334 336 338 343 346 345 349 348 349 348 346 343 343 343 343 342 342 341 343 342 339 337 335 334 334
324 324 324 325 323 323 323 323 323 324 325 325 325 327 327 327 328 329 333 335 338 341 344 346 345 347 348 347 347 346 343 342 341 341 342 342 340 339 337 335 334 334 333
325 323 324 323 323 323 322 321 322 322 323 323 324 325 326 327 328 329 332 335 339 341 340 345 342 345 345 343 347 343 340 341 341 340 340 340 338 337 336 334 334 332 332
326 323 323 322 322 321 321 320 320 321 320 321 323 324 325 325 327 331 332 335 338 338 341 342 341 343 345 345 345 341 340 339 341 339 340 338 336 336 336 333 333 332 331
327 324 322 321 321 320 319 318 319 320 321 321 323 324 323 325 327 330 331 335 337 337 338 339 341 343 342 343 344 342 340 340 339 339 338 337 337 336 335 333 332 331 330
325 322 321 321 321 320 319 318 319 319 319 321 319 320 322 326 327 328 332 333 333 333 337 340 341 342 341 343 340 339 339 339 339 337 337 336 336 335 334 333 331 331 329
325 322 321 321 320 319 318 317 318 317 318 320 317 317 315 320 325 328 328 330 332 335 335 339 338 339 338 336 336 338 339 340 339 336 336 335 336 335 333 332 331 330 329
325 324 322 321 320 318 317 317 318 319 317 318 320 319 314 313 319 325 328 329 332 334 334 337 336 336 336 333 336 338 338 337 336 333 334 335 336 333 332 331 331 330 329
324 324 323 321 320 319 317 318 319 321 321 318 320 323 321 322 317 316 325 328 332 332 332 334 333 335 335 335 337 337 334 333 331 332 336 336 335 334 332 331 330 330 329
325 323 322 320 319 319 319 319 319 320 321 320 321 322 322 323 323 322 315 322 327 330 332 334 333 333 333 334 334 333 332 332 333 335 336 336 334 333 333 332 330 329 329
321 321 321 320 320 320 319 320 320 320 320 322 323 324 323 321 319 320 320 321 321 326 331 332 332 332 332 332 334 332 330 331 330 331 332 331 335 335 332 331 330 330 330
318 319 319 319 320 321 322 321 322 321 321 323 323 324 324 324 325 325 325 321 320 325 326 330 331 332 332 333 333 333 332 327 326 326 327 329 331 331 332 332 331 331 329
316 318 320 321 322 323 323 323 323 322 323 324 324 324 324 325 328 328 324 323 318 320 324 325 330 331 331 331 332 331 330 326 324 324 324 325 327 328 329 330 330 330 329
318 319 320 321 322 323 323 323 324 325 325 325 324 325 326 326 328 329 327 328 322 317 318 324 324 330 331 332 331 330 329 325 326 322 322 322 323 324 325 325 325 325 325
319 320 320 321 322 323 324 324 325 327 327 324 325 327 326 327 327 327 327 327 324 323 317 325 325 328 330 330 331 328 327 326 323 322 322 321 320 320 321 321 321 322 323
318 320 321 322 322 323 323 325 326 326 326 326 326 326 325 326 327 326 327 327 324 325 321 324 327 328 327 327 327 326 327 326 324 320 321 319 317 317 318 318 318 319 319
319 320 322 322 322 322 323 324 325 326 326 325 325 326 324 325 326 325 327 325 325 326 324 320 323 324 325 325 324 323 324 324 323 320 319 318 316 315 315 314 313 313 312
320 322 323 323 322 323 323 323 323 324 326 325 326 325 325 326 325 325 326 325 325 326 325 323 321 323 323 324 321 321 320 320 319 321 317 315 314 313 313 312 311 310 309
321 322 323 323 323 324 323 322 322 324 326 326 325 325 326 325 325 324 324 324 325 324 324 323 321 319 320 320 322 320 320 320 318 317 316 314 313 312 311 312 313 313 310
322 323 324 324 324 324 323 322 323 324 325 325 325 325 325 324 321 323 325 324 325 323 322 321 319 318 317 318 319 318 319 317 317 319 317 314 315 315 314 311 312 310 305
322 323 324 324 324 325 306 312 320 323 326 326 323 323 323 319 316 314 315 316 321 323 320 322 319 319 318 320 316 317 316 316 314 317 317 313 315 311 312 312 306 304 303
320 321 321 323 323 321 302 306 311 325 325 324 324 325 325 323 322 322 312 312 313 313 315 322 321 321 319 319 317 314 315 315 316 317 319 312 312 309 309 308 303 302 302
318 318 318 321 321 317 302 303 310 324 324 325 326 326 325 325 321 323 324 323 323 323 323 322 323 322 324 321 321 320 318 317 316 315 318 312 310 309 308 310 303 302 301
314 315 316 320 321 317 300 301 317 325 324 325 326 324 325 325 304 308 324 320 315 313 304 307 306 304 303 304 312 319 318 320 317 314 312 312 309 309 309 307 306 302 300
314 313 314 319 314 319 300 302 316 324 321 321 322 322 311 317 300 304 318 315 313 312 311 308 308 307 308 308 305 323 320 317 310 310 313 310 308 307 306 308 305 304 304

GFSMA_sfc_thetae_003.txt.gz
Theta_e
336 336 335 335 335 333 335 336 334 334 335 336 336 335 334 335 336 335 333 336 340 341 343 344 345 348 349 350 350 348 349 346 346 345 344 345 346 346 344 341 340 339 337
336 335 335 335 338 337 336 336 332 332 332 334 334 335 335 335 335 334 332 337 339 340 342 342 343 345 348 349 349 347 346 344 344 345 345 346 345 344 342 340 338 336 335
337 337 338 336 338 333 336 335 334 334 333 332 332 333 334 335 333 334 335 337 339 340 341 342 341 343 348 349 349 348 345 344 345 344 344 342 343 342 341 338 336 335 334
339 338 337 336 335 335 337 334 334 330 329 330 331 331 332 333 333 334 336 337 341 342 341 341 343 342 345 346 349 345 345 343 342 342 341 342 342 340 339 336 335 334 333
338 337 336 333 335 335 332 333 332 330 328 329 329 330 330 330 333 333 336 338 339 341 342 342 341 341 343 340 347 344 342 342 340 341 341 341 340 339 337 336 334 333 332
337 336 334 331 333 330 329 329 331 330 329 329 328 329 330 331 333 336 335 336 339 339 344 344 344 345 343 339 343 343 341 339 338 338 339 338 338 338 337 335 332 331 331
337 336 333 329 328 329 331 330 329 327 328 331 327 327 329 331 331 334 336 336 337 340 344 345 344 345 344 342 340 340 339 339 339 339 338 337 337 337 334 334 332 331 330
336 335 331 329 328 328 329 329 328 325 327 330 324 323 319 323 329 332 337 338 338 341 341 342 344 346 344 338 338 340 340 340 338 337 336 336 336 334 334 333 331 330 329
334 334 332 330 330 329 328 328 327 325 322 325 329 325 318 314 321 331 333 333 335 337 339 340 343 343 339 337 338 340 339 337 338 335 335 335 335 334 333 332 332 330 329
333 333 332 331 331 330 328 327 326 325 326 324 327 331 330 329 318 319 331 332 335 335 336 339 339 337 341 340 337 336 335 334 333 331 332 331 335 334 332 332 331 331 329
332 330 331 331 330 329 329 328 327 327 331 329 328 326 329 331 331 327 318 327 333 336 336 337 337 336 335 337 335 333 331 331 333 334 335 336 335 334 331 332 331 330 329
330 330 330 330 330 330 329 328 329 329 330 332 332 330 330 327 326 329 322 325 324 330 336 334 336 334 333 332 332 331 330 329 329 330 329 334 335 335 332 332 331 330 330
327 329 330 329 330 331 331 331 331 330 330 330 331 331 330 333 334 333 328 327 323 327 328 333 332 333 331 331 332 332 331 328 327 326 327 330 332 329 332 333 332 331 330
327 330 329 330 331 331 331 332 332 330 331 333 332 331 331 330 333 334 328 326 323 325 327 325 331 331 331 332 331 331 331 326 325 323 322 325 326 326 328 330 331 331 330
327 328 329 330 330 331 332 332 333 332 331 331 332 331 331 334 336 339 339 337 331 320 322 324 325 331 332 331 331 331 331 325 325 323 323 322 321 322 325 326 326 327 327
328 328 328 330 331 331 333 333 332 331 331 332 332 333 332 335 333 337 333 331 332 325 319 325 326 329 330 331 331 330 330 327 324 323 323 322 321 321 322 322 323 324 324
328 327 328 328 329 331 333 332 331 329 329 331 333 328 329 334 332 334 335 330 330 326 321 324 327 328 327 328 328 328 331 329 327 321 322 320 318 318 319 320 320 320 320
327 327 329 328 329 330 332 331 328 327 326 327 328 327 328 331 332 334 335 333 333 327 324 321 324 325 325 327 326 328 327 327 328 321 320 318 316 316 316 316 318 314 313
328 329 330 329 329 330 331 331 330 328 328 328 330 328 329 329 331 333 333 333 332 327 327 324 322 324 324 325 325 326 325 326 325 323 318 316 315 315 314 313 312 312 309
329 331 331 330 330 330 330 330 329 328 328 329 329 330 331 329 332 331 329 331 333 327 327 322 322 321 321 323 323 320 319 324 321 322 316 316 315 312 312 313 313 310 306
330 331 331 330 331 330 328 329 329 328 329 328 331 331 332 328 323 323 331 326 330 327 323 321 319 319 318 319 319 324 323 322 323 323 321 322 322 319 314 310 310 309 305
331 331 330 329 330 328 306 313 324 328 330 331 330 331 331 324 318 314 314 316 324 326 322 321 320 318 320 325 325 323 322 319 316 326 320 314 316 312 311 311 305 304 303
331 331 330 330 330 329 303 305 311 329 329 330 332 331 329 328 327 329 313 313 313 312 317 327 328 326 326 327 327 326 324 322 321 323 318 312 314 310 312 309 304 302 301
330 330 330 331 331 327 301 303 309 328 328 328 332 332 331 332 329 329 328 328 327 327 329 333 335 334 334 332 331 328 327 326 325 323 323 311 313 311 311 308 302 301 300
329 328 328 330 330 325 301 302 317 325 326 328 330 332 332 330 305 309 327 328 329 325 308 304 305 307 307 309 318 324 320 322 320 321 325 316 314 311 310 308 305 301 300
328 325 327 331 320 325 300 301 318 329 327 328 326 325 311 321 300 307 331 329 326 325 326 326 326 315 315 313 309 330 326 323 322 316 320 315 313 310 306 310 307 307 307

GFSMA_sfc_thetae_006.txt.gz
Theta_e
340 339 338 337 337 337 333 335 335 335 335 335 335 335 334 333 334 334 334 337 337 340 341 341 344 345 346 348 349 349 347 347 346 345 344 345 347 347 346 344 343 341 340
340 339 339 340 341 341 337 334 335 333 333 333 335 335 335 333 334 337 335 335 338 340 340 341 344 343 345 347 348 349 347 346 346 344 344 345 345 345 344 342 340 339 337
342 342 344 344 342 346 342 337 335 335 332 332 333 335 335 336 335 335 335 333 336 340 340 341 342 341 342 348 349 348 347 346 345 344 344 343 343 344 343 340 339 336 335
342 344 343 341 343 342 339 334 335 331 330 330 331 333 334 334 334 334 333 333 335 338 340 342 342 341 344 347 350 348 347 345 344 344 343 342 343 342 340 337 336 335 333
342 344 342 342 341 335 335 337 334 333 331 329 331 333 335 331 332 332 332 336 339 339 337 342 342 342 343 346 350 349 347 342 343 343 342 342 342 340 339 337 335 333 333
341 342 341 339 334 333 336 335 334 334 331 330 331 330 332 331 331 331 332 335 339 339 340 341 343 343 344 337 344 343 345 343 343 342 341 340 339 339 337 336 334 332 331
341 341 339 337 337 333 330 333 334 332 331 332 331 330 330 332 333 331 333 335 338 339 342 342 343 346 345 340 343 342 343 341 340 340 339 337 337 338 337 335 332 331 331
340 339 338 337 334 329 332 333 331 331 331 332 328 327 320 325 328 331 333 336 338 340 340 342 344 345 348 346 345 341 341 341 340 336 337 335 337 336 333 333 332 331 330
338 338 337 335 334 335 334 333 332 329 326 330 332 328 320 316 321 329 334 335 338 342 341 343 344 345 347 346 341 340 339 338 338 337 336 336 334 330 333 333 332 330 330
335 335 336 334 335 334 333 332 331 331 330 328 331 329 331 331 318 319 334 335 337 339 340 343 345 341 338 339 338 338 335 336 336 335 333 331 332 330 332 332 331 332 330
335 333 334 334 333 332 333 332 330 331 331 330 326 327 329 328 329 321 323 329 337 339 341 344 342 343 341 336 335 334 333 332 329 331 332 331 333 334 333 332 331 331 330
333 333 332 333 334 334 332 331 332 331 333 333 332 329 330 328 323 330 330 330 331 335 340 341 339 338 335 333 332 330 327 326 327 329 328 331 334 335 333 332 331 331 330
329 331 333 333 335 335 334 333 333 333 333 332 332 328 330 331 340 334 333 329 327 331 330 334 333 332 331 329 329 329 329 327 326 325 326 329 331 332 333 333 332 331 330
329 334 334 333 334 334 334 336 335 333 334 333 332 334 335 335 336 340 337 330 324 329 328 325 330 328 328 328 328 328 326 324 323 322 323 324 323 326 326 330 331 331 330
330 332 332 333 334 334 334 334 334 334 334 332 334 336 338 335 334 345 346 337 330 322 321 324 322 326 327 328 328 328 325 322 324 321 322 323 323 323 325 326 327 327 327
330 331 331 334 334 334 333 334 336 334 334 332 332 333 333 334 338 338 338 340 340 328 321 325 324 325 327 328 327 325 327 326 323 322 322 320 319 320 322 323 324 326 326
331 329 329 331 332 332 334 335 333 331 331 332 334 332 334 336 338 335 338 337 334 330 322 323 325 327 326 326 327 327 330 327 326 322 323 320 319 319 320 321 322 323 322
331 329 329 329 330 332 334 333 330 328 329 330 329 333 333 333 337 338 335 333 330 328 324 321 323 324 324 326 328 327 328 329 329 322 320 318 317 317 318 318 318 316 314
330 329 330 329 330 331 333 333 332 328 328 331 333 334 334 336 335 335 335 331 327 327 325 322 321 325 325 327 325 329 328 329 326 322 317 316 316 316 315 314 313 311 309
330 332 332 331 331 330 332 332 330 328 330 332 332 334 334 333 335 334 334 333 331 327 326 323 321 321 323 326 326 324 321 323 321 321 317 318 316 313 313 313 311 308 305
332 332 332 331 332 331 329 330 329 333 332 330 331 331 331 327 321 328 336 331 332 328 325 322 319 320 320 321 321 324 320 320 323 323 322 322 320 318 313 310 309 307 305
332 331 331 331 331 328 307 315 325 331 333 333 332 330 331 326 317 313 315 316 329 329 323 321 319 318 319 322 324 323 322 319 317 327 325 321 319 314 314 313 305 304 303
334 332 332 332 331 330 305 306 311 331 334 333 334 333 329 328 326 326 313 313 313 312 319 327 320 319 322 328 329 328 326 322 321 324 322 315 317 314 312 308 303 302 301
334 333 333 333 331 326 303 303 309 333 334 333 333 333 333 330 330 331 329 326 327 327 329 328 325 327 335 335 336 332 331 332 328 324 325 314 317 314 312 309 302 301 299
334 333 333 333 332 328 302 303 316 328 332 331 333 334 332 333 307 309 331 329 328 322 308 308 312 312 310 312 322 327 326 323 321 323 326 319 317 314 311 308 305 300 299
332 331 332 334 321 330 301 302 315 328 331 330 333 333 308 325 302 307 333 331 328 328 327 327 327 319 323 320 310 336 328 323 324 322 327 319 316 314 310 312 309 307 306

GFSMA_sfc_thetae_009.txt.gz
Theta_e
344 341 343 339 339 337 337 340 339 339 340 337 334 335 334 334 337 334 334 339 337 337 339 341 342 343 346 346 349 348 348 347 346 344 344 344 345 345 345 345 346 344 342
343 339 340 341 344 343 338 337 337 337 335 333 335 336 336 334 334 337 334 337 339 339 339 342 342 344 346 346 348 348 347 346 345 346 344 344 344 345 346 345 343 341 340
345 343 339 344 344 343 342 339 339 338 333 334 335 333 334 337 336 337 337 334 336 340 342 341 341 344 344 344 348 349 347 346 346 345 343 343 343 343 344 343 341 339 337
343 341 341 344 346 344 343 340 335 334 334 330 331 335 333 335 335 336 333 335 333 337 340 343 342 344 343 343 349 349 348 346 345 343 343 342 342 341 342 342 339 336 334
342 343 342 343 345 343 339 337 336 339 334 332 332 335 333 333 334 332 335 334 338 336 336 341 344 344 344 345 347 349 348 346 344 343 342 342 342 341 341 339 336 334 333
341 343 342 341 342 338 336 337 337 336 336 336 329 333 334 333 333 332 335 333 334 336 339 342 340 338 344 341 347 350 349 348 345 343 341 340 340 340 338 337 335 333 332
343 342 340 339 339 339 338 336 335 329 333 336 333 330 334 333 334 331 332 331 334 336 339 338 341 342 343 339 342 349 350 347 343 340 338 337 337 338 337 336 335 332 332
341 341 339 337 338 339 335 333 333 331 331 336 328 329 322 327 329 330 331 333 335 336 336 338 340 344 348 343 345 345 347 346 343 340 338 336 336 337 336 335 333 332 330
339 339 338 337 337 336 334 335 334 331 329 331 332 330 321 316 321 329 331 332 336 338 339 340 342 343 347 348 345 345 341 341 341 339 335 334 336 335 333 333 331 330 330
336 336 337 336 337 336 335 334 334 332 331 328 333 335 333 331 320 318 328 336 340 340 341 342 347 345 346 346 344 340 337 337 338 336 333 331 331 329 332 332 331 332 330
336 333 335 335 335 338 335 334 332 331 335 333 332 331 329 327 326 327 319 326 337 342 340 347 344 345 344 344 342 337 333 333 333 333 333 331 330 328 333 332 332 331 330
334 334 333 334 335 335 334 335 333 333 335 335 337 330 326 325 323 321 329 331 330 335 342 344 342 337 338 340 338 333 331 330 328 328 330 331 330 331 333 332 332 331 330
335 334 333 334 335 336 335 335 334 334 335 333 333 331 331 329 334 332 331 331 327 334 334 333 334 332 331 335 334 331 329 326 324 325 327 329 331 332 333 333 331 331 331
332 334 333 335 335 334 335 336 339 337 335 336 334 336 335 331 335 340 335 333 327 328 328 325 328 328 327 327 328 328 326 324 323 323 323 324 327 329 330 331 331 331 331
331 332 333 333 334 334 333 335 336 334 335 334 336 336 335 341 338 337 342 336 336 323 319 322 322 326 326 326 327 327 326 325 324 321 321 322 323 323 323 326 327 327 328
331 331 331 333 333 333 333 335 335 335 334 333 334 335 336 333 338 339 342 341 339 330 320 323 322 323 325 326 326 324 324 324 322 321 321 320 320 320 322 323 324 325 328
331 330 330 330 330 331 335 336 335 333 331 334 334 333 334 336 339 339 338 337 334 329 319 321 323 325 323 322 323 323 325 325 324 321 321 319 318 319 320 322 324 325 323
330 329 329 329 329 332 333 333 331 330 331 331 333 333 332 334 336 337 334 333 331 327 321 318 321 322 322 323 323 325 326 328 326 323 320 318 317 318 319 318 317 315 314
329 329 330 328 330 332 333 332 330 331 331 332 333 334 334 335 334 334 332 330 329 326 323 320 320 323 322 322 324 325 326 327 329 322 317 315 315 315 314 313 312 310 308
329 332 330 331 331 331 332 332 328 331 331 332 333 335 334 335 335 333 331 328 325 323 322 322 321 321 322 324 324 321 320 323 323 324 321 319 317 313 312 311 310 308 305
331 332 331 331 332 332 330 333 333 333 329 330 333 332 332 326 324 329 329 329 325 323 322 321 320 320 320 321 319 320 318 321 322 323 321 321 319 316 311 310 309 307 304
331 333 331 330 332 329 307 313 323 334 332 332 329 328 328 326 318 314 318 320 323 323 321 320 320 318 319 321 322 317 317 317 315 326 322 320 320 315 312 311 305 304 303
336 333 331 332 332 329 306 306 311 334 335 334 333 332 328 326 325 327 313 313 314 313 318 323 320 320 320 325 323 320 323 323 321 327 326 317 319 314 311 306 303 302 301
334 333 333 333 332 326 306 305 310 335 336 334 334 333 330 331 329 329 328 328 326 325 324 324 322 323 324 325 329 328 329 331 328 326 327 314 318 311 310 307 302 301 300
336 335 334 333 332 328 304 303 316 334 332 333 333 333 333 331 309 310 330 325 322 319 313 312 314 312 310 312 323 329 326 323 319 320 326 318 317 312 309 305 304 301 300
334 334 333 334 322 330 304 301 315 333 332 331 334 332 310 323 305 308 331 326 321 321 324 323 326 314 319 323 312 337 330 323 321 320 328 320 319 314 309 310 305 303 302

GFSMA_sfc_thetae_012.txt.gz
Theta_e
342 345 343 343 343 341 338 339 337 335 336 333 333 334 333 334 334 332 336 344 342 342 340 340 342 342 344 348 348 348 347 347 346 346 344 344 344 344 344 344 344 345 344
344 344 344 342 343 344 339 337 334 335 332 335 335 333 334 334 334 335 335 337 341 341 341 340 341 342 343 346 347 348 348 347 346 346 343 343 343 343 343 343 344 343 341
346 345 342 342 344 342 339 337 335 333 331 334 333 333 334 334 335 334 333 335 335 340 340 341 342 342 343 346 346 348 348 347 346 345 344 342 343 342 343 344 343 341 338
346 345 341 341 343 342 340 337 335 333 331 332 331 331 331 333 334 331 333 333 333 333 339 342 344 344 344 345 345 349 348 347 345 344 343 343 342 342 342 342 341 338 335
344 342 341 342 343 340 337 335 334 333 331 330 331 331 329 330 332 332 332 331 332 335 336 339 342 343 346 346 345 348 349 347 345 344 344 343 342 342 341 340 339 335 334
344 343 342 342 341 338 336 334 332 333 332 330 332 329 329 331 331 330 331 332 331 334 335 336 335 338 344 345 346 350 350 348 346 344 342 341 341 341 339 338 337 334 333
344 343 341 340 339 336 334 334 331 329 329 330 326 326 327 329 330 331 330 331 330 331 333 337 335 333 338 344 344 348 350 349 347 343 341 339 339 338 337 337 336 334 332
344 339 340 338 338 335 333 331 330 327 328 327 321 322 317 321 327 330 328 329 329 330 333 335 335 337 337 336 336 343 349 347 346 343 339 337 336 336 335 336 335 333 331
341 339 339 337 335 334 331 331 331 328 325 327 326 320 315 313 319 325 328 327 327 331 333 332 334 337 339 338 341 343 345 344 344 340 336 336 336 336 336 334 334 331 330
337 337 338 336 336 334 333 331 333 330 327 322 326 327 326 323 315 314 323 326 328 330 330 333 334 337 339 339 344 344 340 340 340 338 338 336 337 337 334 332 327 328 330
338 336 336 336 334 334 334 332 331 329 329 326 324 324 324 323 323 319 315 320 327 331 332 331 333 335 339 339 338 336 335 336 335 334 334 335 335 332 327 325 331 331 330
337 336 334 333 334 334 334 333 332 330 328 327 326 326 323 320 319 319 317 319 320 326 330 332 333 334 335 338 338 334 331 330 328 329 329 328 329 328 328 331 332 331 331
335 334 334 330 332 335 335 334 333 331 329 328 326 326 326 325 326 324 320 320 319 324 326 328 331 332 336 336 334 332 330 327 324 323 324 327 326 328 332 332 332 332 331
333 335 331 332 335 335 334 334 333 333 332 330 329 329 328 329 329 327 324 320 318 321 322 322 326 328 331 333 333 331 327 325 324 323 323 324 326 328 329 330 331 331 332
333 334 333 334 335 334 334 332 330 332 332 333 331 331 329 331 330 331 329 328 321 317 316 321 322 326 328 329 330 327 326 325 324 322 322 322 324 325 325 326 326 326 326
335 334 331 334 334 332 331 332 333 333 332 332 333 332 330 331 331 332 331 329 327 321 315 321 321 324 326 325 326 324 325 325 323 322 323 320 319 319 321 322 322 325 324
333 332 331 330 330 329 332 333 332 332 331 331 332 330 332 331 330 329 329 329 328 322 316 319 322 322 322 322 323 324 326 325 322 320 320 318 316 315 319 317 316 316 321
333 332 331 328 330 331 333 330 331 330 330 330 331 330 330 332 329 330 329 327 323 322 319 316 318 320 320 321 323 323 325 326 323 321 318 317 317 316 317 316 316 316 314
331 332 327 330 331 333 331 329 330 330 331 331 331 331 328 328 328 329 327 324 323 322 321 318 317 320 320 323 323 323 322 324 325 321 317 316 315 315 314 313 311 310 308
331 328 330 331 332 332 333 330 330 331 326 329 329 329 330 329 329 327 326 325 323 321 322 319 318 318 320 322 323 320 319 323 322 325 321 317 315 313 311 310 310 308 305
331 332 328 329 332 331 326 330 330 327 328 325 326 327 325 327 325 324 325 323 322 322 320 318 317 318 319 319 318 319 318 319 318 321 317 315 312 308 308 309 308 306 304
331 330 332 330 331 325 308 316 326 329 329 329 324 328 327 321 319 315 317 316 321 322 320 320 319 318 318 317 318 315 316 313 312 318 314 312 310 306 305 305 305 303 302
331 330 330 330 328 323 305 305 315 331 331 329 327 326 326 325 324 322 311 312 312 311 317 322 320 319 318 317 315 314 313 314 313 317 315 309 309 306 304 304 303 302 301
333 329 331 332 328 319 305 303 308 333 333 330 329 327 327 328 325 325 325 323 322 323 323 324 323 322 323 320 319 318 320 320 320 321 315 307 307 303 304 301 302 301 299
333 331 333 333 328 324 306 302 316 332 331 329 330 330 329 326 308 310 324 321 320 319 312 310 312 311 310 312 318 322 320 318 315 315 317 311 307 303 301 300 299 301 299
331 333 333 333 320 325 304 302 311 333 330 329 329 323 309 319 306 310 324 321 319 320 321 321 320 318 315 317 309 324 323 316 315 312 318 312 307 306 300 301 299 297 296

GFSMA_sfc_thetae_015.txt.gz
Theta_e
332 331 331 331 331 331 330 331 329 331 332 330 328 328 330 331 334 332 333 344 343 343 343 343 343 343 342 347 348 348 347 348 346 347 345 346 346 344 344 344 345 344 344
331 333 334 333 331 332 330 329 329 329 327 328 329 329 329 329 330 329 335 336 342 341 343 342 342 343 343 344 348 349 347 346 347 346 345 343 345 343 344 343 344 343 343
333 334 332 331 332 332 331 329 329 329 327 327 330 328 328 331 330 330 332 331 334 341 341 341 343 343 343 343 347 348 348 347 347 346 345 343 342 342 343 343 343 342 339
335 334 331 330 333 333 331 329 327 327 326 325 326 326 326 326 330 330 329 330 330 332 339 340 342 343 344 343 345 348 349 347 346 345 343 343 343 342 342 342 342 339 337
338 333 332 330 333 331 330 329 328 327 324 324 325 325 325 326 327 328 327 329 327 329 331 339 340 343 344 345 346 347 348 348 346 344 344 342 343 342 342 342 339 337 335
337 334 332 331 332 330 329 328 326 326 325 324 327 327 325 326 328 326 328 329 326 328 331 331 332 336 343 346 347 347 348 349 347 345 343 340 341 342 341 339 337 335 333
335 333 331 331 330 327 326 326 325 323 321 322 319 319 321 324 324 324 324 325 328 327 327 331 332 333 334 344 344 345 348 348 347 345 342 339 341 340 338 337 337 335 333
332 333 331 331 327 326 325 324 323 320 320 320 316 318 315 317 321 324 323 324 324 325 327 331 331 331 331 333 335 343 346 348 347 344 341 339 339 339 336 336 336 335 333
332 331 329 328 327 326 323 322 322 320 315 318 319 316 313 311 313 318 322 325 322 325 326 327 332 334 334 333 335 338 343 345 346 344 340 338 338 337 335 336 335 333 331
331 330 329 328 326 324 323 322 324 320 318 315 318 322 321 320 312 309 317 320 324 323 324 325 326 331 332 330 339 338 336 340 343 342 340 339 336 335 337 335 333 332 330
329 329 328 327 325 325 323 323 322 321 320 317 316 316 318 320 320 316 309 314 320 326 325 325 325 328 334 332 333 336 334 337 337 336 337 337 337 336 335 332 326 330 330
326 326 327 325 325 324 324 324 322 322 323 321 319 318 316 315 317 315 311 312 314 318 321 324 324 326 331 335 337 335 333 332 330 331 333 333 334 333 329 329 329 330 330
323 323 324 323 324 326 327 326 323 321 321 321 320 319 320 319 318 319 314 312 314 317 323 326 327 330 335 335 335 335 332 328 327 327 327 326 327 328 331 329 328 331 331
323 323 323 324 326 327 327 326 325 323 323 322 321 320 320 320 322 321 318 315 313 319 321 321 325 331 335 334 333 331 327 325 323 321 321 323 325 326 326 330 331 331 331
324 323 324 325 326 327 327 324 323 322 324 322 322 322 321 322 323 323 321 320 320 315 315 320 320 326 332 332 331 328 324 323 322 320 320 321 323 324 325 326 326 326 327
325 324 323 325 325 328 327 325 323 325 324 323 325 324 323 323 323 325 324 323 324 318 314 320 321 323 327 329 329 325 324 324 321 320 321 321 321 321 321 322 322 322 323
322 322 324 326 327 326 326 325 324 325 324 324 324 324 325 324 323 324 324 324 321 319 316 318 321 322 323 324 323 323 322 323 322 321 321 318 317 317 317 317 319 320 320
322 322 324 326 329 328 325 325 324 324 324 324 324 325 325 327 323 325 324 321 321 321 318 315 318 319 320 323 323 322 322 322 322 319 316 314 314 315 315 314 314 315 314
321 324 326 328 329 327 326 325 325 325 325 323 324 324 324 325 324 323 322 321 321 320 319 317 316 320 321 322 322 323 321 320 321 320 316 314 313 314 314 313 312 311 309
320 325 326 329 328 328 328 326 328 326 325 325 325 326 327 326 324 322 322 321 320 319 318 317 317 318 319 321 321 319 317 319 318 320 318 316 314 312 311 310 311 309 306
324 326 326 328 324 323 325 326 327 326 324 324 325 325 326 325 322 322 322 321 321 319 318 317 317 318 318 317 317 319 316 318 319 319 314 312 309 307 307 309 311 309 304
326 325 326 324 320 321 307 311 322 326 326 325 325 324 323 320 315 313 314 315 319 320 318 317 318 317 317 318 320 318 317 316 312 318 314 308 306 302 302 301 304 303 302
325 325 325 321 317 314 303 305 310 327 325 324 322 325 324 321 320 320 312 312 312 311 316 321 318 318 317 318 318 316 315 312 311 314 310 303 303 300 301 303 302 301 300
324 324 323 320 316 312 303 302 310 327 327 326 325 325 324 322 322 323 322 321 321 322 321 322 321 320 320 318 318 315 313 311 313 312 307 301 300 298 299 299 301 300 299
323 322 323 319 316 312 304 301 319 326 326 325 326 327 325 322 307 308 322 320 320 319 310 307 307 307 305 307 313 317 314 310 310 308 308 302 300 298 297 296 297 300 299
325 325 325 320 314 315 303 301 315 326 323 321 321 321 311 317 304 307 321 320 318 319 320 321 320 312 311 308 310 318 317 313 312 306 311 304 300 299 295 297 295 296 295

GFSMA_sfc_thetae_018.txt.gz
Theta_e
332 331 330 329 329 328 328 326 327 328 328 328 330 330 330 332 332 331 327 337 342 345 345 342 344 343 343 345 349 348 348 347 348 346 345 345 345 344 343 343 343 344 345
333 331 329 328 329 328 328 328 327 327 327 327 327 326 328 328 327 330 331 333 344 343 343 343 343 343 343 343 346 348 348 346 346 345 344 344 345 343 339 341 343 345 344
332 331 330 331 329 329 328 327 327 326 326 327 327 328 326 327 328 327 330 333 335 342 342 343 343 342 343 343 343 346 348 347 345 346 343 344 343 341 340 342 343 344 341
333 331 331 328 330 330 328 327 325 324 324 324 323 324 326 326 327 327 326 332 329 331 338 341 341 341 343 343 343 346 348 347 346 346 345 343 343 340 342 342 343 341 339
335 333 331 329 330 329 328 327 326 324 322 322 323 323 324 324 324 327 326 328 327 328 328 336 340 340 343 343 343 344 347 347 346 345 345 342 342 340 341 343 342 339 337
336 332 330 329 329 328 327 326 325 324 323 321 324 324 322 325 324 324 324 326 326 329 327 328 332 333 341 344 343 344 345 347 346 346 344 342 341 341 341 342 339 338 335
335 330 330 329 329 327 325 325 323 322 320 320 317 317 318 323 325 323 325 324 325 325 327 329 328 328 331 342 343 344 345 346 347 346 343 339 340 341 342 340 337 337 336
333 331 329 328 327 324 324 321 322 318 318 319 315 314 312 317 321 324 322 323 322 324 324 327 329 330 330 332 336 343 343 344 346 345 341 338 340 341 340 337 337 336 334
332 331 328 327 325 324 321 320 320 318 315 316 317 314 309 308 313 318 322 322 322 321 322 324 329 330 332 329 335 338 342 343 345 345 341 340 340 338 336 335 335 335 333
330 330 328 326 324 322 320 321 322 319 316 313 315 318 316 315 312 310 315 320 321 321 321 323 325 329 331 329 333 335 337 338 344 343 342 341 339 337 335 335 335 333 331
327 328 327 325 323 322 321 321 321 319 317 315 313 314 315 318 319 315 307 313 318 319 320 323 323 326 330 328 330 331 334 335 338 339 339 340 338 336 334 330 328 328 329
326 325 326 323 322 322 321 323 322 320 318 317 316 315 315 313 316 316 310 309 312 316 320 322 321 324 327 329 333 334 331 331 333 333 334 335 334 333 333 331 330 329 331
320 321 321 322 322 322 324 323 321 320 319 318 318 317 317 316 316 317 313 310 312 319 321 325 326 324 331 331 332 335 333 329 328 328 329 330 331 331 329 330 330 331 331
321 320 321 321 323 325 326 325 322 321 320 321 318 317 317 317 318 316 315 313 311 317 320 320 325 329 332 334 335 333 330 327 325 324 325 326 325 326 328 328 328 331 331
322 322 322 323 325 325 326 324 322 321 321 321 321 319 318 318 319 319 319 317 315 313 314 319 321 327 332 332 333 331 329 325 323 321 321 322 322 323 324 325 326 326 327
321 322 321 323 323 324 325 324 322 321 320 321 323 322 321 320 319 320 320 319 318 316 314 320 321 324 330 329 329 326 324 323 322 321 321 320 320 320 321 322 322 323 324
321 322 322 322 323 324 324 323 322 321 323 322 322 323 323 322 320 321 320 319 318 319 315 318 321 325 325 323 323 321 321 320 321 320 320 318 317 317 318 318 318 319 320
319 320 321 323 326 326 324 322 322 323 322 322 323 322 324 324 320 320 320 321 320 319 317 315 318 319 319 321 320 318 318 319 321 320 318 317 315 314 314 315 314 314 314
320 320 322 325 325 325 323 323 325 323 321 322 323 323 324 323 322 321 322 320 319 320 319 317 317 320 318 318 318 319 319 320 320 320 316 315 313 313 312 313 312 311 309
318 320 325 326 326 326 326 327 326 325 322 323 324 324 325 324 322 322 321 320 319 318 318 318 318 318 317 318 318 316 315 317 315 318 316 314 314 312 311 311 312 310 306
322 326 326 322 321 322 321 325 325 324 323 322 322 325 325 323 321 320 320 319 319 318 318 317 317 317 316 315 314 316 314 314 315 315 314 312 312 310 309 311 313 310 305
323 325 324 320 318 318 304 309 320 324 324 324 322 322 321 318 315 313 314 313 318 318 317 317 317 316 316 317 316 315 314 312 310 317 311 307 307 303 303 304 306 303 302
324 324 319 318 315 313 302 304 311 325 323 323 324 323 321 319 318 317 311 311 311 310 315 320 317 317 317 317 317 315 315 313 313 312 308 303 303 298 299 302 302 301 300
321 320 317 315 314 313 301 303 310 326 321 323 324 322 321 321 320 321 321 320 320 320 320 321 321 320 320 320 320 318 312 311 312 311 305 298 298 296 297 298 301 300 299
318 319 317 315 314 315 300 303 318 325 324 325 324 323 323 321 305 306 320 319 318 315 308 307 305 304 303 305 312 315 312 311 309 307 305 298 297 296 295 295 297 300 298
321 321 319 316 312 316 300 301 316 323 323 323 323 318 309 314 302 306 321 320 317 317 317 313 312 307 308 307 308 313 314 310 307 302 305 299 297 295 293 295 294 296 294

GFSMA_sfc_thetae_021.txt.gz
Theta_e
332 328 327 328 329 330 330 327 325 325 325 326 328 329 329 329 332 330 330 338 340 342 341 342 344 343 342 344 348 349 348 347 346 346 345 345 344 344 344 344 344 343 343
330 328 327 328 327 327 327 327 325 325 325 326 326 327 327 326 329 330 330 329 338 341 344 347 344 341 341 342 345 347 349 346 347 344 344 344 344 344 344 343 344 343 343
330 329 329 329 327 328 327 325 325 325 324 324 325 326 325 326 326 327 327 330 331 342 341 342 343 343 341 342 342 345 347 347 346 345 344 344 343 343 342 341 342 342 342
333 331 331 330 330 327 326 325 324 324 327 322 322 322 324 325 325 326 327 327 329 333 339 342 343 343 342 340 343 343 346 347 346 344 343 343 343 341 340 341 342 342 340
333 332 329 329 328 327 326 325 323 322 320 320 322 322 322 322 323 325 325 325 327 331 328 337 340 339 341 342 342 343 345 347 346 345 343 343 343 340 339 341 342 341 338
334 331 330 328 327 326 326 324 324 322 322 320 322 323 321 322 322 322 323 325 326 328 327 327 328 332 339 341 343 342 343 345 345 346 342 343 341 341 340 340 341 339 337
334 333 329 327 327 326 326 324 322 321 321 323 320 315 316 319 320 323 323 323 324 325 325 326 326 328 330 339 342 343 342 344 346 345 343 338 341 341 341 341 340 338 334
334 331 328 327 326 325 323 322 320 317 318 319 314 311 309 313 318 322 323 322 322 324 324 326 327 327 327 327 334 343 343 343 344 344 342 340 341 341 341 341 339 336 336
332 330 328 327 325 324 322 320 319 318 316 314 315 312 306 305 313 319 322 323 322 319 321 322 325 327 328 327 333 338 343 341 343 344 343 340 340 341 341 339 334 334 333
330 329 328 326 324 322 320 319 320 318 316 313 313 316 313 313 310 309 317 321 322 319 319 322 323 326 328 327 332 335 337 338 342 343 342 341 341 340 335 331 330 327 331
328 328 328 326 322 320 320 320 319 317 317 315 313 312 312 313 315 313 310 313 319 318 318 320 321 323 326 326 326 330 333 334 336 337 341 341 339 337 332 330 331 332 328
325 328 325 323 321 320 320 320 320 319 318 316 314 313 313 311 313 315 312 309 312 315 321 320 319 321 323 325 330 333 331 330 331 333 335 337 337 335 332 331 330 331 331
320 320 321 320 319 321 321 321 320 319 317 317 316 314 315 314 317 318 313 309 310 318 319 323 325 323 324 326 329 333 333 328 328 329 331 332 332 331 330 331 331 331 331
320 320 320 320 321 322 323 322 321 320 318 318 317 315 315 316 317 318 316 312 313 317 317 315 322 327 326 330 330 333 330 327 326 325 326 325 325 326 328 328 330 330 329
320 320 320 320 321 322 323 322 321 320 320 319 319 316 315 316 318 318 316 315 313 311 309 319 321 327 330 330 334 331 330 326 326 324 324 322 323 324 324 324 326 326 327
319 320 319 319 321 323 324 321 320 319 319 319 320 320 317 317 317 317 317 316 315 313 312 320 321 325 329 329 332 329 328 326 323 322 322 322 320 320 320 322 323 324 324
319 320 321 320 321 321 323 320 321 320 321 319 320 321 320 320 318 318 318 316 315 314 314 318 321 326 324 322 321 323 325 323 322 321 321 319 317 317 318 319 319 320 321
319 320 320 320 323 323 322 321 322 323 321 321 320 321 321 322 317 317 316 317 316 316 316 316 319 320 318 318 319 319 321 321 321 320 318 316 315 315 315 315 315 315 315
317 318 319 323 324 323 322 324 324 322 320 320 320 321 322 320 319 321 321 319 318 319 320 318 316 318 317 317 317 318 317 317 319 321 317 315 314 314 314 313 312 311 309
318 318 325 325 324 324 325 327 326 324 320 321 322 323 323 323 321 321 320 319 319 319 319 316 315 315 316 316 315 313 312 316 316 319 318 315 314 313 313 312 312 311 307
318 325 324 321 320 321 319 323 323 321 320 320 323 323 322 323 321 319 319 319 319 318 318 314 314 314 314 314 313 314 313 314 315 316 314 314 313 311 311 312 314 310 306
322 325 322 319 317 318 304 306 319 323 324 323 321 322 321 318 315 313 314 314 318 318 317 316 314 313 314 315 315 314 313 312 309 315 312 307 310 305 305 306 307 304 303
323 323 317 316 314 314 301 306 310 323 322 323 323 321 321 319 317 316 310 310 310 310 315 318 315 315 314 315 315 314 313 312 311 311 310 303 303 300 301 303 303 302 301
323 319 315 314 314 313 300 306 311 321 323 323 322 321 320 319 318 319 319 319 319 319 320 321 320 318 317 318 317 316 313 311 311 306 305 301 300 297 296 297 301 301 299
317 315 314 313 315 316 299 306 317 323 323 322 322 323 322 320 304 306 319 317 317 315 309 306 306 305 303 305 312 315 311 310 307 303 302 297 296 294 293 294 296 300 299
317 318 315 315 311 316 300 303 315 324 322 321 320 318 308 314 301 304 319 318 315 315 316 316 313 308 309 306 307 314 313 308 306 303 304 297 295 294 292 293 294 295 295

GFSMA_sfc_thetae_024.txt.gz
Theta_e
334 334 333 330 331 334 336 334 332 331 330 329 330 331 331 332 333 333 334 337 340 340 342 341 343 343 343 344 347 349 349 348 347 346 344 345 345 345 345 346 344 345 342
333 331 330 329 329 330 333 333 330 329 328 329 329 330 331 331 331 334 334 334 337 339 342 342 343 344 342 341 343 346 347 346 347 345 345 345 343 344 344 345 344 343 342
331 331 329 328 329 330 330 329 329 329 328 328 328 330 330 330 330 330 331 333 333 337 340 343 343 342 341 341 341 342 346 347 345 345 343 343 343 344 344 345 344 342 342
332 330 328 328 329 330 329 329 328 327 328 328 327 328 329 329 329 330 330 330 332 335 337 342 342 341 341 341 341 342 346 346 346 343 343 343 342 343 344 344 343 342 341
333 331 330 331 332 331 329 328 327 328 327 326 326 327 327 328 328 328 329 330 331 336 335 339 341 341 342 341 340 342 344 346 346 344 343 344 343 341 341 342 343 342 340
334 332 331 331 331 329 328 328 328 327 327 325 325 325 325 326 327 327 328 328 330 332 334 332 337 337 340 340 340 342 341 343 345 345 344 342 342 341 341 340 342 341 337
334 332 331 330 329 329 329 329 327 326 325 326 322 321 321 324 325 326 328 328 328 330 331 329 332 333 334 339 339 344 341 342 344 345 343 341 341 342 342 341 341 339 336
334 333 331 330 329 328 328 327 325 322 323 324 320 316 315 319 321 325 327 327 327 329 330 331 331 332 333 334 336 342 342 342 343 346 342 341 341 342 342 341 340 335 331
334 333 331 330 328 329 327 325 324 323 321 319 320 318 312 311 314 322 324 326 326 326 329 329 330 332 333 334 333 337 342 342 341 344 343 340 341 341 341 340 337 332 333
333 332 330 329 328 327 325 324 324 322 321 318 318 319 318 317 314 313 319 321 325 324 325 327 330 331 332 334 334 335 338 340 341 342 343 342 342 341 340 336 332 330 327
331 330 329 329 328 326 325 323 323 321 321 320 318 316 317 318 319 317 313 316 320 322 325 326 328 330 332 333 334 335 333 335 337 339 341 342 341 339 334 332 329 328 329
327 328 329 328 326 324 323 323 324 322 321 320 319 318 318 317 316 318 315 313 315 320 324 326 326 328 330 333 333 331 330 330 330 332 334 336 334 333 331 329 330 329 328
324 326 325 324 324 323 324 324 323 323 322 320 320 319 319 319 321 321 317 314 314 320 322 326 327 329 329 332 334 334 332 328 327 328 330 331 330 330 330 332 329 327 331
323 324 325 323 323 324 324 324 324 323 323 321 321 320 320 321 322 320 317 316 315 318 320 321 326 330 330 333 333 332 333 326 326 326 326 327 327 328 329 327 329 330 331
323 323 323 322 323 324 325 325 324 324 324 322 322 321 320 320 322 321 322 322 320 313 314 320 323 331 332 334 335 333 331 326 326 324 324 324 324 324 325 325 326 327 327
322 322 322 323 324 325 326 326 325 324 323 322 323 322 320 321 321 323 322 321 321 319 314 322 323 327 332 333 334 332 331 326 323 322 323 322 320 321 322 322 322 323 324
321 322 323 323 324 325 325 324 324 324 323 323 323 324 323 323 322 322 322 321 321 321 317 321 325 326 323 323 326 327 328 325 323 321 322 320 318 318 319 319 319 321 322
321 323 323 323 324 324 325 324 324 325 323 323 324 324 324 324 323 323 322 321 321 322 320 319 320 318 319 321 321 321 322 324 322 321 319 317 316 315 315 315 316 316 315
321 322 322 323 326 325 325 325 324 325 323 324 324 324 324 323 322 322 322 321 322 323 324 319 315 317 318 319 318 319 318 318 320 320 317 316 315 314 313 313 312 311 310
320 322 326 326 326 326 326 327 327 325 323 324 325 325 325 323 322 322 322 321 322 321 319 316 314 314 315 317 317 315 315 317 316 319 317 316 316 314 312 312 312 311 307
321 326 325 323 323 323 319 322 325 324 323 323 325 325 325 323 321 321 322 321 322 319 317 315 313 312 312 312 312 314 313 315 315 316 315 315 315 314 313 313 315 312 307
324 326 324 321 320 319 303 308 319 325 324 323 322 322 322 318 316 312 314 315 319 319 316 314 313 312 312 313 314 313 312 311 309 317 311 308 312 308 312 315 308 305 304
325 323 320 320 318 318 300 306 311 324 324 323 322 321 319 318 318 317 310 311 310 311 314 317 314 314 314 315 314 313 313 313 310 312 312 304 307 306 306 307 303 302 302
324 322 318 317 318 314 301 307 309 325 323 322 322 320 319 318 318 320 320 319 320 319 319 320 318 318 318 318 317 316 314 313 310 309 313 304 303 303 303 306 302 301 300
322 319 317 317 319 318 302 305 317 323 323 322 322 321 321 319 303 306 319 317 316 314 308 305 305 303 302 304 311 315 313 311 309 308 307 307 303 302 302 303 304 301 299
320 319 317 319 312 318 301 303 317 324 320 320 320 318 308 313 300 305 319 317 315 315 316 316 313 309 310 308 308 317 317 312 310 309 310 308 303 302 302 302 302 304 303

GFSMA_sfc_thetae_027.txt.gz
Theta_e
343 342 342 340 341 340 341 344 344 344 342 341 340 338 338 338 340 339 339 338 339 341 341 342 342 342 344 345 346 347 348 349 348 346 345 346 346 347 347 346 346 346 345
342 339 340 338 338 338 338 342 343 343 341 340 338 339 339 339 339 340 339 340 338 339 340 342 341 343 343 344 344 346 348 348 348 345 345 343 344 344 345 345 344 343 343
344 343 338 338 339 339 341 342 341 341 340 339 339 339 339 340 339 339 339 338 338 337 340 341 343 344 344 343 342 342 345 348 347 346 342 343 342 339 341 344 344 342 342
343 341 337 337 340 340 338 338 339 337 338 338 338 339 339 339 339 339 339 338 337 337 338 341 342 343 343 342 341 342 343 346 347 345 342 342 341 341 341 343 343 342 342
341 338 337 338 341 335 336 339 338 338 341 340 337 338 339 338 338 337 337 338 338 338 338 341 341 341 341 341 341 341 343 343 345 345 343 343 342 339 340 344 344 343 341
340 341 339 340 338 336 336 339 339 340 341 339 336 332 334 336 336 337 337 338 337 338 339 341 339 337 340 341 341 340 342 342 344 345 344 342 341 340 341 342 342 342 339
341 341 338 339 338 337 338 340 339 339 336 335 329 329 331 334 335 335 336 336 335 337 338 339 342 338 336 340 340 341 342 342 343 344 343 341 342 341 342 342 341 340 336
343 341 340 338 339 336 341 338 336 333 333 330 328 324 322 326 330 332 334 334 336 336 336 337 333 336 338 339 340 340 342 342 343 345 343 341 341 342 342 341 340 337 332
342 342 340 337 337 340 337 336 341 337 331 327 328 326 320 318 325 331 330 333 335 337 337 338 332 334 340 339 338 338 342 342 341 345 343 341 342 342 341 339 331 328 326
341 341 339 338 340 339 335 340 339 337 334 328 324 328 327 326 321 320 326 330 335 332 336 337 338 337 339 340 339 339 338 340 343 344 343 343 342 341 340 333 330 332 331
343 340 340 341 342 337 337 340 337 334 332 330 327 326 325 326 327 324 321 323 327 330 327 334 334 337 339 339 340 339 334 336 338 339 341 340 342 341 337 333 333 330 328
340 341 341 342 342 340 339 336 336 335 333 331 329 328 325 323 323 325 323 320 321 322 326 330 335 335 337 339 339 332 332 332 331 333 335 337 339 338 334 333 332 330 331
338 339 341 340 338 338 336 335 335 334 333 331 331 328 328 326 327 330 325 319 318 321 325 332 337 336 337 340 340 334 333 328 327 327 328 331 332 332 332 330 331 330 330
337 339 339 338 336 335 335 335 333 333 334 332 332 331 330 328 328 330 323 318 317 319 324 329 333 335 337 338 339 333 339 326 325 325 326 327 327 328 328 330 329 329 331
336 337 336 335 334 334 335 335 333 334 334 333 332 332 331 330 329 325 325 321 323 317 319 327 329 335 336 338 337 341 341 325 326 324 323 323 324 325 326 324 325 327 328
336 335 334 334 333 334 334 336 337 336 334 332 332 332 332 330 330 327 328 328 330 328 319 327 328 334 338 338 336 337 337 327 325 323 323 322 321 321 321 322 323 324 325
334 333 332 332 332 333 335 336 336 334 330 333 333 332 331 332 329 329 330 329 327 331 323 325 330 330 330 333 332 333 330 329 325 323 323 321 319 319 319 319 320 321 322
332 332 331 331 331 331 333 333 331 331 328 331 331 331 330 331 332 332 330 331 329 330 326 321 322 320 323 326 325 325 324 326 325 322 321 318 316 315 314 315 316 316 317
331 332 331 330 331 332 332 333 326 327 329 332 332 331 331 333 331 330 329 328 329 329 330 322 317 320 321 321 320 321 321 321 322 321 317 315 314 314 314 313 313 312 311
331 330 331 332 333 333 333 331 330 329 327 332 333 333 332 333 331 327 327 327 329 328 325 320 317 316 317 319 318 316 316 319 318 320 318 316 314 313 312 313 313 313 309
330 333 333 332 332 332 325 328 331 329 326 330 331 333 334 330 323 325 327 327 327 323 321 317 315 315 314 314 314 316 315 316 318 320 318 319 319 318 315 315 317 312 308
332 332 331 330 330 327 303 307 320 329 328 327 326 328 328 322 318 313 315 316 323 323 319 316 314 313 313 314 316 315 313 312 309 318 315 310 317 314 318 320 309 306 305
331 328 331 328 328 329 301 304 310 328 326 326 325 325 324 324 322 323 310 310 311 311 316 320 315 316 313 315 316 314 316 317 313 315 314 306 311 310 319 315 305 304 303
328 328 329 327 329 322 303 304 310 328 326 324 324 325 324 323 325 325 323 322 322 321 322 323 323 320 319 318 317 318 319 313 314 317 319 307 308 315 317 317 303 303 301
327 328 329 327 329 324 303 303 316 325 324 322 322 321 321 320 304 306 322 318 317 315 307 305 305 304 302 304 312 315 313 314 311 311 318 313 314 314 316 317 314 302 301
328 328 327 328 316 325 301 303 318 325 323 322 322 320 307 313 300 304 322 319 313 313 314 314 314 309 311 309 309 321 319 316 313 311 318 318 315 316 314 315 315 312 309

GFSMA_sfc_thetae_030.txt.gz
Theta_e
347 344 344 340 342 341 341 345 344 345 346 345 343 341 340 340 341 340 340 343 341 341 342 343 343 342 343 344 346 345 345 348 349 347 343 338 342 346 346 347 347 348 346
348 341 343 340 340 341 340 343 343 344 343 343 342 343 342 341 342 342 340 341 342 341 340 341 342 343 343 344 344 345 345 347 347 347 344 343 344 345 345 346 344 345 344
349 347 340 340 338 342 346 343 344 344 342 342 342 342 344 343 342 342 342 340 340 341 340 341 342 342 343 344 343 343 344 347 347 347 343 341 341 342 341 341 342 343 343
350 348 339 339 339 341 340 338 342 339 340 340 347 345 344 341 341 342 342 341 340 339 340 342 341 343 343 343 344 343 343 346 347 346 344 343 342 339 339 338 341 342 342
347 345 341 339 348 338 337 338 337 339 338 341 340 346 343 339 339 339 341 341 342 341 338 342 342 343 344 344 342 342 342 344 346 346 344 343 343 340 339 338 339 342 342
347 346 342 343 343 337 336 336 339 340 344 344 339 337 338 338 338 338 339 340 341 342 341 341 340 337 342 342 341 340 342 343 344 344 345 343 339 342 341 339 340 341 338
346 346 343 342 342 339 339 341 339 342 344 344 337 333 334 337 338 336 338 340 340 340 340 342 339 343 338 342 341 341 340 343 341 343 344 342 342 340 338 342 341 340 334
347 346 345 343 342 337 340 342 343 338 342 343 333 331 323 327 333 334 336 337 338 341 339 341 340 340 340 337 338 340 341 342 343 344 344 341 342 341 341 341 341 338 334
346 346 346 345 343 339 337 341 347 341 340 336 338 329 321 318 325 331 333 335 338 341 342 341 339 341 340 340 340 340 343 343 342 345 344 342 341 342 341 340 338 334 330
345 345 344 345 344 338 343 345 346 340 340 334 333 333 333 329 320 322 331 333 338 338 340 341 340 339 337 341 342 341 338 341 343 343 344 343 343 341 340 336 331 328 328
344 344 346 344 342 340 347 344 343 342 340 333 329 328 329 327 330 324 323 328 334 337 339 341 340 339 336 339 340 339 336 337 340 339 342 343 342 341 336 332 331 331 330
343 345 344 345 346 346 346 344 342 341 338 334 331 330 328 325 323 326 326 327 328 331 336 338 341 343 338 338 340 334 333 334 333 333 336 339 339 338 335 333 334 334 333
341 344 347 348 347 347 344 343 341 338 336 333 334 330 330 328 328 333 330 326 324 328 327 333 340 346 339 339 337 337 334 330 328 328 330 333 335 334 333 335 334 332 332
344 348 347 346 345 345 342 340 336 334 337 335 336 335 333 332 329 336 331 326 323 320 326 327 339 342 343 338 338 333 336 327 325 325 325 328 329 330 330 330 330 331 330
345 346 346 345 342 340 339 339 333 335 336 338 337 336 336 337 330 332 327 325 322 315 319 328 334 342 346 342 335 339 342 325 325 323 324 325 326 326 325 326 326 327 328
344 343 342 340 338 337 337 338 335 337 337 341 334 335 336 335 332 324 327 326 326 326 320 334 336 339 342 340 336 342 340 328 324 323 324 322 321 322 323 322 323 325 326
342 339 337 336 335 335 337 339 338 336 334 335 335 334 334 335 332 330 330 334 335 333 327 331 334 335 336 338 339 338 336 334 327 322 322 320 318 318 318 320 321 321 322
337 335 334 333 333 334 337 336 334 334 332 331 333 333 332 333 334 335 338 335 335 338 334 326 324 325 329 335 334 331 331 331 329 323 320 318 317 315 316 316 316 317 317
334 333 333 333 332 333 335 336 334 333 329 332 334 333 332 334 334 335 336 334 334 337 336 325 320 322 323 327 325 325 325 324 324 322 317 315 314 314 314 314 314 313 312
333 333 333 332 333 334 336 336 333 335 334 334 335 335 334 334 335 334 334 334 336 335 330 323 319 320 319 321 321 318 317 320 319 321 317 317 316 313 313 313 314 314 310
332 333 333 333 335 336 332 336 335 335 330 333 335 335 336 331 323 329 333 334 333 329 325 320 318 318 316 317 316 318 317 318 318 320 321 321 321 321 319 316 318 314 309
334 333 333 332 334 331 306 307 320 331 334 333 333 333 335 327 322 316 316 318 328 330 326 321 317 315 316 315 317 317 316 314 312 320 316 314 322 318 320 323 312 307 306
334 334 334 332 333 335 304 304 311 330 330 330 329 329 330 327 326 328 312 311 312 311 320 327 318 318 318 320 319 317 317 315 315 316 318 309 318 315 319 313 306 305 304
335 335 334 334 334 329 305 304 309 330 327 326 329 329 330 328 327 328 328 327 327 328 328 326 324 322 321 321 323 319 319 315 317 317 318 307 316 320 321 321 305 304 303
334 335 333 334 334 331 304 304 318 326 324 322 323 327 328 327 306 307 327 323 321 319 309 309 308 304 302 305 314 320 315 313 311 313 319 313 312 317 321 320 318 304 303
333 331 333 335 320 330 302 305 318 326 323 322 324 324 309 316 300 305 326 322 318 318 318 315 313 308 311 309 308 318 316 313 314 314 323 318 318 319 317 323 323 317 314

GFSMA_sfc_thetae_033.txt.gz
Theta_e
346 343 346 342 344 341 341 345 346 347 348 345 342 341 340 340 341 339 341 345 343 342 343 343 342 343 343 345 345 346 346 346 348 346 345 344 340 344 343 340 340 342 344
348 345 347 344 343 343 342 343 345 345 344 345 344 342 342 341 342 347 339 342 344 344 343 343 343 343 344 345 344 346 346 345 348 349 346 343 343 344 343 343 342 343 343
352 351 347 344 343 346 350 348 350 346 343 343 344 343 343 345 342 344 342 340 342 344 344 343 343 343 343 343 344 345 346 345 348 348 346 343 344 345 343 342 342 342 343
356 354 345 345 346 345 344 340 341 338 342 341 343 341 342 342 342 343 339 340 343 339 342 343 343 343 343 345 344 344 345 345 347 347 346 344 343 343 343 343 342 341 342
354 353 348 346 352 344 342 340 340 342 339 339 338 341 345 342 340 338 341 341 342 342 338 341 342 343 344 345 344 344 344 345 347 346 346 345 344 342 342 341 341 341 340
352 354 349 349 349 343 341 340 343 340 340 338 337 344 342 343 340 337 341 338 337 341 343 340 338 338 344 345 345 345 344 342 345 346 345 344 343 342 341 340 340 341 341
353 354 348 349 348 343 344 346 343 344 339 343 337 340 339 341 341 337 338 338 340 339 341 341 339 341 338 343 342 343 342 342 343 344 345 342 341 343 341 339 341 340 335
352 351 350 348 349 342 348 347 345 336 337 343 335 333 325 327 334 337 335 342 339 342 339 339 341 343 344 336 338 343 343 343 342 343 345 342 340 342 341 342 341 336 334
350 351 349 350 351 346 339 346 343 342 336 341 341 332 322 320 329 333 335 334 338 340 341 343 340 342 338 333 339 339 342 344 340 335 345 342 341 340 340 342 339 337 334
347 348 348 347 348 344 345 342 343 344 344 337 336 335 336 331 322 321 332 335 340 339 341 343 342 340 340 335 339 340 340 342 344 343 345 343 342 341 341 341 338 334 331
349 346 347 347 346 344 347 347 349 348 342 336 332 332 332 328 330 323 321 329 336 339 342 342 342 341 340 343 345 337 336 339 340 341 343 343 341 341 341 338 335 332 331
345 345 345 346 348 346 352 347 349 345 342 340 333 334 328 325 325 326 323 328 329 334 337 333 342 342 337 339 338 334 333 335 335 334 337 338 340 341 339 335 333 333 333
341 344 348 348 345 351 348 348 345 344 341 337 337 331 330 332 329 333 328 328 327 333 333 335 341 342 338 338 336 336 335 332 329 328 331 333 336 335 334 334 334 334 334
345 350 349 350 348 346 344 345 341 338 340 335 337 337 334 332 333 336 329 329 324 327 328 330 340 340 334 334 338 337 336 329 326 325 325 329 330 330 331 332 333 333 332
348 348 348 346 345 343 343 344 337 337 339 339 338 337 337 333 337 333 332 329 328 319 322 329 331 337 343 341 336 338 338 326 326 323 324 325 325 326 327 327 327 328 327
350 347 345 344 343 342 340 340 338 337 337 342 339 337 337 334 336 333 328 327 328 329 322 328 328 338 342 344 334 342 339 328 323 323 324 323 321 322 322 323 323 325 326
344 342 341 340 338 337 337 338 338 336 335 337 337 335 334 336 332 331 331 334 329 330 327 325 334 340 338 340 339 339 335 336 328 322 322 321 319 319 319 320 321 322 323
341 339 337 335 334 333 336 336 335 334 334 333 334 335 332 333 335 338 336 335 332 337 328 326 330 330 336 338 335 334 332 332 330 322 319 318 316 316 317 317 317 317 317
336 335 333 332 332 333 335 337 335 335 335 333 333 334 332 334 335 337 334 337 337 337 335 329 323 325 329 330 327 328 328 325 324 322 318 316 315 314 315 315 314 314 313
333 333 333 332 332 332 334 335 335 334 335 332 337 336 333 334 335 336 336 336 337 335 332 325 322 321 322 324 324 320 318 321 320 321 319 317 318 314 313 314 315 315 311
333 332 332 333 333 336 332 336 335 334 334 334 335 334 336 333 326 330 337 338 337 333 326 321 319 319 318 319 318 320 317 317 317 319 319 323 322 322 321 317 319 316 310
335 334 333 333 335 330 306 309 324 334 332 331 333 334 335 328 323 314 315 319 331 331 325 321 320 317 318 318 319 318 316 315 312 321 319 319 322 323 324 323 314 308 307
336 336 334 333 335 331 306 308 314 333 334 333 333 334 333 331 328 330 313 313 314 315 322 329 320 319 318 320 319 317 317 317 314 316 318 314 321 319 317 312 308 306 305
336 335 334 335 336 325 306 306 311 332 331 331 331 333 333 331 329 329 330 330 329 330 330 328 326 324 323 322 322 321 319 317 318 318 318 311 317 315 317 320 307 306 304
335 335 335 335 334 329 305 308 321 327 324 325 329 330 330 328 309 308 328 326 324 321 309 307 306 305 303 307 315 320 315 314 311 314 319 316 317 317 319 322 317 306 304
333 332 334 335 320 329 304 306 318 325 322 321 324 325 305 321 303 306 325 323 319 318 318 318 317 314 314 310 309 322 318 314 312 311 318 318 319 319 316 324 321 317 314

GFSMA_sfc_thetae_036.txt.gz
Theta_e
337 337 340 339 338 339 338 337 340 341 342 343 343 341 339 339 340 338 342 347 345 344 342 342 343 344 344 345 346 347 346 347 348 345 345 344 342 344 344 343 340 339 341
341 340 338 340 342 340 340 338 340 340 343 344 343 343 342 341 341 342 340 343 344 345 345 344 343 343 344 345 344 346 344 344 347 346 345 343 343 343 345 341 340 340 339
343 340 341 339 338 343 342 339 339 344 345 343 341 343 341 342 342 341 343 340 341 345 345 344 346 344 344 344 346 345 345 344 346 346 345 344 344 344 344 342 342 342 342
345 346 342 342 343 340 341 342 339 339 339 339 340 338 342 342 341 341 341 341 340 337 341 344 345 345 343 344 344 346 346 343 344 346 346 344 343 344 344 344 342 342 342
348 345 345 345 345 342 341 338 339 340 337 340 338 341 342 342 341 343 340 338 338 339 338 342 343 344 345 344 344 344 345 344 345 346 346 345 344 343 342 342 342 342 341
352 348 347 345 350 341 339 341 337 338 338 338 336 337 342 341 341 339 337 337 339 335 337 338 338 338 342 344 346 345 345 344 345 347 346 344 343 341 341 342 341 341 341
352 351 346 349 344 343 339 341 339 337 337 339 336 334 338 338 339 337 337 337 337 337 337 336 336 333 335 342 344 345 345 344 343 346 345 342 342 341 342 342 341 340 338
352 350 349 345 346 343 341 342 338 335 338 339 332 333 326 329 334 336 336 336 336 336 337 337 335 336 335 334 338 343 344 345 344 345 344 341 342 342 342 341 342 337 335
353 351 349 347 347 343 340 340 340 336 332 336 339 332 323 319 324 332 334 332 332 335 334 335 335 335 336 329 336 340 342 343 343 344 344 341 342 342 341 341 339 337 333
351 350 349 347 349 343 342 341 340 338 336 335 336 337 333 330 320 319 327 329 331 333 334 334 333 336 331 326 327 329 337 341 342 339 344 343 342 342 342 341 338 337 333
350 347 348 346 348 342 342 339 340 338 338 338 334 332 331 329 328 321 317 322 329 330 334 333 333 333 330 329 326 330 334 338 339 338 341 343 343 342 342 340 338 334 333
345 344 346 344 345 342 343 342 340 341 341 338 334 332 329 325 323 323 321 321 322 327 330 331 332 332 334 333 330 331 333 335 334 335 337 339 341 341 342 341 337 335 334
342 341 342 344 341 344 346 346 343 340 339 335 334 332 332 329 328 327 324 321 319 324 326 330 330 331 334 331 331 333 334 332 329 329 331 333 336 338 338 337 336 335 334
341 343 344 343 344 345 346 344 341 339 338 336 335 333 332 331 332 329 325 322 318 320 324 323 330 330 328 330 332 333 332 329 326 326 326 328 330 332 332 332 332 332 332
342 342 346 345 346 344 343 341 339 338 338 336 335 335 332 333 333 331 329 327 321 315 316 322 325 329 328 329 331 333 332 327 326 323 324 325 326 327 327 328 328 329 329
346 345 345 344 343 342 340 341 339 338 337 336 335 333 333 332 333 331 329 326 326 321 316 323 324 328 331 329 332 333 330 326 323 323 324 323 322 323 323 324 324 325 326
345 344 343 341 340 340 340 338 338 335 334 334 334 331 333 333 331 331 328 328 325 324 320 323 327 328 329 330 331 329 332 327 325 323 323 321 319 319 320 321 321 322 323
343 341 341 338 337 337 338 337 335 334 332 333 332 331 332 334 331 330 330 326 326 326 323 321 325 327 327 330 332 331 329 329 325 322 320 318 317 317 317 318 318 318 317
342 338 337 335 333 334 334 337 335 334 333 332 332 330 331 331 329 329 330 327 327 329 326 324 322 325 327 328 326 326 324 323 323 322 318 317 316 315 316 316 316 315 313
337 335 336 333 334 333 335 335 334 333 333 331 333 331 331 331 330 330 329 329 329 327 326 322 322 321 322 323 323 320 318 321 319 322 320 318 316 315 314 315 315 315 312
335 334 335 332 335 329 330 334 336 334 332 329 331 332 331 330 326 329 333 331 329 327 323 320 319 318 319 319 318 319 316 317 318 320 319 320 320 319 316 316 318 316 311
335 331 332 332 333 327 306 309 324 333 332 331 328 330 327 320 317 316 318 322 327 325 321 319 318 316 318 319 319 317 316 315 312 321 319 319 322 320 321 321 314 310 308
334 332 331 332 331 324 305 307 314 333 333 331 331 330 331 329 327 326 312 314 315 314 319 323 318 318 317 319 319 317 317 316 314 317 318 315 319 318 319 315 309 307 306
335 334 333 333 329 319 305 308 315 331 332 332 332 331 331 330 328 328 329 328 327 325 325 326 323 321 321 321 321 320 318 316 317 318 318 312 316 315 313 314 308 306 305
333 334 334 334 328 323 305 309 320 327 328 328 325 324 329 327 308 308 326 322 319 316 308 307 308 306 304 306 315 319 315 314 312 313 316 314 314 314 315 315 310 306 304
334 334 332 333 318 324 304 307 317 322 320 320 325 322 306 315 305 309 325 321 317 317 318 317 314 309 311 310 309 320 318 314 312 311 316 313 314 315 312 318 314 307 306

GFSMA_sfc_thetae_039.txt.gz
Theta_e
331 330 329 330 331 335 336 332 333 336 336 337 338 337 338 337 336 335 341 350 348 348 347 344 344 344 345 345 346 347 347 348 347 347 346 344 344 343 342 344 343 339 336
334 331 330 331 331 334 335 332 333 335 336 337 337 338 339 335 334 333 337 342 345 345 346 346 344 344 344 344 345 347 347 346 347 346 345 345 344 343 343 344 343 341 341
335 333 331 331 332 333 334 333 332 335 335 339 337 339 338 335 335 335 337 337 340 344 345 345 345 344 344 344 344 345 345 345 345 345 345 344 343 343 343 343 342 341 339
336 335 334 332 334 334 334 333 332 333 336 335 337 335 335 334 335 335 335 336 335 337 343 345 344 344 344 344 344 344 346 344 344 344 344 343 344 344 343 344 343 341 338
340 338 335 336 334 334 334 334 332 331 330 330 335 333 335 334 334 338 335 335 335 335 334 340 343 343 344 343 344 344 346 345 343 344 345 345 345 344 343 343 343 342 342
343 338 339 336 336 335 332 333 330 332 330 333 333 331 336 335 335 334 333 335 332 334 334 336 336 336 341 342 343 346 344 346 344 345 345 345 344 343 343 343 342 342 342
345 341 338 339 340 335 335 332 330 328 330 332 329 327 333 333 332 333 333 332 331 333 332 332 333 333 334 341 341 343 344 344 343 344 344 342 343 343 342 342 342 342 341
347 343 341 340 338 336 333 331 331 327 330 330 324 324 320 323 329 332 331 330 330 331 332 333 332 331 332 334 334 341 344 344 343 345 343 341 342 342 342 342 342 342 340
347 345 343 340 338 336 334 332 331 328 326 328 329 324 318 316 319 324 325 327 326 328 329 330 331 333 332 330 332 337 341 343 344 343 344 342 342 342 341 341 341 340 337
345 344 344 341 339 337 333 333 334 329 327 324 330 332 327 323 319 317 321 324 325 327 327 328 328 331 330 328 329 336 337 338 341 343 343 343 343 341 341 341 339 337 336
343 343 342 340 338 338 336 335 333 330 329 329 327 325 325 326 324 315 311 316 324 324 327 326 328 330 330 326 325 327 332 335 335 337 339 341 342 341 341 339 338 336 334
338 340 342 342 340 339 338 336 336 332 331 331 329 329 326 320 317 316 313 315 315 319 324 328 326 328 330 328 329 330 330 332 331 331 334 339 341 340 341 340 338 337 337
334 335 338 339 339 339 339 336 333 333 331 329 329 328 324 324 320 319 317 313 313 318 321 323 325 329 331 326 327 330 330 329 328 328 330 332 336 337 338 338 338 336 335
336 337 337 340 340 340 340 336 334 333 332 328 329 323 324 322 323 321 318 316 311 313 319 317 325 326 330 329 328 332 330 328 326 325 326 327 330 332 334 334 334 333 333
338 337 340 340 340 339 337 335 334 330 331 328 326 325 324 326 325 323 321 320 315 309 310 317 320 326 327 326 328 329 328 327 326 323 323 325 326 327 328 328 329 329 329
337 337 339 338 338 337 337 334 330 329 328 326 327 325 325 327 325 324 322 320 319 315 311 317 321 322 327 328 331 328 328 325 323 322 325 323 323 323 324 324 325 325 326
337 338 338 337 337 335 333 329 328 327 327 326 326 327 326 328 324 323 321 320 318 318 313 317 321 325 326 324 326 327 325 325 324 322 324 322 319 319 321 321 322 323 323
339 339 338 337 335 334 332 327 326 328 327 325 327 327 326 331 324 323 320 319 317 319 318 317 321 323 325 326 326 326 325 326 324 322 321 319 317 317 317 318 318 318 317
337 337 334 332 331 330 328 328 328 327 326 327 327 328 326 325 322 321 320 319 320 323 322 323 321 325 325 326 322 322 322 321 323 322 318 316 316 316 316 316 316 315 313
331 328 328 328 328 330 332 332 329 327 326 327 328 328 328 326 324 322 323 322 324 321 321 320 321 321 321 322 321 319 318 320 320 322 320 318 317 316 315 315 316 315 311
325 326 329 329 328 327 327 329 328 327 325 325 325 329 327 327 324 324 325 323 323 323 321 318 318 319 318 318 318 318 316 317 319 320 319 320 320 319 316 316 319 316 311
326 327 329 327 324 321 305 310 322 326 326 324 323 325 323 321 317 317 320 321 323 321 318 319 317 317 318 318 318 317 316 316 312 321 319 318 321 318 318 317 313 310 308
328 329 329 325 319 315 304 307 316 326 323 323 325 325 326 325 321 320 312 314 314 313 318 319 318 317 318 319 318 317 318 316 314 317 319 316 318 318 319 315 309 307 306
328 328 325 322 317 314 305 307 318 326 324 323 325 327 325 322 321 324 323 321 319 319 319 321 319 320 321 321 321 320 317 316 317 317 318 313 316 310 314 313 308 307 305
323 324 324 321 317 316 304 310 317 323 323 322 321 323 323 319 306 309 320 316 317 315 309 310 310 307 306 307 315 318 315 314 312 312 315 314 313 310 310 312 311 306 305
324 326 325 321 314 316 302 306 316 321 320 321 320 316 308 314 303 307 321 319 317 317 316 315 313 307 310 310 309 320 318 314 313 311 313 312 311 311 309 311 313 307 306

GFSMA_sfc_thetae_042.txt.gz
Theta_e
331 330 331 328 330 331 335 333 332 336 337 337 336 336 335 336 336 335 334 349 348 348 349 346 345 346 346 346 348 348 348 347 347 346 345 345 343 343 344 344 343 342 341
331 330 328 328 328 331 334 333 330 332 334 334 334 335 335 335 334 332 336 343 347 347 347 347 345 344 344 344 346 347 346 347 346 346 345 345 342 343 342 343 343 339 339
332 329 328 327 328 330 331 332 328 330 331 333 333 334 334 335 334 332 334 337 341 346 346 345 347 346 344 344 344 345 346 345 346 346 345 345 343 343 343 342 343 341 339
333 331 329 327 329 330 331 331 329 328 330 331 332 333 335 334 334 333 335 335 335 336 343 344 346 345 346 344 344 344 346 344 343 343 344 344 344 342 342 344 344 342 341
335 333 331 331 329 331 331 331 330 328 328 330 330 333 332 332 333 335 333 335 335 334 334 341 343 343 343 343 342 343 345 345 342 342 344 344 344 344 342 341 343 342 340
338 334 334 332 330 330 331 330 330 329 326 330 332 334 332 333 334 334 332 335 333 334 331 332 337 337 341 342 341 342 344 345 344 343 344 342 343 344 343 341 342 342 341
340 336 335 333 333 330 331 331 329 328 327 329 326 324 328 332 332 332 333 332 331 332 331 333 331 332 333 340 341 342 343 344 344 344 342 342 343 344 343 343 341 341 341
344 340 336 335 334 333 329 330 330 324 328 328 324 326 322 323 325 329 330 330 328 329 331 331 331 330 331 332 335 341 343 343 343 344 342 340 343 344 342 342 341 341 342
344 342 339 336 337 336 332 330 331 327 324 326 328 325 319 315 316 322 325 326 324 325 326 329 330 330 330 329 334 338 341 343 344 343 343 341 342 343 342 341 341 341 340
342 343 340 338 338 336 333 331 331 330 329 327 329 330 327 322 318 314 321 324 323 324 325 326 327 330 330 327 330 334 336 339 343 343 343 342 342 342 341 341 339 340 339
341 343 341 338 336 335 333 332 331 331 330 329 327 327 327 326 323 319 315 314 320 322 323 325 325 327 326 325 326 329 333 335 336 339 341 342 341 342 340 340 340 339 338
336 341 341 339 337 337 334 333 334 334 330 331 329 328 326 324 320 318 311 311 313 316 321 323 323 325 326 325 327 329 330 330 330 331 333 337 340 340 339 339 339 339 338
332 336 338 338 337 339 337 334 335 332 331 329 329 329 325 325 322 319 314 312 312 314 317 320 322 324 328 327 327 329 330 328 326 326 328 331 335 337 337 338 338 337 337
335 336 336 336 336 336 336 336 334 333 331 328 327 326 326 323 320 319 316 314 310 310 314 315 322 324 327 328 327 330 328 327 325 323 324 327 330 332 333 333 334 334 334
335 334 335 335 336 339 338 336 332 331 331 326 325 323 321 322 321 320 319 317 313 307 308 316 318 324 327 328 327 330 327 326 326 323 323 324 326 327 328 328 329 329 329
336 334 334 334 338 338 336 334 330 332 330 324 324 322 322 322 323 322 321 318 316 312 309 316 319 323 324 327 330 329 328 325 323 322 324 323 322 323 324 324 325 326 327
334 334 334 336 336 334 331 330 331 329 326 324 323 323 323 325 322 321 319 317 316 315 312 315 318 322 323 325 324 326 326 325 323 322 323 322 320 320 321 321 322 322 322
334 336 336 336 336 334 332 330 326 326 324 323 323 323 324 327 324 321 318 316 315 317 315 314 318 323 323 324 325 324 325 326 325 322 320 319 318 317 317 318 318 318 317
335 337 336 334 334 333 331 328 326 325 325 324 324 324 323 325 323 319 317 316 316 320 320 319 320 324 323 323 321 322 321 321 323 323 318 317 316 316 316 316 316 314 313
336 334 334 333 333 330 327 327 325 324 324 325 326 326 326 326 321 321 319 317 318 318 320 322 321 321 320 321 320 319 317 320 320 322 320 319 317 316 315 315 316 315 311
331 328 327 326 327 327 327 328 327 325 323 323 325 326 327 327 323 321 321 319 319 317 321 321 319 319 318 318 316 318 316 317 318 319 319 320 321 320 317 316 320 317 311
326 324 323 323 322 320 304 313 321 323 323 322 321 322 322 322 320 315 317 317 321 320 319 317 317 317 317 317 318 317 317 316 312 321 319 317 321 319 319 320 312 309 308
323 323 323 321 318 314 303 305 312 323 321 321 321 322 325 323 318 320 311 313 312 311 316 316 317 318 318 318 319 317 318 315 314 318 319 315 319 318 319 316 307 306 306
326 324 321 318 315 314 304 306 312 323 322 321 322 325 324 322 320 321 321 319 319 318 317 319 318 318 319 320 320 320 317 316 318 317 318 313 316 313 316 311 307 306 304
324 320 317 316 317 317 303 306 316 320 318 317 322 324 324 320 304 306 319 316 314 314 308 308 309 306 305 307 314 319 316 315 312 312 315 314 313 312 313 313 312 306 304
323 322 319 317 311 316 302 303 314 320 319 317 316 316 309 313 300 305 318 316 316 315 316 315 313 307 309 310 308 318 317 314 312 311 314 313 312 313 309 311 313 311 310

GFSMA_sfc_thetae_045.txt.gz
Theta_e
331 330 330 328 329 328 330 330 330 332 334 334 335 336 334 332 334 334 332 341 345 348 349 349 347 345 346 348 348 347 348 348 347 346 344 344 343 344 344 343 342 342 340
330 329 328 327 325 328 330 331 330 330 332 332 332 334 334 332 333 334 333 334 345 347 347 347 347 345 344 345 345 347 345 346 347 345 345 345 343 343 343 343 343 342 341
329 328 326 326 326 327 327 329 327 326 327 328 329 330 331 332 333 333 331 334 338 346 345 346 346 345 345 345 344 345 346 343 346 346 345 345 344 343 342 342 343 342 340
330 327 327 325 326 326 328 329 326 325 326 326 327 329 330 332 332 332 332 333 336 338 342 344 345 344 344 344 343 344 345 343 343 345 345 345 344 343 342 342 342 343 340
332 330 328 327 325 327 327 328 326 326 324 325 327 328 331 331 332 334 332 333 334 336 335 339 343 343 344 344 343 343 343 345 343 342 344 344 344 343 343 342 343 342 342
335 331 331 328 326 327 327 327 327 326 324 326 329 330 329 330 332 331 332 333 334 336 335 333 333 336 342 342 343 343 344 344 344 342 342 342 343 343 343 342 342 342 343
336 332 332 330 328 327 328 328 327 324 323 325 324 323 325 329 330 330 331 331 332 332 331 332 331 331 333 341 340 341 341 342 344 344 342 340 342 343 342 342 342 341 342
338 336 333 332 330 328 326 328 327 323 324 326 322 321 318 322 324 329 328 328 328 329 330 331 330 330 329 330 333 340 341 341 343 345 342 339 341 343 344 343 340 342 341
341 339 336 334 331 331 328 328 329 326 322 324 327 325 316 316 315 319 323 325 325 324 326 327 329 330 329 328 333 336 339 340 343 344 343 340 341 343 343 342 341 341 341
338 340 338 335 333 333 331 329 330 328 326 326 328 329 327 324 317 312 319 321 323 324 322 323 325 327 328 327 331 335 335 337 343 343 344 342 341 342 343 342 340 339 340
333 339 339 336 334 335 332 330 328 328 331 329 329 327 327 325 324 320 314 317 318 320 321 322 323 324 327 325 325 328 332 334 336 338 340 342 341 342 341 340 340 339 340
332 336 337 336 335 335 332 332 333 332 331 331 329 329 327 324 322 319 317 313 311 315 319 321 321 322 324 322 327 328 330 330 330 332 333 337 340 342 341 339 339 340 340
330 333 335 334 335 335 334 333 334 333 331 330 329 328 327 326 324 320 318 311 311 312 316 318 320 321 324 323 326 329 331 327 326 326 327 331 335 336 338 339 338 338 338
330 335 337 336 335 336 335 334 334 333 332 331 330 329 327 325 321 322 317 312 309 309 311 314 320 325 326 325 328 329 326 326 324 323 324 326 329 331 333 334 335 335 334
332 334 335 335 335 335 334 332 332 332 331 328 325 323 321 321 323 319 316 315 313 307 307 312 316 323 325 326 327 326 324 326 325 322 323 324 326 327 327 328 328 329 329
333 334 334 334 334 334 334 334 332 331 327 326 326 322 320 320 319 318 318 316 314 311 307 312 316 322 325 324 329 326 325 326 323 322 323 322 323 323 324 324 325 326 327
333 334 334 333 334 333 335 333 331 329 328 325 322 321 321 321 320 319 317 315 314 313 310 313 318 323 323 325 325 326 326 325 323 322 324 321 320 320 321 322 322 323 323
333 335 336 336 335 335 332 330 327 328 325 322 322 321 321 324 319 319 319 315 314 314 313 312 318 321 321 323 324 324 324 326 325 322 320 318 317 317 318 318 319 319 318
336 336 335 334 334 331 329 329 329 326 323 323 322 321 322 322 320 318 316 314 314 317 316 316 319 322 322 322 321 322 321 322 323 323 318 316 316 316 316 316 316 315 313
334 334 334 333 333 332 331 329 327 323 323 323 323 323 322 322 324 321 317 315 316 317 320 321 320 319 319 320 320 319 317 320 319 321 319 317 316 316 315 315 316 316 311
334 333 331 330 330 329 328 324 323 322 321 321 322 324 324 325 322 321 318 315 316 317 320 319 318 318 317 317 317 318 316 317 318 319 319 320 320 320 317 316 320 317 311
329 329 326 326 322 321 307 313 320 322 322 321 320 322 322 323 320 314 315 315 318 320 320 318 315 317 317 317 318 317 317 317 313 321 318 317 321 319 320 322 313 310 309
323 321 319 318 316 315 303 306 311 321 320 319 319 319 321 323 321 318 311 312 311 311 316 318 318 317 316 318 318 317 317 314 314 318 319 314 319 317 319 315 309 307 306
319 318 317 318 316 313 303 303 309 320 318 319 319 320 320 320 320 320 319 317 316 317 317 319 319 317 317 319 319 319 313 317 317 317 318 312 316 313 316 316 307 306 304
318 317 318 317 317 316 302 302 314 317 316 320 320 322 323 322 306 304 318 316 313 312 307 307 308 305 304 306 314 317 314 316 313 313 316 314 313 313 314 313 312 306 304
320 319 316 319 313 316 300 302 312 317 317 318 318 316 307 313 301 303 318 317 315 314 314 314 314 308 309 310 308 320 318 316 312 312 315 313 312 313 312 313 313 310 308

GFSMA_sfc_thetae_048.txt.gz
Theta_e
333 333 334 332 333 332 333 333 333 334 336 337 337 337 337 337 336 336 337 341 344 345 347 350 350 350 346 346 349 349 348 348 348 346 344 344 343 344 344 343 342 343 343
333 331 331 331 329 330 331 332 331 331 333 335 335 336 337 337 336 336 337 338 342 345 348 348 350 349 346 345 347 348 347 346 347 347 345 344 342 342 344 343 343 342 341
332 331 329 329 329 328 329 331 330 330 330 332 332 333 335 336 335 336 337 337 338 342 346 347 348 346 345 345 346 345 346 345 346 345 345 345 344 343 343 343 343 343 342
333 331 328 327 328 327 328 329 329 328 328 328 329 331 332 333 334 335 336 337 339 342 343 347 347 347 346 344 345 345 345 345 344 344 344 345 345 343 343 343 344 344 342
334 330 328 328 326 327 327 328 328 329 326 327 328 329 331 333 335 336 336 338 339 341 343 341 342 344 345 345 344 343 343 344 344 343 344 344 345 344 343 342 343 344 343
333 331 329 328 326 326 327 327 328 328 327 328 328 330 331 333 335 335 337 338 338 340 341 339 339 339 342 344 344 344 342 343 343 343 342 343 344 344 343 342 341 342 343
335 332 331 329 327 327 328 328 328 327 326 329 328 328 330 333 334 335 337 336 336 338 339 338 338 337 339 343 342 342 343 342 344 343 342 341 341 342 343 342 342 341 342
336 335 333 331 329 328 328 328 328 326 328 329 326 326 324 328 330 334 334 334 334 336 336 336 336 336 336 337 341 341 342 341 342 343 341 340 341 342 343 343 342 341 341
339 337 334 334 331 331 328 329 329 328 325 327 330 328 321 321 322 325 328 331 332 332 334 334 334 334 335 336 336 339 340 340 341 342 342 340 341 342 343 343 342 342 341
341 339 337 336 334 332 331 329 331 330 329 326 328 331 331 328 323 321 325 326 328 329 330 330 332 334 334 335 335 335 335 337 340 342 340 342 341 341 342 343 342 341 341
339 340 340 337 335 333 334 331 331 329 330 329 330 329 329 329 328 322 320 323 324 327 328 329 330 332 332 334 334 332 333 334 335 338 338 341 341 341 342 343 342 341 339
330 334 338 338 337 335 334 332 332 331 331 333 332 332 329 328 325 322 323 320 322 324 325 328 329 330 331 331 331 330 328 329 330 331 334 337 340 342 343 342 340 340 339
328 331 335 335 335 336 335 334 333 333 333 332 332 331 333 331 328 328 325 318 320 320 323 325 328 329 330 329 331 330 330 328 326 326 328 331 335 338 339 340 339 340 340
329 333 336 337 337 337 336 336 335 335 334 333 332 331 330 330 327 325 325 321 316 317 319 323 326 327 329 331 330 329 332 326 324 323 324 326 330 332 333 334 334 335 336
331 334 337 336 337 337 337 336 335 334 334 332 332 331 329 329 329 327 325 324 323 317 316 320 323 327 329 331 330 330 331 326 325 322 322 323 325 327 328 327 329 330 330
334 334 335 337 337 338 337 335 334 334 332 331 330 328 326 326 325 324 323 323 323 321 317 319 323 324 327 329 331 329 329 327 322 322 322 322 322 324 324 324 325 326 326
334 335 336 337 337 336 336 335 334 332 330 330 328 327 326 326 324 324 323 323 321 321 319 320 324 327 325 326 327 327 328 328 327 322 320 321 320 320 320 321 322 323 323
335 336 336 336 337 336 335 334 332 331 330 327 326 325 325 326 325 324 324 322 322 321 320 318 322 323 322 325 326 324 326 328 327 323 320 318 317 317 317 318 318 318 318
335 336 336 337 336 335 335 333 332 330 329 327 327 326 325 326 324 323 323 322 321 322 322 320 320 323 323 323 322 322 324 325 326 322 317 316 316 317 316 317 317 315 314
335 336 337 336 335 333 333 332 331 330 327 327 327 327 326 327 325 324 322 321 321 322 323 322 321 319 320 322 322 319 319 322 322 322 319 317 316 315 315 316 317 316 312
336 336 334 335 334 333 331 330 328 327 326 326 326 326 328 326 322 323 322 321 323 323 321 320 318 318 318 318 318 320 319 320 321 323 321 322 320 320 319 317 320 319 311
333 333 332 332 331 326 308 312 322 326 325 326 325 326 328 323 319 315 314 314 322 324 321 320 319 317 318 318 320 318 318 316 316 322 320 318 322 319 321 323 314 310 308
331 329 327 327 323 317 304 305 310 326 326 325 325 325 325 326 322 322 310 310 311 312 317 322 321 320 317 320 321 319 320 320 318 320 321 316 320 317 322 317 309 308 308
323 322 321 320 318 312 301 302 307 325 325 324 324 325 326 324 324 321 319 320 321 323 323 323 325 324 323 323 324 324 322 320 318 319 321 315 317 315 319 317 307 306 305
319 318 319 320 318 316 301 301 315 322 321 322 323 325 324 323 305 306 321 319 318 316 308 308 309 306 303 306 315 322 319 316 313 316 319 317 315 316 318 318 315 306 304
318 319 319 320 313 316 300 301 314 320 319 320 322 319 308 314 299 302 322 319 317 316 317 318 316 309 309 309 308 325 322 317 315 314 319 318 316 317 314 317 318 318 315

GFSMA_sfc_thetae_051.txt.gz
Theta_e
347 348 348 346 345 343 341 341 339 340 339 339 338 338 338 339 341 340 339 342 343 346 347 348 351 352 350 348 347 350 349 349 348 347 346 344 345 344 344 344 344 342 341
348 345 346 344 343 343 341 339 339 337 337 337 337 338 338 337 339 340 338 340 344 345 347 349 351 354 352 349 347 346 349 348 348 347 346 345 345 344 344 344 343 343 341
346 346 342 341 341 342 342 340 340 339 336 336 335 336 337 338 338 339 339 338 339 342 345 348 351 352 348 348 347 347 348 347 347 346 346 345 344 344 343 343 343 342 342
342 342 339 338 339 339 337 336 336 335 334 334 334 335 336 338 339 340 340 339 338 342 346 347 349 350 348 348 347 347 346 346 345 345 345 345 345 344 344 342 344 343 342
341 340 338 339 340 336 335 335 335 335 334 335 334 335 337 337 339 339 341 343 343 344 347 346 347 347 348 348 347 347 346 346 344 344 345 345 345 344 344 343 342 343 343
339 338 338 338 338 334 335 336 337 338 337 336 334 334 337 339 340 342 343 343 345 348 349 349 346 343 343 345 345 347 346 346 344 344 343 343 344 345 344 344 342 342 343
338 339 340 338 338 337 338 339 339 338 337 338 335 335 337 340 342 342 344 345 346 347 349 348 346 344 342 342 344 345 346 345 344 343 343 341 343 344 344 344 343 342 342
343 344 345 343 342 339 340 340 340 338 338 339 335 335 331 335 339 342 343 344 347 349 346 347 347 346 346 345 344 343 344 344 342 345 341 340 341 342 344 342 342 342 341
347 348 347 346 344 342 341 342 341 341 338 337 339 335 331 328 334 338 340 342 345 344 347 346 346 345 346 345 343 342 341 342 343 343 340 339 341 342 342 342 341 342 342
348 349 350 347 346 344 345 343 342 341 341 337 335 337 340 338 330 327 336 337 339 340 342 341 342 343 344 344 342 340 338 338 341 341 341 342 340 343 342 342 342 342 342
351 350 351 348 347 346 345 345 341 342 341 339 337 337 336 336 337 331 327 330 334 337 339 339 340 340 342 342 342 340 334 334 335 337 339 338 336 343 342 342 343 343 342
349 351 350 350 349 347 346 345 344 343 342 341 341 341 337 333 332 330 328 332 331 334 336 338 338 339 339 340 339 334 330 330 330 332 334 336 336 340 342 342 342 343 341
342 347 349 348 347 349 349 347 344 344 343 341 342 340 339 338 337 334 334 332 330 331 332 335 337 338 338 339 339 333 331 328 327 327 329 331 334 336 339 341 342 341 341
341 348 346 348 348 347 347 346 343 343 345 343 343 340 339 339 337 335 334 331 328 328 329 332 336 332 334 335 338 330 336 327 325 324 325 327 330 333 334 336 336 336 336
341 344 345 346 347 347 347 347 344 345 345 345 342 341 337 336 335 336 337 335 331 324 325 329 330 330 333 336 336 338 337 325 326 323 323 324 326 328 329 329 330 330 331
341 342 345 347 347 347 349 348 347 347 346 344 339 337 337 339 340 337 336 335 333 329 325 330 330 330 333 337 335 338 337 329 323 323 323 323 322 323 323 324 325 326 327
341 341 343 345 346 348 348 348 347 346 344 341 340 341 340 339 336 335 334 333 331 330 325 327 328 330 328 332 333 334 333 336 334 322 321 320 320 319 320 322 322 323 324
341 341 343 344 347 347 348 346 345 343 340 338 338 338 337 335 336 335 333 334 333 332 329 327 325 326 327 328 328 330 329 334 336 324 320 318 316 316 317 318 318 319 318
341 343 344 345 346 347 345 343 343 340 336 336 333 335 337 336 335 334 334 333 331 331 331 327 324 326 325 326 325 327 328 329 329 322 317 316 315 315 316 317 317 315 312
342 344 346 347 347 345 342 339 337 339 341 337 335 339 336 336 335 335 333 333 331 330 329 326 324 322 323 325 325 321 324 328 326 326 321 319 317 316 316 316 316 316 312
343 345 346 346 345 343 339 341 342 341 340 338 338 337 338 334 327 330 332 332 332 329 326 323 322 320 320 320 321 324 323 324 324 325 325 325 324 324 321 318 321 319 312
344 344 344 343 341 338 310 317 330 338 338 337 336 336 336 325 323 315 316 318 328 329 325 322 320 320 321 322 323 322 321 322 320 326 324 322 326 323 324 326 316 312 310
342 342 338 339 340 330 305 308 314 337 336 336 336 336 335 334 328 332 312 312 314 313 320 331 323 320 321 323 324 322 324 324 322 323 325 319 322 322 324 321 311 310 307
342 340 339 337 330 316 302 302 308 336 336 336 336 336 337 336 333 332 328 328 330 331 330 330 333 327 326 326 329 327 326 325 324 325 328 317 320 320 322 322 309 308 306
335 332 327 327 326 321 300 301 318 335 334 333 334 335 335 334 307 305 329 329 330 327 309 305 309 308 306 309 320 327 324 320 316 320 328 322 320 317 320 321 317 307 305
327 329 329 331 317 321 299 301 321 331 330 328 329 329 308 324 300 303 326 329 325 324 326 327 325 315 315 316 308 329 325 319 317 317 327 322 319 321 319 323 324 322 324

GFSMA_sfc_thetae_054.txt.gz
Theta_e
350 350 348 347 345 345 343 343 341 341 341 342 339 338 337 338 339 338 337 348 346 346 348 349 350 353 353 351 349 348 350 351 350 349 348 347 347 346 345 345 345 343 342
350 347 349 347 346 345 343 342 341 340 339 339 338 340 339 337 338 339 337 339 345 345 347 349 350 353 351 351 349 348 348 349 349 349 348 347 346 345 346 345 344 344 344
353 352 346 344 344 348 349 346 344 342 339 337 339 338 339 340 339 339 339 338 338 344 346 348 349 352 352 349 350 348 347 348 348 348 347 346 346 345 345 345 344 344 341
352 351 344 345 344 345 343 340 340 338 337 339 340 340 340 341 341 342 341 340 339 337 342 347 348 350 352 350 349 348 347 348 347 347 347 346 346 345 345 345 344 344 342
348 348 343 342 351 342 340 340 339 340 340 341 341 342 343 342 343 342 343 346 347 344 340 347 348 349 349 349 349 349 347 347 345 346 346 345 346 345 345 345 344 344 343
344 344 341 344 346 342 339 341 345 344 343 343 343 342 344 344 345 345 345 347 348 346 343 346 350 347 347 348 348 349 348 347 346 345 345 344 345 345 345 345 344 344 343
343 346 341 342 343 343 344 346 346 346 344 347 343 343 344 347 347 346 346 346 346 344 348 349 356 347 345 345 344 346 348 348 346 345 344 342 343 344 345 344 344 343 343
346 344 346 346 348 345 347 349 349 345 346 348 342 340 335 340 344 347 346 346 348 351 348 350 349 350 351 346 348 343 346 346 346 345 343 341 342 343 344 344 344 344 343
347 349 350 350 357 352 347 351 351 349 343 347 348 341 334 331 338 343 346 346 348 351 348 348 348 348 350 352 344 345 343 343 346 345 343 341 342 343 344 343 342 343 343
350 350 353 354 361 354 356 353 351 350 350 344 345 346 347 344 334 331 340 343 346 347 350 345 345 347 348 348 347 343 340 340 342 343 343 343 342 344 342 343 341 342 340
355 352 355 359 359 354 357 358 353 352 348 345 344 343 344 342 343 336 331 334 339 340 342 343 342 343 346 346 345 344 336 336 337 339 340 342 343 341 342 343 343 341 342
353 356 355 357 360 357 357 354 355 352 350 350 347 346 342 338 337 336 334 334 333 339 340 342 342 340 341 342 344 336 334 333 332 333 335 337 339 340 342 343 342 341 342
343 357 357 360 357 358 357 355 354 352 352 349 350 345 346 344 343 340 336 332 333 338 337 340 339 340 341 340 340 336 335 330 328 328 330 332 334 332 337 341 342 343 343
342 359 355 356 356 356 355 356 351 349 351 350 350 350 348 345 343 339 335 332 332 338 339 338 338 342 341 340 338 332 338 328 326 325 326 327 330 330 333 335 338 339 338
344 351 352 354 355 356 355 354 347 350 350 350 350 349 347 345 344 341 339 336 338 329 327 336 335 339 340 339 337 340 340 327 328 324 324 325 326 328 329 330 331 331 332
351 349 351 352 354 352 351 353 350 353 350 350 350 349 349 345 342 342 340 338 336 332 325 333 335 336 337 337 335 339 339 331 326 325 325 324 323 324 325 326 326 327 328
348 346 348 349 349 349 351 353 354 352 351 351 350 348 346 345 341 347 341 338 336 335 328 335 335 334 334 336 336 338 337 340 335 322 323 321 320 320 321 321 322 324 325
347 347 347 347 346 347 352 352 352 350 350 348 347 346 342 343 344 345 340 340 337 337 331 332 329 329 332 333 334 333 335 340 339 324 320 319 317 317 317 319 319 319 319
344 347 346 344 344 346 350 352 352 350 349 347 344 344 343 343 342 341 339 336 335 335 334 333 328 330 329 329 327 332 334 333 335 324 318 316 315 316 316 317 317 316 314
342 345 345 344 344 347 350 351 351 348 346 345 346 343 342 342 340 339 337 337 336 333 332 331 329 328 327 327 327 326 326 331 328 332 324 322 318 316 316 317 317 317 312
341 343 344 344 347 348 347 350 348 344 345 344 342 340 343 337 329 332 335 337 336 332 330 330 325 325 325 322 325 325 326 328 328 331 330 329 328 326 323 318 321 318 312
343 344 345 346 348 345 314 319 336 344 344 342 341 341 341 329 327 319 319 320 328 336 334 329 325 325 325 327 327 326 325 325 321 329 327 325 328 326 326 331 318 311 309
348 347 347 347 347 345 310 312 320 344 344 342 341 340 337 335 331 336 316 315 317 317 321 334 328 327 324 327 329 327 326 329 325 329 330 321 325 325 327 324 311 309 308
349 348 346 347 346 337 305 308 313 341 339 339 339 339 339 338 337 335 334 333 333 333 334 334 336 333 329 333 332 330 332 328 330 330 334 323 322 323 324 324 309 309 308
344 345 345 344 340 329 302 304 320 339 338 338 338 339 338 337 314 307 335 332 332 332 312 307 309 311 309 309 321 331 327 323 321 325 332 328 325 321 326 322 319 308 305
342 342 342 342 326 324 300 302 316 335 336 335 337 337 308 325 302 303 336 334 330 331 331 330 331 319 319 321 311 334 330 322 323 321 329 328 324 324 322 328 326 322 320

GFSMA_sfc_thetae_057.txt.gz
Theta_e
358 354 355 347 349 346 344 346 344 345 343 342 341 340 338 338 339 338 339 350 348 348 348 349 350 352 354 353 351 350 349 351 351 351 349 348 346 345 345 343 344 343 344
359 350 352 347 346 345 344 345 346 344 342 341 341 341 341 340 340 344 338 341 347 346 347 349 351 351 353 353 352 350 348 350 351 350 349 348 347 346 345 345 344 343 343
360 357 347 347 348 351 361 353 349 346 341 340 343 341 342 346 341 344 341 341 341 345 346 347 350 351 352 354 353 350 348 347 349 349 348 348 346 345 346 345 345 344 342
359 358 348 349 351 351 346 348 345 340 339 340 344 343 343 345 344 347 344 344 342 341 343 346 348 350 351 352 353 350 349 347 347 348 348 347 347 346 346 346 345 345 343
355 356 351 350 355 346 345 348 346 345 343 342 341 344 347 345 347 344 348 350 349 345 343 343 346 348 350 352 352 351 350 347 345 347 347 346 346 346 346 346 345 345 343
353 355 350 351 349 346 343 345 346 347 344 344 342 344 349 347 347 349 349 348 349 349 349 350 346 346 348 350 350 349 351 349 346 346 346 345 345 346 345 345 345 345 344
352 352 348 347 348 346 348 352 348 349 345 349 344 343 345 352 352 349 351 349 350 350 348 346 347 346 344 347 347 347 349 350 348 346 344 343 344 345 345 345 345 345 344
351 350 347 344 348 344 353 353 352 345 347 350 343 340 332 339 348 350 349 349 352 349 347 348 350 350 354 349 345 344 346 347 349 347 344 342 343 343 344 345 345 344 344
349 348 350 342 344 350 348 353 354 354 344 348 355 341 329 325 334 347 350 346 353 350 352 349 350 348 352 349 348 346 344 344 347 347 345 341 342 343 344 344 344 344 344
351 351 347 349 352 352 353 356 356 355 354 345 347 349 351 346 333 330 343 346 347 348 351 346 346 348 350 349 349 345 342 342 344 345 344 344 343 343 343 343 343 343 343
348 349 349 354 359 356 359 359 364 361 352 347 342 345 347 344 348 340 334 337 343 345 346 348 346 346 347 348 349 345 339 338 340 340 341 343 343 344 344 343 343 342 343
350 356 352 359 361 361 362 362 365 363 357 355 350 347 341 338 337 338 336 339 339 344 343 346 344 344 348 344 346 339 336 335 334 334 336 338 340 342 342 342 343 342 341
346 359 356 361 359 366 364 363 364 362 359 353 357 346 341 340 342 341 338 336 333 345 343 344 346 341 341 342 342 339 336 332 330 329 330 332 335 337 339 341 342 342 342
349 360 364 360 364 363 363 364 358 356 358 354 357 355 342 343 347 344 341 335 331 341 342 339 340 340 341 341 337 335 339 330 328 326 326 327 330 332 332 335 338 338 338
345 353 364 362 363 361 362 363 356 358 357 357 356 358 351 349 349 347 347 340 333 332 332 339 340 342 340 340 336 342 340 329 328 325 325 325 326 326 327 330 331 332 333
349 348 354 358 358 360 361 361 358 359 355 352 350 354 351 350 349 347 344 340 338 339 331 335 342 343 340 338 338 339 340 329 327 326 325 324 323 324 325 326 326 328 329
352 352 349 352 355 357 358 360 357 353 353 355 354 352 351 353 346 343 344 342 344 341 332 339 341 338 336 338 339 339 339 339 332 324 325 323 321 321 322 322 322 324 325
349 349 349 349 350 355 358 356 351 348 351 349 351 350 349 347 347 348 347 345 339 338 333 334 335 333 334 335 337 336 338 341 339 323 321 319 318 316 317 317 318 319 319
345 347 347 347 349 352 353 354 350 348 350 350 351 350 347 346 347 343 344 344 338 335 336 333 335 332 333 333 332 335 337 338 334 324 320 317 315 315 315 316 316 316 316
342 343 348 347 348 349 349 350 350 352 351 351 351 348 346 345 343 344 343 340 338 337 337 335 334 329 329 330 328 329 330 337 331 332 324 322 318 315 314 315 317 317 313
341 341 343 345 350 349 346 352 352 353 352 350 350 346 347 341 333 335 336 342 342 335 335 338 333 329 327 325 326 327 329 330 330 332 330 331 332 329 322 318 321 318 312
343 344 344 345 349 343 318 320 343 351 348 346 345 344 344 332 329 319 323 318 330 339 337 335 327 326 328 327 331 329 331 325 323 332 329 325 331 327 326 328 317 310 309
348 348 347 348 350 351 312 315 322 349 347 348 346 345 340 337 332 336 319 317 319 318 323 338 333 331 330 331 330 330 329 330 330 329 330 322 327 324 328 324 311 307 307
349 351 352 352 353 342 308 310 317 347 345 344 343 342 342 340 336 335 334 331 332 334 333 333 337 335 334 335 335 335 333 333 334 331 336 322 325 323 325 324 309 307 306
348 351 352 352 348 336 305 310 324 343 341 340 339 339 338 337 317 307 335 332 333 333 313 309 313 311 311 314 322 335 330 327 324 327 332 328 324 323 324 322 317 308 306
349 349 347 350 330 339 302 307 320 337 338 335 338 338 314 329 303 303 337 336 332 333 331 332 330 320 321 322 311 335 335 326 323 322 332 328 325 325 322 328 327 319 316

GFSMA_sfc_thetae_060.txt.gz
Theta_e
352 352 355 350 348 346 343 341 339 343 341 341 341 339 338 338 338 339 338 352 350 350 352 351 351 353 354 354 352 351 351 350 350 351 350 348 347 346 345 344 345 344 344
349 354 354 354 351 351 348 344 345 345 345 342 342 342 341 340 340 341 338 342 348 348 350 352 353 352 353 355 353 352 350 348 350 349 350 348 347 346 345 345 344 344 343
357 352 351 350 350 351 354 354 351 350 346 343 341 341 343 343 340 341 342 339 341 347 347 349 351 353 354 355 354 352 349 348 349 349 349 348 347 346 345 345 344 345 343
357 358 351 349 349 352 351 348 347 344 342 339 339 341 342 341 342 343 343 341 341 341 344 347 347 349 353 354 353 354 350 348 346 347 348 348 347 346 345 345 345 344 343
353 353 351 349 353 351 348 348 348 346 341 340 341 344 344 344 346 344 342 344 343 342 341 346 345 346 349 352 353 354 351 348 346 346 347 347 347 346 345 345 345 344 343
353 352 351 352 355 348 345 346 346 345 342 341 342 340 344 346 347 345 347 347 346 346 346 345 344 342 347 349 349 351 351 350 347 345 345 345 345 345 344 345 345 345 344
350 351 350 349 350 345 343 345 345 342 340 345 343 343 344 347 347 345 349 348 346 346 345 349 346 343 343 346 346 348 350 350 348 345 344 343 344 344 344 345 345 344 344
349 348 348 346 345 342 342 341 344 340 341 344 342 341 334 337 344 345 346 346 346 347 346 345 344 342 345 345 343 345 347 347 349 347 343 341 342 344 344 343 344 344 344
342 347 348 345 343 342 339 342 345 344 338 345 347 341 332 325 335 344 344 345 347 348 347 345 347 346 346 344 346 345 344 344 345 346 344 341 342 343 343 343 343 343 343
345 348 345 345 342 344 341 342 347 346 344 339 347 347 346 344 333 332 343 344 347 345 346 345 344 346 346 346 346 347 342 340 344 345 344 343 344 343 343 343 343 343 343
349 346 346 345 343 344 343 345 345 348 349 346 345 346 345 343 343 337 331 335 341 343 346 346 344 345 345 345 345 344 338 340 339 341 341 342 342 344 343 343 343 343 343
334 337 348 344 343 342 340 346 349 351 352 351 348 347 343 340 337 337 333 334 334 338 341 345 343 340 342 342 344 337 337 334 334 334 335 337 339 340 343 342 343 343 341
336 336 344 336 334 333 334 336 332 348 356 351 353 347 346 342 340 340 337 333 332 335 336 341 341 340 341 337 339 338 336 332 331 329 330 332 334 336 338 340 341 341 341
337 336 341 338 333 334 336 337 341 353 356 355 351 352 346 344 342 343 340 335 330 331 333 332 340 340 338 337 334 334 335 330 328 327 326 327 329 332 333 335 336 337 338
340 342 342 339 337 341 348 347 353 354 355 354 352 350 351 347 345 347 344 340 333 324 327 332 332 337 338 337 332 336 338 330 329 325 324 324 325 327 328 329 330 331 332
338 343 342 349 350 352 353 356 355 355 354 353 351 349 348 348 348 346 344 341 339 332 326 331 334 336 337 335 335 334 335 329 327 325 325 324 323 323 324 324 325 327 328
340 341 341 345 350 354 355 355 355 354 352 350 349 347 348 347 348 345 344 341 337 335 328 329 335 335 332 333 334 334 334 333 327 325 325 323 321 320 321 322 323 324 325
340 340 343 343 342 343 350 353 353 353 350 347 347 347 347 348 347 345 343 340 336 337 332 326 330 330 329 331 331 331 334 335 331 323 321 319 318 316 318 318 317 318 318
335 339 341 342 345 347 349 353 354 351 348 347 348 347 347 347 344 343 342 339 336 337 334 330 329 330 329 329 326 329 330 331 330 322 319 317 316 316 315 315 315 315 313
332 337 340 342 344 344 348 352 352 347 347 349 349 349 348 345 343 342 340 339 336 334 333 330 329 328 326 326 326 324 323 328 326 326 321 320 319 315 314 315 316 315 312
333 335 337 341 342 345 347 349 348 347 349 348 350 349 347 342 336 339 340 337 335 332 332 328 326 326 325 323 320 324 323 325 325 328 327 326 324 323 318 317 321 317 312
330 335 337 338 341 343 324 323 339 348 350 347 346 345 339 327 325 321 318 319 332 333 329 328 326 323 324 323 325 324 324 323 318 329 324 322 327 325 322 325 316 310 309
330 332 338 339 340 344 309 315 323 349 348 346 345 344 338 337 331 329 318 318 316 316 325 331 327 326 325 326 326 325 325 323 323 324 325 319 325 322 326 322 310 306 307
331 334 338 341 341 341 308 310 320 347 345 345 345 343 341 338 336 334 331 331 331 330 330 331 332 331 330 331 329 329 326 325 326 326 327 315 322 320 323 322 308 306 305
329 335 338 342 342 330 307 310 330 345 342 343 342 342 340 338 317 311 332 329 329 325 311 310 314 311 312 315 322 329 325 323 321 322 326 321 320 319 321 320 316 307 305
333 335 337 343 329 333 303 309 329 341 339 337 339 329 314 330 304 305 334 331 329 327 327 327 325 316 318 316 312 329 327 321 319 318 326 322 320 320 317 324 321 315 313

GFSMA_sfc_thetae_063.txt.gz
Theta_e
340 339 337 336 337 337 337 334 333 334 334 334 333 332 332 332 332 332 335 352 349 350 353 354 353 353 352 354 353 352 350 349 350 350 347 347 346 346 346 346 346 344 343
339 341 341 342 341 340 339 336 334 333 336 336 335 336 335 334 334 333 334 341 350 348 350 353 354 353 352 354 353 352 350 349 349 349 349 349 347 346 346 346 346 344 343
338 339 343 341 342 342 341 338 336 338 337 337 334 334 335 336 335 334 334 334 341 348 348 350 352 354 354 354 354 353 351 349 348 348 348 346 347 346 346 346 345 345 343
347 343 344 343 341 341 341 339 337 335 335 333 331 331 332 334 335 335 334 335 334 337 346 348 349 351 353 355 353 354 351 348 347 347 346 346 347 347 346 345 345 344 343
348 348 345 342 343 341 341 338 338 336 334 333 333 333 336 336 336 337 337 337 335 336 336 343 347 347 349 352 353 355 353 348 346 345 346 347 346 347 346 345 345 344 344
348 346 345 343 342 342 337 335 336 338 334 333 337 337 334 337 338 338 338 339 338 338 337 337 341 342 346 349 351 351 353 351 347 346 344 345 345 345 345 345 345 345 344
350 347 344 344 344 340 336 336 334 335 332 335 332 332 337 339 340 341 341 339 340 340 340 341 341 339 340 345 347 349 350 350 349 346 342 342 343 344 345 344 345 344 344
344 347 347 344 343 337 335 336 335 332 334 336 334 332 329 331 336 340 338 341 340 342 341 341 343 339 339 340 341 345 348 349 350 345 342 340 342 344 344 344 344 344 343
341 344 345 343 341 337 335 333 334 336 334 335 338 334 327 323 329 335 338 338 339 340 341 340 340 340 341 340 342 344 345 345 347 346 343 340 341 343 344 343 343 343 343
339 341 344 344 339 338 336 334 339 339 338 337 337 343 341 336 326 325 335 338 339 340 340 340 340 342 341 339 343 343 341 341 345 345 344 342 343 342 343 342 343 341 342
343 342 342 342 339 337 337 338 337 338 342 341 339 337 338 339 336 330 325 328 335 337 339 340 339 339 340 341 340 339 339 338 339 340 342 342 342 343 343 342 343 342 342
334 336 345 342 341 340 338 341 341 341 337 334 334 329 326 329 333 332 329 328 327 331 336 340 338 338 339 338 342 340 335 334 334 334 335 337 340 340 341 342 343 342 341
332 333 334 341 341 341 341 336 338 332 327 326 328 328 329 333 337 334 329 326 326 328 330 335 337 335 335 334 335 337 335 331 330 329 329 331 334 335 337 338 340 340 341
332 332 333 337 337 335 329 331 332 329 329 327 324 325 327 329 338 333 331 328 323 324 326 326 333 334 332 331 331 334 333 329 327 326 325 326 328 330 331 333 335 335 336
336 337 336 338 336 335 332 331 331 330 328 331 338 339 333 341 338 337 336 332 326 318 320 326 327 331 332 331 332 332 333 330 328 325 324 323 324 326 327 328 329 330 331
326 330 336 336 336 338 338 335 333 334 333 332 336 346 346 345 341 338 336 332 329 326 320 325 327 329 330 332 333 330 331 328 326 324 324 323 322 322 324 324 325 326 327
328 331 334 334 337 338 338 336 334 335 338 339 346 347 346 341 340 338 334 332 330 328 323 323 327 328 326 328 329 330 331 328 325 323 323 322 320 320 320 320 320 322 324
327 330 334 335 337 339 342 337 338 343 345 346 347 345 344 345 341 338 333 332 330 329 325 321 323 324 324 324 326 325 329 332 325 323 321 319 317 315 317 317 317 318 317
323 325 327 329 333 337 339 347 348 348 348 347 346 342 343 342 340 337 331 330 329 331 328 324 322 323 322 323 321 323 325 322 325 321 318 316 315 316 316 316 315 316 312
323 324 326 329 334 337 339 340 343 347 349 345 345 343 341 343 340 335 334 332 330 328 326 324 321 320 319 320 320 318 319 322 319 324 319 318 318 317 315 315 316 316 311
324 324 324 325 329 334 338 339 345 347 347 341 343 344 342 340 334 336 335 332 328 325 323 321 319 318 317 316 314 317 318 319 320 322 318 319 319 319 318 316 320 318 311
322 323 323 326 328 332 321 317 331 345 339 340 340 340 339 330 327 324 322 326 327 325 321 319 318 317 317 317 318 318 317 316 313 326 322 321 325 323 322 323 316 310 309
320 321 322 323 327 332 316 312 315 344 340 338 339 334 332 331 325 324 317 315 315 318 322 323 320 320 318 320 320 318 321 317 316 319 321 318 323 321 324 322 310 307 307
316 322 324 325 325 330 315 308 311 341 338 337 338 333 331 326 325 324 324 323 323 323 324 328 324 324 324 324 323 322 321 320 321 321 319 312 321 319 323 323 308 306 305
317 318 322 326 330 332 309 305 311 338 335 335 337 334 332 330 312 311 326 324 321 318 309 309 315 311 310 312 320 323 319 320 318 318 322 315 314 318 321 320 318 307 304
317 319 322 326 324 331 311 302 314 337 334 333 330 326 318 328 304 305 325 322 319 318 320 320 319 314 316 314 313 323 321 319 316 314 320 316 314 319 315 320 321 315 312

GFSMA_sfc_thetae_066.txt.gz
Theta_e
337 338 334 334 335 333 334 332 331 333 333 333 333 331 329 329 331 332 331 343 350 352 355 355 354 353 353 352 352 352 350 348 349 349 348 348 347 347 347 347 345 344 343
337 334 335 334 333 333 333 333 331 331 331 331 332 331 331 330 331 332 332 331 350 349 350 353 354 354 353 353 352 352 350 349 348 348 348 347 347 346 346 346 346 344 343
336 338 336 337 336 336 336 335 334 332 330 333 332 333 334 334 334 333 333 331 340 349 348 350 353 354 355 353 353 352 350 348 347 348 347 346 346 346 346 346 346 345 343
338 336 340 339 339 340 339 337 337 335 334 333 330 330 330 331 332 333 334 332 332 336 347 349 350 352 354 355 353 353 352 349 347 346 346 346 346 346 346 346 346 345 344
345 338 336 340 341 338 337 337 336 334 332 330 331 331 331 332 333 336 334 334 333 334 334 342 348 348 350 353 354 353 352 350 347 346 346 346 346 345 346 346 345 345 344
345 346 344 340 340 339 338 336 333 335 334 332 334 333 332 333 334 335 337 338 336 335 334 334 337 343 347 349 351 352 351 350 348 347 345 344 344 344 343 346 345 345 345
345 345 346 343 340 338 337 336 332 332 332 332 330 329 330 333 334 336 338 336 337 338 336 336 335 337 338 346 347 348 350 351 349 349 344 342 342 343 343 344 345 345 344
347 345 343 342 342 340 337 335 333 330 332 334 327 327 324 328 329 335 336 339 339 338 339 339 338 338 337 337 340 345 348 348 348 346 343 341 341 342 343 342 344 344 344
345 348 346 345 341 341 339 334 333 332 329 333 334 329 324 321 327 330 335 339 339 338 339 339 340 340 339 337 340 343 345 344 347 347 343 341 341 343 343 342 341 342 344
340 340 342 345 344 341 339 335 334 335 335 332 334 336 333 333 326 322 330 333 337 339 339 338 338 337 338 338 341 341 339 341 346 347 345 343 343 343 342 342 341 341 342
338 339 340 342 342 340 340 336 335 335 337 335 335 335 333 328 325 321 317 321 329 339 340 337 337 336 339 338 337 338 336 336 338 340 341 342 342 343 342 342 342 341 341
334 337 341 340 341 339 337 338 338 336 336 340 340 336 329 322 321 322 319 321 326 333 335 336 336 336 337 338 341 338 333 331 331 332 333 335 339 341 341 341 342 342 341
330 334 335 340 340 340 339 338 338 338 339 336 333 330 328 325 325 324 323 325 328 329 329 332 335 336 336 336 336 335 334 330 328 327 328 329 332 336 337 338 340 341 341
330 331 332 333 337 339 339 338 337 338 330 328 326 325 324 324 326 328 328 328 325 322 323 326 329 332 332 332 332 332 331 327 327 324 324 325 327 329 331 333 334 335 336
328 332 331 331 332 335 332 331 331 331 331 329 329 328 327 327 325 327 331 332 328 323 320 324 325 328 329 329 330 329 329 329 328 324 322 323 323 325 326 327 327 329 330
321 323 330 332 334 336 334 331 329 329 329 329 329 328 329 332 335 334 335 336 332 328 320 323 324 327 328 330 331 329 330 328 326 324 323 322 320 321 322 323 324 325 327
321 323 327 328 332 333 335 334 334 333 331 331 333 331 330 330 338 341 339 334 329 324 321 321 325 325 324 326 327 327 329 327 324 322 323 321 319 318 320 320 321 321 323
320 322 323 326 330 332 333 335 335 337 334 333 334 336 336 341 339 339 336 331 328 326 322 319 321 322 322 323 324 323 328 329 323 320 318 316 315 313 315 316 315 315 315
318 319 323 325 327 328 330 333 337 338 336 337 337 339 343 343 342 338 333 330 327 328 324 322 323 321 321 321 319 320 322 320 322 319 317 315 314 315 315 315 315 315 312
317 317 319 321 323 325 327 330 335 338 342 342 344 345 344 342 341 337 333 329 327 325 323 323 321 319 318 318 317 316 317 319 317 321 319 317 317 317 315 315 318 316 312
320 320 320 320 320 322 324 325 331 337 338 342 344 345 344 339 333 333 334 328 327 323 322 319 317 316 315 316 314 315 315 317 317 318 318 319 320 319 319 316 321 319 312
318 320 320 320 320 324 315 312 318 330 338 341 340 340 342 328 327 319 322 321 327 324 320 318 316 316 314 315 314 316 316 319 316 324 322 318 321 321 320 322 315 310 308
313 316 317 318 318 319 310 308 311 323 330 339 339 337 335 338 329 331 317 316 316 314 319 321 318 318 316 318 317 315 315 314 313 316 317 317 322 321 322 322 310 307 306
310 311 314 316 318 320 309 306 309 321 326 336 337 336 333 328 329 328 325 324 324 323 322 324 322 321 322 320 321 320 318 317 316 318 317 312 317 318 323 323 309 307 305
309 311 314 316 317 321 310 307 310 322 327 334 336 333 330 328 310 308 325 322 320 319 309 308 313 311 309 308 316 321 317 316 313 315 318 314 316 313 320 320 318 306 304
309 312 314 316 315 320 311 306 309 322 327 330 331 329 314 325 304 306 324 322 318 318 318 318 317 314 311 310 308 321 319 315 313 312 317 315 312 314 312 316 320 316 312

GFSMA_sfc_thetae_069.txt.gz
Theta_e
338 337 335 333 332 331 332 331 331 331 331 332 333 331 330 328 328 329 329 340 345 347 353 357 356 356 354 352 350 350 350 348 348 348 348 348 348 347 348 347 345 345 343
336 335 334 332 332 332 331 331 331 329 329 330 330 331 330 329 329 329 330 331 342 345 352 355 355 356 355 354 351 350 350 349 348 347 347 347 347 346 347 347 346 345 343
337 333 334 333 332 332 332 332 332 331 330 330 330 331 331 332 332 332 333 332 332 343 349 350 352 353 354 353 353 351 349 349 349 347 346 346 345 345 346 346 346 345 344
339 336 334 334 336 335 335 334 334 333 332 332 331 331 331 330 330 331 333 333 331 332 344 350 350 352 351 354 353 352 350 348 348 347 346 346 345 344 344 345 346 346 344
341 337 336 337 337 335 337 336 336 333 332 331 331 332 331 331 332 334 333 332 332 332 332 341 347 349 350 351 352 353 351 348 347 347 347 346 346 344 344 344 346 346 344
344 338 335 334 339 337 335 335 334 333 333 332 333 334 332 331 332 332 333 335 334 334 332 334 335 340 347 349 350 351 353 349 348 347 345 345 344 344 343 344 345 345 345
343 342 340 339 337 336 336 336 333 332 331 333 329 328 328 331 331 332 333 334 335 337 336 336 334 335 337 346 347 349 351 350 348 348 344 343 343 344 343 342 341 344 345
342 341 342 342 342 339 337 336 333 330 331 332 326 325 322 328 328 331 334 335 336 338 338 339 337 336 336 335 338 344 347 349 349 348 344 342 343 343 343 342 341 342 344
344 343 342 341 342 342 339 337 335 331 330 331 331 324 320 320 326 330 330 335 332 334 335 338 339 338 338 336 339 340 344 345 347 349 345 342 342 343 342 341 341 340 343
337 343 344 342 341 341 339 337 337 333 331 329 332 334 331 329 325 320 328 328 328 329 332 337 338 340 339 336 340 341 338 341 345 346 346 346 345 343 342 340 341 339 341
336 338 339 340 343 342 341 340 336 333 333 332 332 332 332 332 326 320 318 319 325 327 331 335 339 337 336 335 336 336 336 336 337 340 341 343 345 344 343 341 341 341 341
333 334 337 337 339 339 338 339 338 334 336 335 335 334 333 326 323 321 315 317 320 325 331 334 336 337 335 335 339 338 333 332 331 331 332 335 338 341 343 342 343 342 341
329 333 334 334 335 336 337 336 336 336 334 334 334 336 338 336 326 323 319 318 319 328 329 332 334 335 336 335 336 336 337 329 327 326 326 328 331 334 336 339 341 341 341
327 330 330 331 332 337 337 335 335 335 336 336 335 336 334 331 326 327 324 322 320 322 325 327 329 332 333 332 333 333 331 327 325 324 323 324 326 328 329 331 334 335 335
321 324 328 328 329 330 335 335 335 336 335 334 334 334 331 329 326 327 328 327 323 317 322 325 326 328 329 329 331 329 328 328 328 324 322 322 323 324 325 326 327 329 330
318 320 321 325 327 329 330 329 330 332 330 331 332 329 327 329 328 327 327 328 328 324 323 325 325 326 327 329 331 328 329 328 326 324 324 322 321 321 321 322 323 325 326
315 317 319 321 325 327 328 329 328 330 329 329 329 329 328 329 329 332 331 331 332 331 327 323 323 325 324 324 326 326 327 326 325 322 323 321 319 318 318 320 321 322 323
314 318 320 322 325 326 327 330 331 333 332 331 331 333 332 332 329 332 339 337 333 329 325 322 322 322 322 323 323 323 326 327 322 320 317 315 314 313 313 316 315 315 315
313 315 318 319 322 325 327 328 332 334 333 334 334 334 334 335 335 338 337 335 329 328 325 321 320 321 320 321 319 319 320 319 321 320 317 315 314 314 314 314 313 314 312
313 313 314 316 319 320 321 323 324 325 330 333 336 337 339 337 338 337 335 334 328 327 324 322 320 318 319 318 317 315 316 323 316 321 318 317 317 317 315 316 318 318 314
316 316 316 317 318 320 321 320 320 321 324 329 333 338 342 340 330 334 337 330 328 325 322 320 317 315 315 317 314 314 314 317 315 317 318 319 319 319 319 317 321 320 315
311 312 314 317 317 320 312 310 313 318 322 324 327 333 337 331 329 321 321 321 328 326 322 319 316 317 315 315 313 314 314 316 317 319 318 316 317 316 319 322 315 312 310
307 308 309 311 313 314 308 306 308 314 319 321 325 329 333 338 327 334 316 314 316 315 319 324 319 318 316 317 315 313 314 313 313 314 315 317 322 320 322 322 311 308 307
304 305 306 308 310 314 306 304 305 311 316 320 323 326 331 335 332 331 327 327 325 322 321 325 324 322 320 319 319 318 317 314 314 316 315 312 315 313 322 323 310 308 306
303 304 306 308 308 311 306 304 306 316 318 320 324 328 333 335 317 307 329 326 322 319 310 308 309 310 308 308 315 319 315 314 311 313 315 313 314 312 317 319 319 308 306
305 306 305 306 309 312 306 303 306 315 316 320 324 329 312 325 305 303 328 324 320 318 320 318 317 311 309 308 307 321 318 314 311 311 316 315 313 311 310 313 317 316 314

GFSMA_sfc_thetae_072.txt.gz
Theta_e
341 341 339 336 336 335 335 334 334 334 334 335 335 335 334 334 334 333 334 339 344 346 347 353 357 358 356 353 352 351 349 349 349 347 347 346 347 348 348 347 347 345 344
341 339 338 336 334 334 334 334 333 333 333 334 334 335 335 335 335 335 335 336 341 344 346 352 356 358 357 354 353 351 349 348 349 347 346 346 345 347 347 348 347 346 344
340 339 337 335 334 334 334 334 334 334 333 334 334 335 336 337 336 337 338 338 337 340 344 349 354 355 356 355 354 352 349 349 348 348 346 345 345 345 345 347 347 347 345
342 337 335 335 336 335 335 334 335 335 336 336 336 337 336 336 337 336 337 338 338 337 340 347 350 352 353 354 354 354 351 348 347 346 347 346 345 345 345 346 347 346 345
344 340 338 335 336 337 337 337 337 338 336 336 335 336 336 336 337 338 338 338 340 339 338 340 346 349 351 353 354 354 352 349 347 346 346 347 346 345 345 345 345 346 345
344 340 338 336 337 335 336 337 337 336 336 337 336 336 337 337 337 336 337 339 340 341 340 340 341 345 347 350 351 353 353 351 348 347 345 344 345 345 345 344 344 345 345
344 342 339 335 336 337 337 338 338 336 334 336 334 333 332 334 334 335 340 340 340 342 341 342 341 341 343 344 346 349 350 352 351 348 345 342 343 345 345 344 343 343 344
342 342 341 339 337 335 337 338 337 334 334 334 332 329 322 328 333 339 338 339 339 341 341 343 343 342 342 344 342 342 346 349 351 350 345 341 342 343 344 344 342 341 341
342 342 342 341 341 340 338 338 338 335 333 333 333 330 323 321 328 334 336 337 339 335 337 341 343 343 343 345 343 343 343 344 348 350 346 343 343 344 344 342 341 341 340
343 344 343 343 343 343 342 340 340 338 336 331 333 335 334 333 327 326 331 333 333 331 332 336 341 343 346 344 343 343 339 340 344 347 347 346 346 346 345 343 341 340 340
339 341 341 341 340 340 340 339 338 336 335 334 333 333 333 334 333 330 326 329 328 329 330 335 339 343 344 344 344 341 337 336 337 340 342 343 344 346 346 344 343 342 341
336 337 339 336 340 340 341 340 340 335 334 337 336 334 334 333 331 326 325 324 323 327 332 337 340 343 344 343 343 338 333 332 331 331 333 335 337 339 341 343 345 345 343
332 335 336 337 337 339 340 338 337 336 336 335 334 334 336 335 334 328 325 327 324 329 333 336 337 340 342 342 343 338 337 330 328 327 327 328 331 333 335 336 339 342 342
331 333 334 335 336 339 339 339 337 337 338 337 336 336 338 339 336 333 331 325 325 327 331 331 337 337 340 340 338 334 338 328 326 324 324 324 326 328 329 331 332 334 335
325 327 329 330 332 333 336 338 337 337 337 337 337 335 334 334 329 330 331 328 327 321 322 333 334 335 336 336 336 337 335 328 328 324 323 322 323 323 324 325 326 328 329
320 324 327 328 329 331 332 333 334 335 335 336 336 335 333 331 331 330 329 328 330 326 323 334 335 333 333 333 335 335 335 329 324 323 323 322 320 320 321 321 323 324 326
317 319 320 321 324 327 330 330 330 330 331 331 333 332 331 330 328 330 330 330 330 330 325 332 329 331 331 332 333 333 334 333 330 320 320 317 314 316 316 318 320 322 323
315 317 320 323 324 326 327 328 329 332 332 331 332 333 332 333 329 330 331 330 330 331 329 327 329 328 329 330 331 331 331 330 328 320 316 315 313 313 313 313 313 313 312
313 316 319 320 322 324 325 327 329 331 332 333 333 334 334 335 332 330 330 331 335 334 333 329 327 326 327 327 326 327 328 327 325 321 318 316 315 315 315 314 314 314 312
315 316 317 319 320 321 323 324 324 326 327 330 332 335 336 338 337 335 335 336 333 331 328 328 325 325 325 325 325 325 324 327 326 324 319 318 317 317 317 317 318 318 314
316 318 318 319 320 321 321 323 323 324 324 324 327 331 335 335 331 334 341 340 332 332 328 326 323 322 321 320 324 323 322 324 324 324 322 322 322 323 323 319 322 319 315
315 316 317 317 317 318 310 308 315 320 322 323 323 325 329 327 329 320 319 320 330 331 329 326 324 322 322 324 322 321 322 321 321 325 323 324 325 325 327 326 315 312 310
310 310 311 313 314 315 306 304 306 316 318 319 321 323 325 329 326 335 323 314 315 313 320 329 326 326 325 324 322 320 322 324 323 323 325 322 326 326 328 326 312 309 307
307 308 308 310 311 312 305 303 304 315 316 318 321 323 324 326 329 331 336 332 329 327 326 329 332 329 331 327 327 326 326 324 324 324 325 322 322 324 327 328 310 308 306
305 306 308 309 310 311 303 301 304 315 317 320 323 325 326 328 317 306 331 331 328 324 314 309 311 308 307 308 317 326 323 323 322 323 323 323 321 321 320 322 325 308 306
306 307 308 308 307 309 302 301 304 313 317 320 323 325 309 317 307 301 327 330 324 324 321 320 319 313 311 310 307 331 326 323 321 321 325 323 318 321 319 323 324 322 319

GFSMA_sfc_thetae_075.txt.gz
Theta_e
347 348 348 346 345 344 343 342 340 340 342 343 344 345 344 345 346 345 346 346 344 346 346 348 353 357 358 356 353 352 351 350 349 348 347 348 348 348 348 348 348 347 345
348 347 348 346 344 344 342 341 341 342 342 343 345 347 347 347 347 348 347 348 344 344 346 347 349 357 359 358 354 352 351 349 349 349 347 347 346 347 347 348 348 347 346
350 349 346 345 344 345 346 344 344 344 343 345 348 349 349 350 348 349 349 347 346 345 344 347 348 354 358 359 356 353 351 348 349 349 348 346 346 345 346 347 348 347 346
352 349 346 345 346 345 343 343 343 343 344 347 348 348 348 349 349 349 349 348 346 349 348 345 347 351 355 357 357 356 352 348 348 347 348 347 346 345 345 346 346 347 346
351 349 347 347 349 344 342 342 343 344 346 347 346 346 347 346 348 346 348 347 349 351 351 349 344 347 351 353 356 356 354 350 347 347 347 347 347 347 346 346 345 346 346
352 350 348 347 347 343 342 342 345 347 346 345 343 344 346 346 346 346 345 344 350 351 351 352 352 349 345 349 352 355 356 353 349 348 346 345 346 347 346 346 345 345 346
352 353 349 349 347 345 344 343 343 344 343 343 342 342 341 344 344 345 344 347 348 348 349 347 349 350 350 345 347 350 354 355 353 350 346 344 344 345 346 346 345 344 344
350 350 351 349 347 343 345 345 345 342 345 344 341 336 330 336 340 345 345 345 347 347 343 343 345 348 353 352 350 346 349 351 353 352 347 343 343 344 345 345 344 343 343
350 351 349 349 348 345 341 344 345 346 340 341 344 339 330 327 333 342 343 343 345 345 344 343 344 345 347 350 349 348 344 346 349 351 349 344 344 345 345 344 344 343 343
348 348 349 348 350 346 347 345 346 347 344 343 339 340 343 341 332 327 339 340 344 342 345 341 341 338 345 347 352 350 343 342 345 348 349 347 347 347 346 345 344 343 342
349 347 349 349 349 350 351 349 346 345 343 339 338 337 341 339 341 332 327 334 338 341 341 338 340 342 347 349 352 350 338 337 339 341 343 345 346 346 347 346 345 344 343
347 350 350 351 350 350 349 345 340 333 334 332 332 334 335 334 334 335 332 333 333 337 339 339 339 342 348 349 350 342 335 333 333 333 334 336 338 340 342 343 344 344 345
346 349 350 348 348 350 348 342 340 334 333 331 335 336 340 338 339 337 338 334 336 335 335 341 339 343 346 349 351 341 336 331 329 329 329 330 333 334 336 337 337 339 343
345 349 348 348 348 348 348 346 340 338 333 331 335 337 340 341 343 342 343 341 333 335 334 336 340 342 345 349 347 336 346 330 327 326 326 326 328 329 331 332 333 334 335
343 344 345 346 346 347 348 349 347 343 340 335 338 343 343 343 345 343 342 338 331 326 326 334 335 346 347 346 345 347 345 327 328 326 325 324 324 325 326 326 327 329 330
334 335 336 338 339 340 342 344 343 344 341 343 343 344 343 341 342 341 337 337 334 330 324 334 338 343 345 344 342 344 341 331 324 323 324 323 322 322 323 323 324 326 327
330 330 331 334 333 334 338 339 339 338 337 338 339 338 336 339 336 338 337 332 329 329 324 333 338 342 342 342 342 340 340 343 334 320 318 316 314 314 314 317 320 322 324
327 327 328 328 329 330 335 334 332 332 332 332 331 334 333 334 338 341 338 334 330 330 330 332 336 339 338 340 339 339 340 340 340 320 316 315 314 314 314 315 315 314 313
325 325 325 327 328 328 330 332 331 330 331 331 330 331 333 335 336 338 340 338 333 332 331 329 330 335 335 334 336 338 338 337 334 321 317 316 315 315 315 316 316 315 313
323 324 325 325 326 328 327 328 329 329 330 329 331 333 331 332 335 337 339 339 337 333 334 332 332 333 332 333 333 334 332 332 333 331 321 320 319 317 317 318 319 319 315
324 324 325 326 327 328 326 329 330 330 330 329 331 331 331 329 325 328 334 340 341 335 334 333 332 331 328 327 329 335 332 334 333 333 330 332 332 333 330 321 323 320 315
325 325 325 326 326 322 309 311 317 323 323 325 328 330 330 326 325 316 316 316 328 338 338 338 335 331 331 330 332 333 332 328 327 333 331 330 332 335 335 335 317 312 311
325 325 324 322 322 322 307 306 307 320 321 323 324 327 327 324 326 331 322 315 315 311 317 341 338 333 332 334 334 333 332 331 330 331 332 329 331 332 335 329 313 310 307
322 320 320 320 320 319 305 303 304 319 319 320 323 326 328 330 330 329 332 335 339 338 327 327 338 338 337 339 336 336 335 334 332 332 334 328 333 331 334 333 311 310 308
319 318 318 318 318 318 302 300 306 316 315 317 320 324 327 330 316 304 328 333 335 335 315 311 312 309 309 312 323 333 330 329 326 328 331 331 329 328 328 331 331 309 306
317 315 316 317 312 317 302 299 306 313 314 315 319 324 310 320 307 301 324 330 333 334 325 327 327 317 314 315 308 337 334 328 328 326 332 330 328 330 325 332 332 331 330

GFSMA_sfc_thetae_078.txt.gz
Theta_e
349 346 346 344 345 342 343 341 339 341 345 349 350 350 349 350 350 349 347 350 347 346 347 349 351 355 358 357 356 355 353 351 350 349 348 348 348 349 349 350 350 348 347
352 346 348 347 345 344 341 341 340 341 346 348 350 353 352 351 351 352 348 349 349 346 347 347 349 352 356 359 357 355 352 351 351 349 348 348 347 348 348 349 350 349 348
355 351 346 346 344 347 348 346 345 345 345 348 349 351 351 352 351 351 351 350 349 347 347 348 347 349 351 358 359 356 353 351 350 349 348 348 347 346 347 348 349 349 348
352 352 345 345 347 347 345 343 342 342 346 347 348 349 350 351 350 350 350 350 348 350 351 349 347 347 348 352 359 359 354 351 349 348 348 348 347 346 346 347 347 347 347
353 351 346 345 351 345 343 342 341 345 343 345 344 349 351 350 350 346 348 349 350 351 349 351 348 346 347 350 353 358 356 353 349 348 347 348 348 348 347 346 346 346 346
353 354 349 351 351 346 342 343 348 343 343 343 341 346 350 349 349 348 348 347 348 350 349 352 351 349 348 348 349 352 356 355 352 349 347 346 347 347 347 347 346 346 346
354 356 349 353 353 349 350 353 346 346 342 346 344 346 346 349 349 345 347 346 347 349 349 347 346 346 348 348 347 349 352 356 355 352 347 345 345 347 347 347 347 346 345
353 355 352 352 353 349 353 351 349 340 340 344 343 339 332 337 341 348 347 348 348 347 347 347 349 350 349 349 353 348 348 351 353 353 349 345 345 346 346 346 346 346 345
353 355 356 355 354 352 347 354 351 347 335 345 353 341 333 325 335 342 348 345 351 345 348 348 349 348 349 350 346 349 347 347 349 352 350 347 346 347 346 345 345 345 345
353 353 357 354 356 351 349 350 349 349 347 339 348 347 344 340 332 328 339 342 346 349 353 348 345 346 348 348 350 347 344 343 346 348 350 349 348 348 347 346 344 344 344
353 351 353 353 353 349 350 353 351 349 345 343 342 338 333 333 333 333 326 331 339 339 345 345 345 345 350 349 350 347 341 340 340 342 345 346 348 348 347 347 346 345 345
350 353 351 353 351 353 354 353 354 351 347 343 340 336 330 327 326 326 326 331 336 339 340 343 345 343 345 346 350 343 338 335 334 335 337 340 342 344 344 344 345 346 346
348 354 356 355 352 356 356 357 354 350 346 341 341 335 338 330 331 332 332 335 336 337 338 343 342 343 345 346 349 343 339 333 331 330 331 334 337 337 338 339 340 340 341
351 360 355 355 356 356 356 356 353 349 350 345 343 340 336 338 338 338 339 337 336 336 334 343 341 343 344 349 346 339 347 333 330 328 328 331 331 332 333 334 335 335 335
346 353 356 355 354 354 354 354 350 350 349 346 342 341 338 338 347 348 344 343 337 329 328 334 335 352 348 351 350 351 352 327 329 327 328 329 327 327 328 329 329 330 332
348 350 352 352 352 352 352 352 352 351 347 340 339 341 345 342 343 346 342 340 339 334 328 334 340 340 345 349 349 348 349 332 326 325 326 324 323 323 323 324 326 328 329
341 340 341 343 345 346 348 349 348 346 346 346 346 344 343 345 346 339 339 337 336 337 330 330 333 344 345 346 350 348 345 344 338 321 319 317 316 316 316 318 321 324 327
335 333 333 334 335 336 339 340 340 339 340 340 340 338 336 335 339 340 335 339 338 339 334 330 334 336 338 342 344 344 341 343 344 320 317 316 315 315 316 316 317 316 315
328 327 327 327 327 329 333 334 331 331 332 331 331 331 331 333 335 334 336 335 335 340 339 334 334 336 338 336 336 339 342 342 340 322 318 317 316 316 316 316 317 316 314
326 326 327 326 326 327 329 330 329 331 331 330 330 331 329 329 331 333 335 337 338 339 339 337 335 332 335 337 336 333 335 338 338 337 322 320 320 317 318 319 320 320 316
325 325 325 325 325 326 325 327 328 329 331 330 331 329 330 327 322 324 326 332 336 336 337 335 332 332 334 331 328 333 334 342 337 341 336 334 334 333 328 320 325 322 317
325 324 324 323 325 323 311 316 325 330 330 329 326 325 327 325 324 316 315 316 324 334 335 334 332 334 339 337 331 337 338 334 332 339 335 333 335 333 335 337 319 316 312
330 328 326 326 327 327 307 308 310 327 325 325 325 324 323 319 321 325 317 313 313 310 317 337 338 338 334 337 338 336 338 336 337 337 335 332 334 332 334 329 314 310 310
330 330 330 329 329 326 304 303 306 323 323 324 324 324 325 325 326 326 327 328 328 333 338 332 334 341 341 345 342 336 341 341 339 336 337 332 333 331 333 332 311 309 308
329 330 328 328 327 325 302 301 308 320 321 322 322 323 324 323 311 304 329 328 326 330 320 312 311 308 309 309 326 336 336 334 329 330 335 335 331 331 334 333 330 310 308
326 325 326 326 318 324 300 299 306 316 318 318 322 323 308 316 306 304 328 329 325 328 335 337 329 320 318 324 310 340 338 329 331 331 334 332 331 331 328 333 331 330 329

GFSMA_sfc_thetae_081.txt.gz
Theta_e
355 349 349 344 343 340 340 343 341 343 342 346 348 348 348 349 350 348 348 352 350 349 349 350 352 354 356 357 356 356 355 354 352 350 350 349 349 350 350 350 350 349 349
357 348 349 344 343 343 342 343 342 341 341 347 350 351 352 351 351 351 347 351 352 350 350 351 351 351 353 356 358 356 355 353 353 351 350 349 348 348 349 350 349 349 349
359 352 348 347 346 348 357 351 350 345 341 344 348 350 351 353 350 351 350 351 349 349 350 350 351 350 351 353 356 358 355 353 352 351 349 349 348 348 348 349 349 349 349
357 354 347 349 349 350 347 343 342 340 338 341 348 346 350 352 349 351 349 351 350 349 350 351 350 351 351 352 354 358 357 353 351 349 348 349 348 348 347 348 348 348 348
353 354 348 348 356 346 346 343 343 342 341 344 342 345 348 346 348 346 348 352 354 354 356 350 351 350 350 352 353 356 358 355 351 349 348 348 348 348 347 347 347 347 348
353 354 349 350 352 347 345 345 347 344 342 340 338 340 347 348 348 349 348 349 351 356 356 352 352 348 350 352 352 353 356 356 354 351 348 347 347 348 347 347 347 347 346
356 352 350 351 352 348 348 352 350 349 342 345 338 340 341 354 355 349 348 346 350 352 355 354 351 347 347 351 350 351 352 355 355 354 349 346 346 347 347 347 347 346 346
357 350 350 351 353 349 354 354 351 344 344 344 337 337 332 340 344 348 347 347 352 357 349 353 354 354 355 350 349 349 350 352 355 354 351 347 346 347 347 347 347 347 346
357 359 358 356 356 353 347 350 352 347 337 343 350 341 336 330 341 347 352 346 351 349 347 350 354 355 356 353 350 349 347 348 353 353 351 348 348 348 347 346 346 346 346
356 358 358 358 360 354 352 350 354 352 348 339 345 353 347 342 335 333 340 343 344 347 350 350 349 350 352 351 351 349 344 343 349 351 350 350 350 350 348 346 345 344 344
358 356 358 360 360 356 356 356 357 355 350 344 343 345 342 337 336 331 327 330 335 338 343 341 347 346 348 351 350 347 341 340 342 344 345 347 349 350 348 346 346 345 345
352 357 356 358 360 358 357 354 357 355 350 348 344 346 340 333 331 330 327 330 330 332 334 341 341 346 349 348 347 340 339 338 336 337 339 341 345 346 346 346 346 347 347
353 354 357 356 356 358 357 356 358 355 352 348 348 343 342 339 339 335 331 328 326 329 331 341 346 345 347 347 348 343 343 336 333 332 333 335 337 340 341 342 342 342 342
354 360 357 356 358 357 357 361 360 358 353 349 349 349 343 341 340 337 333 329 327 331 337 338 343 343 346 353 352 339 346 335 332 330 330 332 335 336 336 337 337 337 336
353 358 358 358 356 357 360 361 356 353 356 354 352 352 348 344 341 340 339 337 337 329 331 337 342 348 348 348 347 346 346 332 331 328 330 331 332 330 330 331 331 332 332
357 354 359 359 358 357 356 357 355 355 353 350 350 350 347 342 342 341 341 342 345 340 331 337 339 344 347 343 345 341 344 333 328 327 327 326 325 324 325 325 327 329 329
356 350 353 355 352 353 354 354 354 350 349 350 349 345 342 347 343 343 347 348 345 340 334 336 340 342 344 340 343 342 344 349 338 325 323 320 318 318 318 319 321 325 328
343 348 347 347 345 345 351 348 346 345 343 344 345 345 342 344 346 346 340 346 339 340 334 334 338 338 343 343 339 338 345 349 344 323 320 318 316 316 317 317 317 317 318
343 340 339 338 337 338 340 342 342 340 342 343 342 342 340 341 342 338 341 336 335 338 338 334 334 339 339 343 339 339 338 342 341 324 319 317 317 316 317 317 317 316 314
336 334 335 331 331 331 334 335 335 336 336 337 338 336 333 333 335 338 337 341 338 336 334 332 335 335 337 341 340 335 335 340 336 339 325 324 319 317 317 318 320 319 317
330 328 327 326 329 330 329 333 333 334 337 335 335 330 332 327 322 324 326 333 338 332 328 329 328 330 332 339 335 338 330 340 341 344 340 332 331 328 327 319 325 322 319
330 328 328 325 330 323 310 314 329 335 334 332 332 331 330 323 322 317 315 315 324 334 333 328 327 328 337 336 343 329 330 331 331 345 340 337 338 335 335 334 318 319 314
333 331 330 329 330 332 307 309 316 334 335 335 332 329 324 320 319 322 315 312 313 311 315 334 336 336 337 342 339 334 329 329 329 341 341 334 339 334 332 322 315 312 312
335 334 330 330 330 328 305 307 313 336 334 332 331 328 328 326 326 324 324 325 329 333 335 329 332 340 345 347 345 340 332 331 336 338 339 332 342 336 332 329 311 309 309
333 333 333 331 333 325 302 303 314 330 328 326 325 326 326 325 310 302 323 325 328 333 322 313 312 306 306 307 316 337 327 325 328 335 341 338 337 335 334 332 325 310 309
329 327 331 334 326 323 300 301 312 319 326 321 327 326 309 317 306 302 323 324 324 330 329 332 338 328 317 326 311 339 331 327 330 332 340 336 337 337 331 332 330 326 324

GFSMA_sfc_thetae_084.txt.gz
Theta_e
352 348 347 345 342 340 337 339 337 337 340 342 343 345 345 346 349 348 348 352 350 350 353 355 355 356 356 356 356 355 354 354 353 351 349 349 349 349 350 350 349 349 349
353 349 349 350 341 340 338 338 343 346 342 342 345 350 351 351 351 351 348 349 351 351 352 354 355 356 356 356 356 356 354 354 353 352 350 349 348 348 349 349 349 349 348
355 347 346 347 346 343 350 342 347 345 345 341 345 352 351 352 351 351 351 348 349 350 351 352 352 354 354 356 356 355 355 353 352 352 350 349 348 348 348 349 349 349 348
354 348 344 345 345 350 350 348 346 342 340 340 341 346 349 350 352 351 351 348 348 349 349 350 351 352 353 355 356 356 355 354 351 350 349 349 349 348 347 348 348 348 348
351 348 344 344 349 349 347 345 345 342 339 339 342 346 349 349 349 346 346 348 350 346 350 350 351 351 352 353 356 356 356 355 353 350 349 349 348 348 347 347 347 347 347
350 351 345 346 350 346 345 344 342 342 341 342 339 337 346 348 349 349 347 348 348 350 351 349 348 350 350 352 354 356 357 355 354 353 350 347 347 347 347 347 347 347 346
350 347 347 349 347 344 343 344 343 343 338 343 340 339 342 348 348 348 350 347 346 348 350 346 348 345 346 350 350 351 355 357 355 354 351 347 346 346 347 347 346 346 346
351 347 347 343 344 342 343 345 341 338 341 343 336 336 330 336 346 350 347 346 344 348 350 350 348 348 349 348 346 348 351 354 355 354 351 347 346 347 347 347 346 346 345
353 349 348 344 343 343 342 343 346 342 336 338 343 336 330 329 338 346 347 347 345 345 344 344 344 347 349 348 336 337 345 347 351 352 352 349 348 348 348 347 346 345 344
354 350 349 348 345 345 343 345 346 344 342 336 338 341 346 341 332 331 341 343 341 339 341 342 342 348 349 341 341 341 339 342 347 349 351 351 351 350 349 348 346 345 344
353 352 351 350 346 346 348 346 345 347 344 339 338 345 340 338 336 331 325 332 335 336 334 338 338 345 343 341 336 331 336 337 340 342 346 349 350 351 350 349 347 345 345
351 352 352 352 353 349 351 349 351 349 347 343 340 345 339 334 331 329 327 327 327 329 333 334 334 339 343 341 343 342 338 336 336 337 338 340 345 346 346 347 347 347 347
348 349 349 350 351 351 351 352 349 350 349 346 343 342 343 338 338 333 330 326 324 327 328 331 332 340 343 346 345 341 341 336 333 332 334 335 338 339 341 342 343 344 343
345 349 351 350 351 352 352 351 349 348 350 346 346 343 343 340 339 337 332 328 324 326 330 332 340 340 343 345 345 339 342 335 333 330 329 332 334 336 336 336 336 336 336
348 347 351 350 351 351 352 350 348 347 348 347 346 347 344 342 341 340 339 334 328 322 324 333 334 342 343 343 343 342 341 333 331 329 329 329 333 331 330 330 330 331 331
347 348 348 350 350 351 352 350 348 349 350 349 347 344 343 342 342 341 339 337 337 333 327 334 335 340 341 344 344 340 338 331 329 328 328 326 325 325 325 325 326 327 328
346 346 349 350 348 350 349 348 347 348 345 345 345 344 342 345 339 339 339 340 339 339 333 332 335 339 337 337 341 340 340 337 330 326 326 323 320 320 319 320 321 323 326
344 346 333 337 346 342 337 341 342 345 344 345 344 344 342 341 341 342 341 339 337 337 333 329 332 333 337 339 338 335 337 342 337 328 324 321 319 317 317 318 318 317 317
344 333 328 325 322 324 325 329 339 343 343 345 344 343 342 342 340 340 336 335 336 335 332 330 328 333 334 336 336 336 335 336 338 329 321 320 317 316 316 316 316 315 313
335 323 323 323 324 320 320 331 340 341 340 341 342 340 339 338 336 336 335 334 334 332 330 328 329 329 330 332 335 331 330 333 333 335 327 324 318 316 316 317 318 318 315
324 328 322 323 331 321 330 334 334 334 337 337 338 337 337 329 322 323 328 328 326 323 326 325 325 327 327 326 328 329 328 329 331 333 330 327 323 320 318 317 321 320 318
319 323 329 322 322 333 316 316 327 332 334 332 330 331 327 321 319 315 314 314 319 324 322 322 321 320 323 327 328 328 327 324 320 333 330 329 330 327 326 325 319 315 318
325 328 326 326 326 325 310 310 318 331 332 331 330 331 324 324 322 327 314 311 311 309 314 325 323 324 327 329 330 329 328 326 324 327 329 327 331 329 332 319 313 312 311
320 329 328 327 327 324 306 307 314 332 332 333 331 329 326 325 323 323 323 323 325 327 323 320 321 324 327 334 333 331 327 328 327 329 331 323 329 327 324 321 310 308 310
315 330 331 330 328 316 302 306 319 331 328 328 328 328 328 326 305 305 321 320 321 324 323 314 307 306 305 307 313 328 328 322 321 324 329 326 325 325 325 320 314 308 309
314 321 331 330 320 320 300 304 320 325 325 324 326 327 309 319 307 303 319 321 320 322 326 327 326 322 311 320 306 327 331 322 322 322 329 325 324 325 321 327 320 313 313

GFSMA_sfc_thetae_087.txt.gz
Theta_e
342 341 340 340 339 335 334 330 329 329 328 328 330 333 336 336 338 341 337 352 350 350 353 355 356 355 355 355 354 354 353 353 353 352 350 349 349 349 350 350 350 349 349
345 342 339 338 338 335 332 330 329 329 329 332 332 334 340 342 343 343 343 345 350 350 352 355 356 357 357 357 356 354 353 352 353 352 350 349 348 348 349 350 350 349 348
344 344 337 340 338 335 332 329 332 332 332 332 332 337 341 343 344 344 344 342 344 350 350 352 353 355 356 357 357 356 353 352 352 351 350 350 348 347 348 349 349 349 348
345 345 339 339 338 334 335 332 330 333 334 332 330 334 342 342 343 343 343 343 341 344 349 351 352 353 354 356 357 357 354 352 351 350 349 349 349 348 348 348 348 348 348
346 345 342 338 340 336 333 337 334 333 330 329 330 331 335 341 342 345 343 340 339 342 342 347 349 350 352 354 356 358 356 352 351 350 350 349 349 349 348 348 348 347 347
348 346 342 339 341 340 336 339 337 335 333 332 332 332 335 338 339 339 339 342 341 343 340 344 343 345 349 352 354 356 357 356 353 352 350 348 348 348 347 347 347 347 347
346 346 343 339 341 338 337 336 336 333 332 333 332 330 332 338 338 342 342 339 340 340 342 343 342 342 342 349 349 352 355 357 356 353 349 347 347 347 347 347 347 346 346
346 345 345 342 342 341 337 337 336 333 333 334 328 325 321 324 333 337 340 340 338 339 341 343 342 342 340 342 344 347 349 347 348 351 350 345 346 347 347 346 347 346 346
347 345 344 343 341 341 339 338 336 333 331 334 332 326 320 317 326 337 338 338 338 339 340 340 338 339 343 344 339 337 341 341 344 350 350 346 348 349 348 347 346 346 346
347 345 344 343 341 340 338 337 338 335 332 331 331 334 335 332 324 324 335 337 338 338 337 339 334 335 340 339 341 342 338 336 343 346 347 349 350 351 349 347 346 344 345
348 347 345 343 341 339 337 338 338 340 337 332 331 332 334 333 331 326 323 329 332 333 332 330 331 333 338 341 338 335 332 336 337 339 341 345 349 349 349 348 347 344 346
346 347 348 345 343 340 340 340 340 341 340 336 335 335 332 331 329 326 322 322 325 325 328 330 330 331 334 338 341 339 336 334 333 334 335 339 342 345 347 347 347 346 346
341 343 345 345 341 341 342 343 340 339 341 339 337 336 338 335 330 329 324 321 321 322 323 326 327 328 331 340 341 339 339 334 331 330 331 333 335 338 340 342 342 343 344
339 343 342 343 341 340 341 342 341 343 341 341 339 336 340 338 334 329 325 322 319 319 323 323 330 332 335 340 340 338 338 333 332 329 329 329 331 333 334 334 334 335 335
341 340 342 341 341 336 338 346 343 343 344 344 342 339 337 339 333 332 330 327 321 316 317 323 328 334 337 335 337 336 337 333 331 328 328 328 330 328 328 328 328 328 329
338 340 341 342 341 341 343 346 345 344 343 345 343 341 339 337 335 333 333 331 329 323 320 326 329 332 336 337 339 335 336 332 329 328 327 326 325 324 324 323 324 325 326
333 338 341 341 340 339 341 342 343 342 342 341 343 341 340 339 335 336 335 332 331 330 326 327 330 331 331 330 333 333 335 332 332 325 327 324 321 322 322 320 319 320 323
328 333 339 339 338 336 325 324 333 340 330 338 340 340 339 340 335 335 334 332 333 332 329 327 325 327 329 331 332 330 332 336 334 328 324 322 319 319 318 318 317 316 317
327 332 335 330 326 331 323 324 323 323 324 321 332 336 336 337 333 334 334 333 331 330 328 325 323 326 328 329 329 328 329 329 333 331 322 319 318 317 318 316 316 315 313
319 326 324 322 321 322 323 325 323 322 320 320 324 331 333 334 333 333 331 329 328 326 324 323 321 322 323 324 327 326 324 327 326 333 327 322 319 317 315 316 317 316 313
320 324 321 319 318 319 322 322 321 321 319 320 326 332 334 332 329 329 330 324 317 315 317 317 316 317 318 319 320 323 322 326 324 327 324 325 321 320 316 316 319 318 315
317 322 319 321 316 322 311 311 320 326 330 331 330 331 326 323 319 316 316 313 313 313 311 311 310 310 311 317 320 321 319 317 315 325 324 326 327 326 323 319 316 315 314
312 315 316 322 317 319 307 307 313 328 329 329 330 321 320 320 317 315 310 310 310 310 312 314 312 313 315 320 322 320 320 319 317 322 326 320 328 326 327 325 312 310 309
311 313 314 320 319 323 306 307 307 323 327 326 323 320 317 316 317 319 316 316 316 317 315 313 314 316 318 319 323 325 323 321 321 322 324 318 325 324 324 321 310 308 308
313 312 315 317 318 320 308 303 308 324 325 323 323 320 318 316 304 306 313 311 312 313 316 313 309 306 305 308 313 324 321 317 314 317 326 324 323 323 321 318 311 308 308
313 315 315 316 318 321 305 304 314 325 321 320 319 317 311 313 300 304 311 311 310 312 315 318 316 309 306 312 305 320 324 322 315 315 323 321 323 322 321 320 313 312 311

GFSMA_sfc_thetae_090.txt.gz
Theta_e
345 343 342 341 339 336 334 330 328 328 326 325 325 326 326 329 331 333 336 349 350 351 354 356 355 355 355 354 353 353 352 352 352 352 350 349 349 349 350 350 349 349 348
345 343 341 339 338 335 334 330 328 326 324 324 324 327 329 333 336 337 339 338 350 349 351 355 356 357 357 357 355 353 352 351 352 352 351 350 349 349 349 350 350 349 348
346 345 342 339 337 336 333 327 326 325 324 325 326 328 330 334 339 341 342 341 344 349 349 351 354 356 357 358 357 355 353 351 351 351 350 350 349 348 349 349 349 349 348
347 345 341 339 338 335 333 329 326 326 326 327 326 328 331 336 338 340 340 340 340 342 347 350 352 354 355 357 357 357 354 351 350 350 349 349 349 349 348 348 349 348 347
349 345 344 340 339 335 332 331 327 325 327 328 329 328 329 333 338 341 341 340 339 339 340 346 350 350 352 355 357 358 356 353 350 349 350 350 350 349 348 348 348 347 347
349 344 343 342 336 337 333 331 328 328 328 330 331 329 328 330 334 339 340 342 339 339 339 340 342 345 348 351 354 356 358 356 353 351 350 348 348 349 348 348 348 347 347
347 346 344 342 337 336 336 330 332 331 329 330 325 325 328 329 332 334 338 337 338 339 339 338 340 339 341 347 348 352 356 357 356 354 349 346 347 348 347 348 347 347 346
344 345 345 343 340 339 336 336 333 331 331 331 326 324 321 323 327 334 337 338 336 337 338 340 339 339 339 339 341 346 351 353 350 346 344 344 346 347 347 346 347 346 345
345 344 343 345 343 341 339 337 336 334 331 329 329 326 319 317 320 330 334 336 337 336 336 338 340 339 339 341 344 343 342 343 344 345 346 345 346 346 347 347 346 346 346
346 345 342 341 343 341 340 338 338 336 334 329 329 330 329 324 322 322 332 335 336 335 336 336 337 336 335 339 343 343 339 336 338 344 345 346 348 348 348 346 346 345 346
342 346 344 342 340 340 339 340 338 336 335 332 331 327 328 331 329 324 322 329 332 335 334 335 332 331 334 338 338 337 333 334 336 338 340 341 344 346 348 347 347 346 346
336 340 343 343 343 341 338 338 338 336 336 334 332 331 330 327 327 325 321 322 326 328 330 330 329 331 332 333 338 337 335 334 332 332 333 336 339 342 343 346 347 347 346
330 332 339 340 341 342 341 339 338 336 337 336 335 332 331 332 331 329 324 320 321 323 322 325 327 327 328 329 334 338 337 332 331 329 329 331 334 336 338 340 341 343 343
327 329 333 339 340 339 339 335 327 326 326 328 330 336 333 332 332 327 326 322 318 318 320 322 327 326 326 332 338 337 335 332 330 328 326 328 329 332 333 333 334 334 334
324 325 327 334 338 339 337 334 330 326 326 326 328 336 335 336 336 331 328 325 323 315 316 321 325 331 334 336 336 335 334 332 331 326 325 325 326 326 327 328 327 327 328
322 323 323 325 331 338 335 332 329 327 326 329 335 337 338 337 338 332 331 327 326 322 318 323 328 329 334 334 335 334 334 332 328 326 325 324 323 323 323 323 323 324 325
318 319 320 322 326 332 334 329 325 327 329 334 338 339 338 337 336 334 332 330 327 325 323 324 328 330 329 330 332 333 333 330 329 323 324 322 320 319 320 319 319 319 320
317 318 322 321 325 329 332 333 333 335 334 333 320 321 320 324 321 335 334 330 329 329 326 323 326 326 327 328 328 328 330 333 332 328 322 321 319 318 317 317 316 315 314
318 315 317 318 320 324 330 325 326 325 325 324 322 322 321 322 319 322 333 330 328 330 329 326 324 324 326 326 326 326 327 326 330 331 321 319 317 316 316 315 314 313 311
315 315 317 318 321 324 329 327 323 323 323 321 322 320 324 322 322 326 325 331 330 329 325 325 322 322 321 320 324 322 322 324 324 331 326 320 317 317 315 315 315 314 311
315 316 317 320 322 323 326 323 322 322 321 322 321 321 323 322 321 321 330 329 327 322 320 320 316 315 316 316 317 319 320 319 321 324 322 322 318 318 316 315 318 316 311
311 314 316 319 319 320 312 312 320 323 324 323 320 320 322 319 318 317 318 319 322 318 314 312 310 309 308 312 317 318 317 315 313 321 321 321 321 320 323 318 314 311 310
307 310 312 314 320 317 307 306 310 320 319 319 318 319 322 325 323 327 313 313 311 310 312 309 307 307 309 313 317 316 317 315 315 318 321 317 326 322 326 323 310 308 307
309 308 309 312 318 319 307 305 306 325 324 324 323 324 325 322 323 321 315 313 314 313 312 315 313 313 316 317 319 319 319 318 318 319 320 313 321 322 323 319 309 306 305
307 308 311 311 315 315 307 304 305 318 324 325 326 325 322 319 305 304 316 313 311 312 314 308 307 304 303 305 313 321 319 317 313 315 320 318 319 320 319 317 312 306 305
309 311 311 313 312 313 305 304 306 315 319 323 321 319 309 314 301 302 311 310 307 309 315 316 314 310 307 309 304 319 319 321 320 313 320 315 318 322 318 319 313 311 310

GFSMA_sfc_thetae_093.txt.gz
Theta_e
344 344 343 340 341 337 336 332 331 328 325 324 323 322 321 322 325 328 329 343 348 351 354 357 358 357 355 354 352 352 352 352 351 351 351 351 350 350 350 350 350 349 349
344 344 342 340 339 337 335 331 328 326 324 322 321 321 323 324 327 330 334 337 346 350 352 354 357 357 357 356 355 353 352 351 351 351 351 350 350 350 350 350 350 350 348
344 344 342 340 339 336 332 329 325 324 322 322 321 321 323 324 328 332 338 340 339 349 349 350 354 356 357 358 358 356 353 351 351 350 350 350 349 349 349 350 350 349 349
346 343 343 341 340 335 332 329 326 324 323 321 321 322 324 327 329 333 337 340 340 340 346 350 351 354 356 357 358 358 355 352 350 349 349 349 350 349 349 349 350 349 348
348 344 343 343 339 336 333 331 329 323 320 321 323 324 324 326 331 336 337 339 339 339 339 344 350 350 353 355 357 358 357 353 350 349 349 349 350 350 349 349 349 349 348
350 347 345 344 341 338 335 333 330 325 322 325 328 327 326 326 329 332 335 339 340 340 338 338 338 344 349 351 353 356 357 357 353 351 350 348 349 350 349 349 348 348 348
350 348 346 344 340 337 336 333 330 329 327 327 324 322 324 327 327 330 333 337 338 339 339 338 338 339 340 347 348 351 354 357 357 353 346 346 347 348 349 349 347 346 347
344 345 345 344 341 338 336 335 331 330 330 329 324 320 317 321 325 329 331 335 336 337 338 339 337 337 338 338 339 344 349 353 354 348 342 341 343 346 348 347 346 346 346
343 344 344 342 341 338 338 336 335 332 330 330 331 326 317 317 319 325 330 333 335 336 336 336 337 338 338 338 342 344 345 345 344 345 345 344 345 347 347 346 345 346 346
343 343 342 341 342 342 339 339 338 335 335 331 328 331 326 322 318 317 329 332 335 336 335 335 336 337 338 337 340 343 340 339 341 344 345 345 346 346 347 346 345 345 345
337 342 342 341 341 341 342 340 339 337 336 334 332 327 328 327 327 322 316 325 332 335 337 336 336 335 333 335 336 336 336 334 336 338 339 340 342 343 345 347 346 345 344
329 334 337 338 340 340 339 340 339 339 336 335 333 332 328 325 325 326 321 322 323 329 330 331 333 331 331 332 336 336 333 332 332 332 333 334 337 340 343 344 343 346 346
324 326 329 332 335 339 339 339 338 337 337 334 334 332 331 329 330 328 326 321 320 324 323 324 329 330 331 329 328 335 337 332 330 329 328 330 332 336 337 339 340 340 342
319 323 325 328 331 334 336 338 339 337 337 332 330 328 327 327 329 332 327 325 318 317 318 322 324 325 325 325 329 336 335 331 327 325 326 327 329 331 333 334 335 334 333
319 319 322 323 325 330 333 335 335 336 335 334 333 330 326 327 328 329 331 329 324 319 319 321 322 328 327 328 334 335 333 331 329 326 325 325 326 326 326 326 327 328 328
316 319 321 320 319 321 325 330 333 334 331 331 330 329 328 327 326 330 332 329 328 325 320 322 322 327 332 333 335 333 332 330 328 325 325 324 323 322 322 322 323 324 326
316 319 318 318 318 320 322 325 328 331 331 330 329 327 327 326 327 332 335 331 329 327 323 323 326 327 329 330 331 334 332 330 328 324 324 322 320 320 320 319 320 320 321
311 314 317 318 320 320 321 323 324 328 328 327 326 325 327 326 322 323 327 329 329 328 325 323 325 325 326 327 328 328 330 331 329 328 322 320 318 317 317 318 316 316 315
309 312 316 315 315 317 318 319 323 325 328 326 326 326 328 323 320 322 322 321 324 330 328 326 324 324 325 324 324 325 325 325 328 330 321 318 317 316 316 316 314 313 311
307 309 312 316 317 316 317 319 320 324 325 328 330 326 325 323 323 323 324 323 324 324 327 327 323 321 322 321 322 321 319 322 324 328 326 321 317 316 315 315 315 313 309
304 306 308 312 315 315 318 319 320 322 324 324 325 326 326 326 325 325 325 322 322 320 321 324 322 319 317 316 318 318 319 317 318 321 320 322 319 318 316 315 318 315 310
301 303 305 307 310 314 312 310 314 321 324 323 322 322 323 321 318 316 318 318 322 323 324 324 321 316 315 315 316 317 315 314 313 317 318 318 322 317 317 317 314 310 308
300 301 303 307 310 311 308 305 307 315 321 321 321 321 321 322 317 319 313 312 314 315 320 323 318 313 310 311 316 314 314 313 313 315 318 315 324 323 325 322 310 307 307
298 299 301 307 310 311 305 302 303 312 319 318 320 320 319 320 319 319 320 320 321 319 319 317 318 313 312 314 317 317 316 315 315 317 318 313 322 322 321 317 308 307 306
299 301 303 305 307 310 305 300 304 314 316 317 317 318 320 321 310 307 318 316 315 315 311 308 307 305 303 305 313 323 319 319 318 315 317 316 315 319 320 316 312 308 304
300 300 302 308 308 309 304 300 306 313 315 315 321 321 311 317 302 304 316 314 312 314 316 313 311 306 305 306 313 317 316 314 314 312 316 315 318 319 316 317 313 313 310

GFSMA_sfc_thetae_096.txt.gz
Theta_e
344 345 345 343 343 341 339 336 334 333 331 329 327 326 325 324 325 328 332 339 345 349 352 354 357 357 356 355 353 352 352 351 351 350 350 350 350 351 351 351 350 349 349
344 344 344 343 342 341 339 336 332 331 329 327 326 326 326 326 327 330 333 337 343 346 351 355 358 358 359 357 355 353 351 350 351 350 350 350 350 350 351 351 350 350 349
345 344 343 342 342 340 338 335 331 329 326 326 325 326 325 327 326 329 334 338 341 345 349 351 354 356 358 359 358 356 353 351 351 350 349 349 349 349 350 351 351 350 349
347 344 342 341 342 339 337 335 332 329 326 325 324 325 326 328 330 332 334 337 342 344 346 351 351 353 355 358 359 359 355 352 351 350 349 349 349 349 349 350 350 350 349
349 344 343 343 342 340 337 336 332 331 329 325 324 326 328 328 330 332 335 338 342 344 345 346 349 350 352 355 358 359 357 353 351 350 349 349 349 349 349 348 349 350 349
349 346 345 344 342 340 337 335 335 330 331 330 327 328 329 330 331 331 332 335 340 343 345 345 345 346 349 352 354 357 358 356 353 352 349 348 348 349 348 348 348 349 349
350 348 346 345 342 339 339 336 335 333 330 329 327 327 327 330 331 331 333 335 337 340 345 345 344 344 345 348 349 351 355 357 356 354 349 346 345 345 347 348 348 349 348
346 347 346 344 340 338 338 337 334 333 333 331 328 325 324 328 328 331 332 333 335 338 340 343 344 344 345 345 345 345 350 353 355 352 344 341 341 345 346 347 348 346 346
343 344 345 341 338 339 337 338 336 333 331 333 331 330 321 319 324 328 330 332 334 334 337 341 343 343 344 345 343 345 345 346 351 349 345 343 345 346 347 347 346 345 344
342 344 343 343 342 338 336 336 339 337 334 331 332 333 332 328 322 321 330 334 334 333 336 337 340 342 345 346 345 344 340 341 344 345 345 345 346 345 345 346 346 344 344
339 342 343 343 341 341 339 339 339 339 337 335 333 332 330 329 328 323 322 323 334 338 339 339 341 342 344 344 343 340 336 336 337 338 339 341 341 342 343 346 345 344 343
325 330 338 341 341 340 340 340 340 340 338 337 336 334 331 327 326 326 325 326 327 333 336 338 339 341 343 341 340 336 332 332 331 332 334 335 336 339 341 343 344 343 344
319 323 328 331 334 338 339 340 339 338 338 337 336 335 335 332 331 330 327 327 324 332 332 330 335 340 340 338 337 336 335 331 329 327 330 330 332 335 337 339 341 342 343
315 319 323 326 329 333 336 338 338 338 338 337 336 336 337 334 332 330 328 325 324 325 325 330 330 334 338 337 335 332 338 330 326 323 326 326 329 331 333 333 335 335 335
314 317 320 322 325 329 332 333 334 336 337 336 335 335 335 334 333 332 330 329 325 320 322 328 328 333 334 333 334 337 341 330 325 322 324 324 327 327 327 327 328 328 329
312 314 316 319 322 323 324 327 329 332 333 334 334 333 332 333 330 330 329 328 327 324 319 327 328 334 334 333 335 340 340 330 326 325 325 323 324 324 324 324 324 325 326
308 309 313 316 319 320 320 320 322 326 328 330 331 330 330 331 331 330 329 327 326 326 322 323 330 332 334 336 336 340 338 339 337 324 324 322 320 319 320 321 321 321 322
306 307 309 312 314 318 320 321 320 323 325 325 327 329 329 329 329 329 327 326 327 329 326 323 329 330 331 333 336 336 337 337 337 327 323 320 317 316 317 317 316 315 315
303 303 305 308 311 315 317 318 318 319 321 325 326 327 327 327 326 327 328 328 329 330 329 328 326 328 329 329 330 332 334 336 335 330 322 318 316 315 316 316 314 313 311
300 301 303 307 309 311 315 318 318 318 319 321 324 326 326 327 326 326 326 325 324 324 326 325 325 324 326 329 329 330 330 332 333 334 327 323 320 316 315 315 314 314 310
301 302 303 304 305 306 309 314 316 316 318 320 321 323 326 327 325 326 327 327 326 324 322 321 322 322 323 322 326 327 329 329 329 331 331 325 322 322 319 315 317 315 310
299 299 300 301 302 304 303 305 310 314 317 318 319 320 324 324 323 318 319 320 325 324 321 321 320 320 324 325 326 326 324 324 323 326 329 326 324 322 323 321 314 309 308
298 298 301 301 302 303 301 302 305 311 314 316 318 319 322 325 323 325 316 314 314 314 319 324 322 323 324 322 322 324 324 323 324 324 327 324 327 326 328 323 309 307 307
297 297 298 300 301 302 301 301 303 310 313 315 317 320 322 322 323 324 324 322 322 321 319 324 326 326 326 322 327 327 325 325 324 325 328 324 326 325 321 318 308 307 306
297 297 298 299 301 302 301 300 302 311 313 314 318 320 322 321 311 307 323 320 321 322 312 310 312 307 305 306 316 323 321 323 321 324 327 325 322 320 320 315 312 307 305
298 298 298 299 301 303 303 299 301 309 313 313 317 319 309 318 304 303 320 320 319 317 314 311 309 305 308 310 310 326 326 324 322 321 327 324 319 321 316 316 312 310 310

GFSMA_sfc_thetae_099.txt.gz
Theta_e
350 350 350 349 349 348 347 346 344 342 340 339 337 335 332 332 332 331 331 341 343 346 348 351 356 358 358 356 353 353 352 351 351 351 350 350 351 351 352 351 350 350 349
351 350 351 350 349 349 348 347 345 343 340 338 336 336 335 333 333 333 331 333 341 344 348 352 357 359 359 358 356 354 352 351 351 351 350 350 350 350 352 352 351 350 349
353 352 349 348 349 351 352 350 348 345 342 340 338 336 335 335 333 333 334 332 333 343 346 350 354 357 359 360 359 356 353 351 351 350 350 349 349 349 350 352 352 350 349
353 352 349 348 349 350 349 348 347 345 344 342 340 339 337 337 336 336 335 335 334 336 345 349 352 354 356 358 360 359 356 352 351 350 349 349 349 349 349 350 350 350 348
355 353 350 349 351 349 348 347 346 345 344 345 343 342 341 340 340 337 338 338 340 340 341 347 349 351 352 355 358 359 358 354 351 351 350 350 350 349 349 349 350 349 349
353 354 352 351 351 349 349 347 346 347 343 341 341 341 343 342 342 340 340 341 340 339 344 348 349 350 349 352 354 357 359 357 353 351 350 349 349 349 349 349 349 348 349
354 356 352 353 353 350 349 345 345 336 339 341 333 337 340 343 341 342 342 342 342 340 341 345 348 348 350 348 350 352 356 358 357 354 350 347 348 349 349 347 346 348 347
355 355 356 354 352 347 343 344 335 333 336 340 333 337 328 334 339 340 342 341 342 341 339 344 347 350 351 350 352 348 351 354 358 355 350 347 345 344 344 346 346 347 347
353 355 356 353 352 342 338 334 336 335 331 333 337 332 327 324 330 338 340 339 344 340 342 344 345 348 352 350 350 350 346 347 352 355 350 344 344 346 347 347 346 346 346
350 351 351 351 350 347 345 341 340 341 338 332 338 339 340 337 326 324 334 337 341 342 345 341 342 345 348 349 351 348 344 343 348 351 349 347 347 347 346 345 346 346 345
338 343 349 351 351 349 347 345 344 341 339 334 333 335 334 334 332 326 323 326 336 339 343 344 344 345 349 350 351 348 339 338 340 342 343 345 344 342 342 344 347 344 342
324 331 334 342 347 347 348 347 347 345 343 342 340 339 336 333 330 329 326 326 328 334 339 343 344 346 347 348 350 342 335 334 333 333 336 339 339 339 339 341 344 344 343
318 322 326 328 331 340 344 345 345 345 346 346 344 339 339 338 336 333 333 331 328 331 334 338 341 343 345 347 348 340 336 330 329 329 330 332 335 337 337 339 340 341 342
315 320 321 324 327 329 334 343 340 340 344 341 342 343 338 339 342 339 334 330 328 327 328 333 337 339 342 346 346 335 343 329 327 324 325 328 331 333 335 336 337 337 336
313 315 317 319 321 324 328 335 334 339 341 340 340 341 338 338 343 339 338 337 332 326 326 330 328 337 340 343 343 346 346 333 328 323 323 326 327 329 330 329 330 331 331
312 312 313 314 316 319 323 328 331 336 337 335 333 338 339 335 339 340 335 335 335 331 326 331 332 337 342 340 341 342 345 332 326 322 326 325 324 325 325 326 326 327 328
309 309 310 311 313 314 317 321 325 328 329 332 335 335 336 339 330 332 335 332 331 333 328 329 334 339 338 340 342 342 342 342 340 323 326 323 321 321 321 322 323 323 323
307 307 309 309 310 311 314 315 317 322 325 326 329 332 331 331 335 336 334 330 329 329 328 325 333 333 334 341 344 344 343 342 344 327 324 321 318 318 317 318 319 317 316
305 305 306 306 306 307 308 313 315 318 323 326 326 328 331 333 333 329 336 333 327 329 333 332 330 334 334 338 336 341 342 342 343 330 321 319 317 316 316 316 314 313 312
302 303 303 303 305 306 307 310 312 315 318 322 325 327 328 329 331 332 332 333 329 327 329 327 331 332 332 335 337 334 333 339 341 339 331 327 321 316 315 316 315 314 310
303 303 302 303 303 304 305 306 308 310 315 318 321 322 325 325 322 326 328 331 333 326 326 327 330 330 327 329 331 332 334 338 342 340 337 330 329 327 324 316 320 316 310
303 302 301 301 301 303 301 302 304 305 308 310 312 318 321 320 321 315 315 318 326 326 325 325 332 328 329 328 329 332 333 334 330 339 336 332 330 327 329 330 317 310 307
301 300 300 300 300 300 300 300 302 305 305 307 307 312 316 320 319 323 317 314 316 315 322 333 329 331 329 330 331 332 333 331 331 333 337 331 328 328 331 327 309 307 306
300 300 300 300 299 300 299 298 300 303 306 308 307 310 318 318 322 322 325 325 323 325 328 326 330 329 333 333 335 334 333 333 333 332 337 326 328 327 326 324 307 306 305
303 300 300 300 299 299 298 298 300 304 305 309 310 315 318 318 313 305 322 321 322 322 320 314 314 311 310 309 324 334 324 323 323 326 333 329 327 323 321 316 315 307 305
301 301 300 300 300 301 299 297 299 303 305 309 313 315 308 313 307 303 319 320 319 321 324 319 316 313 314 316 312 332 326 323 326 324 331 327 324 323 317 316 315 312 311

GFSMA_sfc_thetae_102.txt.gz
Theta_e
352 351 348 347 346 346 345 346 344 343 343 342 340 337 336 336 336 334 333 345 342 344 344 346 352 357 358 358 356 355 355 354 353 352 351 351 351 352 352 352 351 351 349
354 353 353 353 351 349 347 346 345 344 344 341 339 340 339 337 336 337 334 334 344 344 345 348 350 356 360 359 357 355 353 352 352 351 350 350 350 350 352 352 352 351 350
358 356 353 353 354 356 358 356 354 351 348 345 343 343 342 342 339 338 337 335 334 342 345 347 351 354 358 360 359 357 354 353 352 351 350 349 349 349 350 352 352 352 350
358 356 353 352 354 355 354 353 352 351 350 349 349 349 349 349 348 346 343 340 336 333 341 347 351 353 356 359 360 360 357 354 352 351 350 350 350 349 349 350 352 352 349
354 354 353 353 357 353 352 351 350 351 348 349 348 348 349 349 349 347 348 348 347 343 339 340 350 351 353 356 358 358 358 356 353 352 351 350 350 350 350 349 350 350 349
352 354 355 356 354 352 350 351 352 351 350 348 344 343 345 347 349 349 349 348 348 348 346 344 341 343 348 352 355 357 358 358 355 353 351 350 349 350 349 349 349 349 350
357 353 353 354 350 354 353 349 350 351 348 349 341 338 340 343 346 346 349 347 347 346 347 345 343 341 341 350 351 353 357 359 358 355 350 348 348 350 350 349 349 348 346
355 354 355 356 358 351 352 351 350 345 343 345 335 333 326 330 336 343 346 344 345 345 345 346 345 346 348 343 350 348 352 356 358 357 351 348 348 350 350 347 346 347 347
356 349 353 356 358 358 351 352 350 348 339 339 341 330 322 320 329 337 344 340 346 343 345 346 347 348 352 349 348 349 349 349 355 356 354 349 349 349 347 347 347 346 346
353 354 355 355 356 356 352 350 347 345 343 336 338 339 337 333 324 323 335 339 344 342 346 341 344 349 349 349 350 347 345 344 349 352 353 351 349 349 349 347 345 346 348
340 342 347 348 353 354 353 352 352 348 343 340 337 337 338 337 338 332 326 330 338 338 339 343 343 348 350 350 352 346 341 340 342 345 348 349 349 349 347 344 345 347 346
328 331 333 337 343 346 346 347 351 351 350 347 343 341 336 332 331 331 329 332 332 336 338 339 342 344 349 350 350 343 337 335 335 336 339 341 345 346 344 343 343 345 344
322 328 330 331 330 334 336 342 348 349 348 345 348 340 339 337 337 337 334 329 329 332 334 337 340 342 346 349 349 342 340 333 331 330 331 335 338 340 342 341 341 342 342
320 325 324 325 326 329 330 333 334 337 343 342 346 346 335 334 335 334 332 331 326 330 332 337 339 340 344 346 348 339 345 330 328 326 327 330 332 335 337 339 339 339 338
319 320 321 321 322 323 324 329 326 335 341 343 340 344 340 333 331 331 333 331 327 320 323 333 334 342 341 341 343 348 349 332 329 325 324 326 327 330 332 332 333 333 333
318 318 318 319 319 320 321 323 324 329 334 335 334 337 338 334 333 330 329 328 327 324 321 324 328 342 347 340 341 344 347 333 327 325 324 325 325 326 327 327 328 329 330
315 314 314 315 315 316 318 320 321 321 324 332 334 336 337 339 331 328 330 328 327 327 324 328 332 339 346 343 342 345 345 348 343 324 325 324 322 323 323 324 325 326 326
313 312 312 312 311 312 314 314 313 316 319 322 328 331 332 333 335 338 331 332 329 332 326 329 333 334 342 344 342 343 343 342 344 328 324 322 320 319 320 320 320 320 318
310 310 309 308 308 309 309 310 311 312 315 318 322 326 329 331 332 330 332 330 328 330 329 331 328 333 336 339 338 342 341 345 343 331 323 320 319 318 318 318 316 315 313
306 306 306 306 306 305 305 306 306 307 310 313 318 323 325 328 330 331 331 332 332 328 327 326 330 328 333 338 338 335 335 342 340 339 332 329 322 317 316 316 316 315 311
307 306 305 305 305 305 303 304 305 306 307 308 309 312 320 323 321 324 329 330 330 328 324 323 327 326 327 331 332 335 335 342 340 339 335 335 334 335 328 317 323 317 311
306 306 306 306 305 303 301 301 303 302 303 304 305 307 311 315 317 315 314 315 322 329 327 322 321 324 329 332 335 334 337 331 329 341 337 333 338 337 338 337 321 312 308
306 305 307 304 306 304 300 299 300 302 301 303 304 304 307 311 311 319 315 312 313 311 313 328 326 327 329 337 340 337 333 331 331 341 339 333 334 334 338 328 309 307 306
303 305 306 306 305 304 300 298 299 301 301 302 303 305 306 309 311 311 320 322 323 326 327 325 331 332 338 338 336 330 331 332 337 341 340 327 333 332 334 330 307 306 305
301 303 306 307 305 305 299 297 299 302 301 303 306 308 309 311 304 301 312 316 321 323 318 312 314 315 310 308 323 330 331 333 328 326 331 328 330 322 323 320 315 306 304
302 303 304 305 304 303 300 297 298 302 301 303 304 306 304 308 302 300 309 318 317 318 321 325 329 320 312 318 309 334 330 331 328 325 329 327 326 325 317 317 316 315 313

GFSMA_sfc_thetae_105.txt.gz
Theta_e
356 352 353 346 348 346 345 346 343 346 342 342 341 340 339 338 338 336 335 348 344 344 347 348 350 354 357 358 356 357 357 355 355 353 352 351 351 352 352 353 352 351 350
362 355 354 349 349 344 344 345 346 345 343 343 341 340 339 339 338 339 335 336 347 345 347 349 349 352 356 359 359 357 355 353 354 353 352 351 350 350 352 352 352 352 351
363 362 354 355 356 357 362 357 354 350 346 344 344 341 341 344 341 342 342 340 338 344 345 347 349 351 354 358 361 359 355 353 353 351 350 350 349 349 350 351 352 352 351
360 363 360 354 355 358 355 352 352 350 349 347 348 345 346 349 347 349 349 348 345 342 345 345 347 351 354 357 360 360 358 354 353 351 350 350 350 350 349 350 351 351 351
357 358 354 352 358 362 356 354 353 353 350 348 347 349 350 349 351 347 352 353 354 350 347 348 348 349 352 356 358 360 359 356 353 352 351 351 351 350 349 350 350 350 350
354 357 354 355 357 355 357 355 353 351 352 349 345 343 349 347 349 350 350 351 352 355 354 351 349 346 348 352 355 358 359 358 355 354 352 351 350 351 350 350 350 350 350
356 359 348 345 351 350 354 358 353 349 344 348 348 345 345 350 351 347 351 348 350 351 352 351 352 348 345 347 350 353 358 358 358 356 352 349 349 350 350 350 350 349 349
355 358 355 348 353 347 355 349 352 344 348 347 341 341 332 335 342 345 348 348 350 348 346 350 350 354 353 348 350 349 354 357 359 357 353 349 348 349 350 350 350 349 346
357 357 355 356 351 322 326 330 339 342 339 342 342 338 329 323 330 339 345 346 350 346 346 349 351 351 355 352 348 350 349 351 356 357 355 350 350 351 351 350 347 346 347
351 353 350 352 347 329 333 326 343 346 346 340 344 342 342 339 326 325 337 343 346 345 348 345 345 347 351 352 353 348 344 345 351 354 354 353 353 353 352 349 347 346 346
340 337 342 347 351 352 349 347 347 349 347 343 341 339 340 339 340 332 327 328 337 339 342 345 344 344 347 352 352 349 340 340 342 346 348 350 352 352 350 350 348 346 350
329 334 333 336 339 341 345 347 348 349 348 347 344 341 337 335 332 333 331 331 332 333 338 341 344 344 346 350 350 343 339 335 335 337 339 343 347 348 349 349 346 347 347
324 333 336 334 331 335 334 339 340 345 346 344 347 341 339 335 336 333 331 328 329 333 335 339 339 339 341 346 348 342 341 334 331 331 333 336 340 342 344 345 346 346 346
322 331 328 327 327 327 328 333 330 331 338 338 344 344 341 339 336 334 334 331 327 330 331 336 338 339 343 344 346 340 346 332 329 328 328 330 333 335 337 339 340 342 343
322 324 323 323 324 324 325 328 324 328 332 334 335 339 341 339 338 335 332 333 328 323 325 331 332 342 342 345 345 347 349 335 330 326 325 326 328 330 332 333 334 335 336
321 320 319 319 320 320 321 325 322 325 327 327 329 331 334 335 337 338 335 332 330 328 325 329 330 338 348 343 343 346 345 335 328 325 325 325 325 326 327 328 329 330 332
318 317 317 316 316 316 318 320 320 320 319 322 326 326 327 333 331 332 335 334 330 328 324 328 329 334 340 342 346 348 345 345 342 325 325 324 322 323 324 325 325 327 327
315 315 314 313 312 311 313 313 313 313 313 314 317 318 321 327 330 332 333 333 332 330 324 324 332 332 336 340 344 347 344 342 344 330 324 322 320 320 321 321 321 322 322
312 311 309 308 308 308 308 309 308 307 309 310 310 312 317 321 324 327 330 331 330 331 332 327 324 330 332 334 337 343 345 345 343 332 322 321 320 318 319 319 318 316 315
309 310 310 309 309 308 308 308 307 308 307 308 309 313 313 313 317 322 325 327 329 328 328 328 324 326 329 333 334 333 337 342 339 341 331 328 321 319 318 318 316 315 312
310 310 309 309 309 307 307 307 308 307 306 305 308 308 309 313 312 311 311 319 326 326 325 321 321 320 325 326 326 330 332 336 342 346 340 334 329 325 323 318 322 317 311
309 309 308 308 306 307 304 303 305 306 305 305 303 306 308 309 309 307 308 310 313 319 321 318 320 318 323 327 327 331 333 333 331 345 341 332 333 330 331 330 322 313 309
311 309 309 308 306 307 302 300 302 304 304 303 304 305 305 306 308 308 308 308 310 309 312 322 319 320 322 329 330 331 332 335 334 342 340 334 333 332 336 332 312 308 307
309 308 306 304 306 307 302 299 300 304 304 304 303 305 304 306 308 308 309 311 314 315 324 321 325 329 331 332 331 332 334 338 340 340 341 326 330 329 336 320 310 307 305
306 304 304 305 307 307 302 298 299 303 303 303 305 307 306 306 303 299 308 309 310 311 315 311 311 309 308 307 312 333 328 332 327 331 333 329 327 324 324 320 313 306 304
305 305 306 309 306 308 303 299 300 306 304 304 307 305 302 303 300 298 304 306 304 307 312 323 318 316 310 320 307 330 330 325 323 324 335 327 322 320 314 317 315 313 310

GFSMA_sfc_thetae_108.txt.gz
Theta_e
353 353 351 350 349 346 346 344 342 341 340 338 337 337 338 339 339 338 337 350 347 347 348 350 351 353 355 355 355 355 355 355 354 353 352 351 351 351 352 352 352 352 351
357 355 356 355 352 352 348 346 344 346 342 341 340 341 341 338 338 337 336 339 347 347 348 350 350 352 354 355 356 356 356 354 354 353 351 351 350 350 351 352 352 352 351
360 356 355 353 353 354 359 357 355 354 348 346 343 343 340 340 339 339 340 337 338 345 345 347 349 350 351 354 355 356 356 354 353 352 351 350 350 349 350 351 351 351 351
360 361 358 353 355 359 354 352 351 349 348 346 343 342 340 341 341 340 341 339 342 340 345 345 347 349 351 353 356 357 356 354 352 351 350 350 349 349 349 349 350 350 350
353 348 349 350 353 352 354 355 352 347 346 347 348 347 344 344 344 345 346 347 347 346 345 349 345 346 348 351 354 357 357 355 352 351 351 351 350 350 349 349 349 350 349
348 337 330 340 346 350 351 351 350 350 348 346 346 343 343 345 344 344 346 347 348 349 349 348 346 345 346 349 351 356 358 357 354 352 351 350 350 350 350 349 349 349 349
346 335 329 339 346 345 346 343 332 326 335 339 336 335 338 339 341 332 339 347 345 347 349 349 348 346 344 346 347 351 356 358 357 354 351 348 349 350 350 349 349 349 348
353 345 347 349 345 343 333 330 327 323 331 331 331 324 317 317 326 333 343 343 345 347 346 347 347 348 348 345 344 346 352 357 358 355 352 348 349 350 350 349 349 349 348
357 356 355 352 349 335 330 329 325 322 322 327 331 323 316 314 321 329 335 340 342 347 345 346 345 346 346 348 348 348 347 350 356 357 354 350 350 350 350 349 349 349 347
347 346 350 348 346 331 324 326 329 323 329 325 333 332 329 330 323 320 331 336 340 343 342 343 342 345 343 347 350 348 345 345 350 354 354 353 352 352 351 350 349 347 346
345 341 339 339 343 336 333 334 328 324 334 333 333 333 331 329 331 327 321 324 332 338 339 339 340 340 340 340 340 346 341 340 342 345 349 351 353 353 352 352 349 347 345
332 338 331 334 335 336 337 337 341 339 338 338 336 335 332 328 327 329 327 327 328 330 333 333 335 340 341 340 345 344 339 335 334 335 339 344 348 350 351 350 349 348 347
326 327 330 330 328 329 329 330 331 332 333 334 337 336 337 336 333 330 328 324 324 327 329 333 333 333 335 336 338 340 340 333 332 330 332 335 339 343 345 347 347 346 347
324 329 327 324 323 323 324 326 325 324 326 327 329 332 334 335 336 332 328 323 318 322 326 326 331 336 336 336 339 338 339 333 331 328 327 329 332 336 339 340 341 341 342
321 323 322 322 322 321 321 321 319 321 323 323 324 325 327 327 331 335 333 329 322 315 315 324 328 332 334 336 338 339 338 337 331 327 325 326 327 330 332 333 334 335 336
321 320 319 319 319 318 318 318 316 317 318 318 319 320 321 323 324 326 328 329 329 323 316 319 327 331 335 334 341 341 341 336 328 326 326 325 324 325 327 328 329 331 332
319 316 316 315 313 312 313 312 312 312 312 312 314 314 315 317 317 320 322 324 326 326 322 322 324 328 332 336 337 340 341 338 336 324 325 324 321 322 324 325 325 327 328
316 313 313 311 310 310 310 309 308 308 308 308 308 309 309 311 310 314 316 319 322 324 322 320 322 323 327 327 333 334 337 340 338 332 324 323 320 318 320 322 322 322 322
312 312 311 310 310 310 309 308 307 307 307 307 307 306 306 306 307 309 311 314 318 322 323 321 322 325 324 329 327 328 332 333 339 334 322 321 319 318 319 319 319 318 316
312 311 311 310 309 309 309 308 307 307 308 308 307 307 306 306 306 307 309 310 313 310 315 320 321 321 324 326 326 322 322 331 331 336 331 325 320 318 318 318 319 319 313
311 310 309 308 309 309 308 307 306 306 305 305 306 306 306 307 308 308 306 306 306 305 308 310 317 319 319 320 319 323 322 325 329 334 330 331 325 322 319 317 320 318 311
312 311 310 309 308 308 304 303 305 305 306 306 304 304 305 307 306 306 306 307 306 304 303 305 310 314 317 319 321 322 322 321 319 333 331 332 329 326 324 322 317 312 309
310 308 309 308 307 306 302 301 303 305 305 305 304 304 304 305 305 304 304 305 306 305 306 307 306 311 316 320 322 322 320 321 320 327 331 329 330 327 329 326 312 308 307
306 307 307 307 305 306 302 300 301 304 305 305 305 304 304 303 304 303 304 304 306 307 308 311 311 315 317 321 323 323 322 322 322 326 331 324 330 329 322 319 312 307 306
307 307 307 307 307 307 303 300 301 306 306 306 306 305 305 304 302 299 303 302 303 305 309 306 305 303 303 307 310 321 319 318 317 320 329 328 327 321 319 313 312 309 307
306 307 307 308 308 309 304 300 301 306 305 306 307 307 303 303 300 297 302 302 301 303 306 308 309 308 307 312 308 317 316 315 316 315 327 327 320 318 313 314 310 309 307

GFSMA_sfc_thetae_111.txt.gz
Theta_e
341 345 341 343 344 343 342 337 336 336 334 332 332 332 331 336 338 333 332 350 348 349 352 353 353 354 354 353 352 352 353 354 354 353 351 351 351 351 352 352 351 351 350
342 346 343 345 344 344 341 340 339 336 334 333 330 330 331 333 333 331 331 339 348 348 350 352 353 353 354 354 353 352 352 352 353 353 351 350 350 350 351 352 351 351 351
348 349 348 343 342 344 342 346 341 343 340 338 334 334 334 333 333 332 333 331 338 346 347 348 351 351 353 354 354 353 352 352 353 352 351 350 349 349 350 351 351 351 350
347 344 343 342 346 345 344 344 342 340 336 330 330 336 341 339 337 335 333 334 333 335 342 346 347 350 351 353 354 354 352 351 352 351 350 349 349 349 349 349 350 350 350
346 344 342 340 343 340 336 335 339 336 338 334 334 335 341 339 331 336 338 336 341 340 341 344 347 347 348 351 352 354 354 353 351 351 350 349 349 349 348 349 349 349 349
345 342 338 335 337 334 332 335 326 325 329 335 336 337 337 336 329 332 334 336 335 338 346 344 344 344 346 348 350 352 353 355 353 352 350 348 348 349 349 349 348 349 349
343 333 328 328 327 331 329 327 326 323 324 324 325 324 329 325 323 332 332 333 333 335 337 346 345 346 345 347 347 349 352 354 356 353 350 347 347 349 349 349 348 348 348
342 333 327 327 335 332 328 326 325 321 321 324 323 322 315 318 319 329 329 332 328 332 335 342 344 344 344 343 342 346 349 352 355 356 351 347 347 348 349 349 348 348 347
346 336 335 336 340 333 327 325 323 319 316 320 325 322 313 311 317 323 327 331 335 337 336 343 343 344 342 341 344 345 347 347 352 354 353 349 348 349 349 349 348 348 347
337 335 334 339 335 323 321 322 325 321 318 316 326 329 326 321 318 316 322 327 330 331 336 341 342 339 341 339 345 346 342 343 348 351 352 352 352 351 351 350 349 347 347
325 325 328 330 332 326 323 322 327 322 321 319 322 327 327 326 324 320 317 321 323 326 331 336 340 338 337 337 336 336 338 339 340 342 347 350 351 352 351 351 349 348 348
320 323 324 322 321 322 321 325 331 327 324 326 328 331 329 324 323 323 321 321 321 324 328 332 333 335 337 337 340 339 335 335 334 334 337 341 346 349 350 351 351 351 349
315 318 318 316 316 316 317 318 319 321 323 326 328 329 331 330 330 327 324 322 321 324 326 330 331 329 331 335 337 339 339 334 331 329 329 332 336 341 345 347 349 349 348
314 316 315 316 316 316 315 315 316 316 318 318 317 319 321 323 327 329 326 323 319 319 322 320 326 331 330 330 333 334 334 331 329 327 327 328 330 333 337 340 342 342 341
316 314 314 313 314 315 314 313 312 312 314 315 315 315 315 317 318 319 321 323 320 315 316 321 320 325 329 332 334 334 334 332 331 327 326 325 326 328 330 333 335 335 336
312 312 311 310 309 309 308 307 306 307 307 308 311 310 311 312 313 315 314 315 317 317 315 322 323 322 321 326 332 335 334 332 330 326 325 324 323 324 326 328 330 331 332
309 308 308 307 307 306 306 304 304 305 305 304 305 306 307 307 307 309 309 310 313 314 314 319 323 325 325 326 332 335 338 335 333 325 325 323 321 321 322 324 324 326 328
307 307 307 306 307 307 305 305 304 305 305 304 304 303 304 306 303 303 303 303 306 311 313 311 318 321 322 325 326 327 334 337 335 328 325 323 321 319 319 320 321 322 323
306 306 306 306 306 306 305 305 305 306 304 306 306 305 304 304 303 301 302 302 305 308 309 310 310 317 321 326 325 326 327 329 334 332 324 321 319 318 317 319 318 319 318
306 305 305 305 306 306 306 306 307 306 303 305 307 307 305 304 303 302 302 303 303 302 305 306 307 309 314 321 325 323 322 326 327 334 328 324 318 316 317 319 319 319 316
306 307 306 307 307 306 307 303 303 303 302 302 303 304 304 306 308 307 304 302 301 300 301 301 301 303 306 312 316 322 321 319 322 325 324 324 323 322 320 319 322 320 314
304 305 306 307 304 305 303 303 304 302 302 302 302 304 305 307 306 306 306 306 305 300 298 298 298 298 302 306 312 318 320 318 316 324 324 322 327 324 324 322 318 315 311
303 306 305 303 302 303 302 301 303 304 305 304 303 303 303 305 305 305 304 304 304 304 304 302 299 300 301 306 310 312 318 317 315 320 322 319 328 327 326 324 313 309 308
304 304 304 305 304 305 302 300 301 304 304 305 304 304 304 304 304 303 302 301 301 302 302 305 305 304 304 307 310 315 316 320 321 320 322 316 325 325 326 323 310 308 306
304 304 305 306 305 307 302 300 300 302 302 302 304 306 307 306 303 298 302 301 300 302 305 303 302 301 301 302 306 310 313 316 314 314 319 317 317 318 316 313 315 309 305
304 305 305 304 304 305 302 298 298 299 297 299 300 302 303 304 301 297 301 301 300 302 303 304 305 304 301 305 303 308 313 314 315 311 317 317 317 316 311 311 311 309 308

GFSMA_sfc_thetae_114.txt.gz
Theta_e
341 341 341 341 343 342 342 339 336 336 335 335 334 333 332 331 337 338 334 345 352 351 352 354 353 353 352 352 351 351 351 352 353 353 351 351 350 351 351 352 351 350 350
339 340 340 342 340 341 341 340 336 335 334 333 332 331 329 328 330 331 331 332 349 347 349 353 355 355 355 355 353 352 352 351 352 352 352 351 350 350 351 351 351 351 350
344 347 344 342 342 343 344 344 341 340 338 336 333 334 339 339 338 337 337 337 334 341 346 349 352 353 354 354 355 352 351 351 351 351 351 350 350 349 350 351 351 351 349
346 343 342 343 344 343 339 337 336 334 336 333 333 333 334 338 337 334 336 337 336 338 342 344 348 349 350 352 353 354 352 350 350 350 350 350 350 349 349 350 350 350 349
347 345 343 341 341 336 333 336 329 330 329 328 330 335 336 335 336 338 335 335 336 336 337 340 343 346 348 350 352 353 352 351 350 349 350 350 350 349 349 349 349 349 349
344 341 337 334 334 330 330 327 324 325 326 326 330 333 334 336 332 330 331 333 335 336 337 338 336 339 346 350 351 352 354 352 351 351 349 348 349 349 348 348 348 348 349
342 336 332 330 329 328 325 324 321 321 323 326 323 326 327 334 328 324 327 330 333 335 337 336 334 337 342 346 347 349 353 354 354 352 349 346 347 348 348 348 348 348 348
340 334 330 326 327 327 324 324 322 319 319 320 316 319 315 318 324 323 327 331 331 334 334 333 332 331 337 344 346 347 350 353 355 353 349 347 347 348 349 348 348 348 348
342 336 331 328 332 329 325 323 322 319 316 315 319 315 311 311 315 319 327 330 330 329 330 330 331 334 335 343 344 345 346 347 352 353 350 348 348 349 349 348 348 348 348
327 331 334 335 336 329 326 325 322 317 314 312 316 324 320 317 313 315 320 323 329 330 330 333 334 338 342 342 344 343 341 341 347 350 350 350 352 351 350 349 348 347 347
322 324 322 325 326 323 321 320 320 320 318 315 314 315 321 323 321 319 316 321 323 326 328 328 328 333 337 339 339 337 337 337 337 339 342 346 350 351 351 350 348 348 348
317 319 319 317 316 315 315 317 319 321 321 319 320 322 323 323 323 323 320 321 322 325 327 326 327 331 333 335 340 338 334 332 331 332 334 338 344 347 348 349 351 351 351
312 312 313 313 313 313 313 313 313 314 315 315 319 321 322 322 323 322 321 321 321 324 325 327 327 328 329 331 335 337 337 332 329 329 329 331 334 338 342 346 348 350 349
311 311 311 312 313 314 313 312 311 311 312 311 311 312 313 315 316 319 318 316 313 317 321 322 324 326 330 329 331 333 334 330 329 327 326 327 328 330 334 338 340 342 343
313 311 310 309 309 308 308 306 305 305 306 305 305 307 307 308 310 310 311 312 311 307 310 318 320 323 322 326 330 330 331 330 329 326 325 324 325 326 327 330 333 334 335
308 307 306 306 306 306 306 304 303 304 303 303 305 304 304 305 305 305 306 308 309 308 305 313 316 321 324 326 328 327 328 328 327 325 326 325 323 323 324 325 326 329 331
306 306 306 305 305 305 305 303 302 303 304 303 303 303 303 304 304 302 302 303 302 303 301 305 311 317 318 320 323 325 327 331 332 325 326 324 321 320 320 321 323 325 327
305 305 306 305 306 306 305 303 303 305 304 304 303 303 303 306 302 301 302 300 300 300 300 299 304 307 313 316 319 321 325 329 334 330 324 322 320 318 318 318 319 320 321
304 304 305 304 305 305 304 304 303 304 304 304 304 303 303 304 304 302 301 300 301 302 301 301 301 304 308 310 311 316 323 327 330 332 323 321 319 318 316 316 316 316 315
304 304 304 305 305 305 305 305 304 302 302 303 303 303 303 303 303 302 302 302 302 300 300 299 300 302 304 307 308 310 313 323 325 331 327 323 319 316 314 315 316 317 313
303 304 304 304 303 304 305 304 305 305 304 303 304 303 303 305 307 306 303 303 303 301 300 298 297 297 298 300 300 305 310 313 322 324 327 323 323 321 319 315 321 320 314
302 302 303 302 302 304 303 303 305 304 305 304 303 304 304 306 306 307 307 308 306 302 300 299 297 296 297 297 300 301 304 308 313 323 323 322 325 324 324 323 317 314 311
300 301 300 304 302 302 301 301 302 304 304 303 304 304 304 306 306 305 305 305 305 304 304 301 299 299 299 299 300 301 303 307 309 319 323 317 325 322 326 324 311 309 310
300 300 302 305 302 304 302 300 300 301 301 301 302 303 303 304 305 305 304 304 303 303 303 303 302 301 301 302 302 303 303 307 311 315 320 316 322 321 326 323 310 308 306
301 301 301 302 301 302 300 297 297 297 297 299 301 302 302 302 301 298 303 303 303 303 304 303 302 300 299 300 302 304 304 306 310 313 319 316 316 317 315 314 314 308 304
302 304 302 301 301 300 297 296 296 294 294 296 297 299 300 299 297 296 299 302 301 302 303 303 304 301 301 302 301 302 305 305 306 312 319 317 316 315 312 311 310 309 307

GFSMA_sfc_thetae_117.txt.gz
Theta_e
342 342 343 342 342 342 342 339 337 336 335 334 334 332 331 329 328 331 333 341 345 348 353 358 359 358 354 352 351 350 350 351 352 352 351 351 351 351 351 351 351 350 350
342 341 341 341 341 342 339 339 337 335 333 332 332 333 332 335 336 335 335 334 343 343 347 349 351 353 357 356 354 353 351 351 351 351 350 351 351 351 351 352 351 351 350
340 339 340 340 341 341 339 340 339 337 333 335 333 333 334 338 337 336 336 336 337 341 344 345 346 348 349 351 353 352 352 350 351 350 349 349 350 350 350 351 351 351 350
344 342 342 340 342 340 338 337 335 334 333 331 329 332 335 338 337 336 336 336 335 335 339 344 346 348 350 351 352 354 353 351 350 349 349 349 349 350 349 350 350 350 350
345 342 340 340 340 336 335 334 327 329 327 325 325 328 332 332 335 337 336 335 335 335 335 338 344 346 348 348 351 353 354 352 350 349 349 349 350 350 350 350 349 349 349
344 342 335 336 334 331 330 327 324 326 326 324 329 330 330 332 332 332 333 335 335 335 335 336 336 337 341 344 347 350 354 352 351 351 349 348 348 349 349 349 349 349 349
342 337 332 330 329 327 326 325 323 322 322 323 322 320 322 325 327 329 325 325 326 329 332 335 336 336 336 341 343 346 350 352 353 352 349 346 347 348 349 349 348 348 348
339 334 330 327 326 324 323 322 320 318 318 320 315 314 310 313 317 324 324 324 324 328 332 333 334 334 332 331 338 345 348 349 352 352 350 346 347 348 348 348 348 348 348
340 335 331 327 327 325 322 322 321 319 316 314 314 312 306 305 311 316 317 320 324 328 330 331 331 333 332 333 336 338 340 344 349 351 350 348 348 349 349 348 347 347 348
325 330 335 332 334 329 329 329 327 318 313 310 312 318 316 314 309 309 316 319 322 324 326 327 327 329 331 332 337 342 341 342 346 348 350 350 350 350 350 349 348 347 347
320 320 319 321 320 321 320 319 319 317 318 318 316 313 315 318 319 318 315 318 321 322 324 328 330 332 333 335 336 338 337 338 339 340 341 344 345 348 349 350 349 348 348
314 315 316 314 312 312 312 312 313 313 313 315 317 319 320 320 320 319 317 317 318 323 326 327 327 325 328 331 336 337 334 333 332 333 334 336 339 342 346 347 349 350 350
310 310 311 311 311 312 312 310 309 309 309 308 309 309 311 312 316 315 315 312 313 316 320 324 327 329 328 327 327 333 334 331 329 327 328 329 333 337 341 343 345 346 348
308 309 310 310 309 309 308 305 305 305 306 304 304 304 305 307 308 308 308 308 306 308 310 312 321 325 326 324 328 332 329 328 327 325 325 325 328 331 333 334 337 339 340
310 308 307 306 306 306 305 303 302 302 302 301 301 301 302 304 305 306 306 306 305 300 303 308 310 316 319 320 324 325 326 328 327 325 324 324 324 326 327 328 330 332 334
306 305 304 304 304 304 304 302 301 302 302 302 303 301 301 301 301 302 303 302 303 301 298 304 305 308 312 318 320 321 322 325 324 324 325 324 322 323 323 324 325 328 330
304 304 305 304 304 304 304 302 302 302 302 302 303 303 303 302 301 302 300 300 300 300 297 299 301 303 304 307 311 314 320 320 323 323 324 324 322 321 322 321 322 324 326
303 304 304 304 304 304 304 303 302 303 303 302 303 303 303 305 303 303 301 300 300 300 298 296 299 300 302 307 309 310 312 315 320 324 323 322 320 319 319 318 319 319 320
303 304 304 304 304 304 303 303 303 303 303 303 304 303 302 302 301 301 302 301 301 302 300 298 298 301 301 302 303 308 310 311 315 320 320 321 319 318 318 317 316 314 314
302 303 303 303 303 303 304 304 304 305 305 305 305 305 304 302 301 301 302 302 302 300 300 299 299 300 301 301 302 302 302 304 306 317 321 322 321 319 317 316 316 315 312
301 302 302 302 302 302 305 304 305 305 303 303 304 305 304 306 308 307 305 303 301 300 300 300 299 299 299 298 296 297 297 299 302 307 312 320 323 322 319 316 320 319 313
300 300 301 301 300 303 303 303 304 303 302 302 302 304 305 307 307 308 308 308 307 303 301 301 300 299 298 298 299 298 297 296 296 311 315 317 325 324 323 322 316 313 311
298 298 299 300 302 300 301 300 301 299 299 299 300 301 302 305 306 306 306 306 306 305 306 305 302 299 298 299 299 298 297 297 299 303 308 308 316 322 324 323 313 310 308
297 297 299 300 300 301 300 297 298 296 296 297 298 300 300 301 303 303 303 303 304 305 305 305 305 304 302 301 299 299 298 298 301 304 307 303 313 319 324 322 311 309 306
297 301 302 302 297 297 297 295 295 295 294 294 297 298 299 300 300 298 300 300 300 302 306 304 302 301 299 298 301 301 299 299 298 301 311 309 312 318 317 316 315 307 305
300 300 299 296 298 294 294 294 294 292 291 293 295 297 299 300 297 298 299 299 298 300 303 305 304 301 300 301 300 302 302 300 299 300 309 313 316 314 311 311 311 309 306